<?xml version="1.0" encoding="UTF-8" standalone="no" ?>
<gpx xmlns="http://www.topografix.com/GPX/1/1" xmlns:xsi="http://www.w3.org/2001/XMLSchema-instance" xsi:schemaLocation="http://www.topografix.com/GPX/1/1 http://www.topografix.com/GPX/1/1/gpx.xsd" version="1.1" creator="VisuGPX - https://www.visugpx.com">
  <metadata>
    <name>2023-01-07_14-02 Boissy Montgeroult Courcelles</name>
  </metadata>
  <trk>
    <name><![CDATA[2023-01-07_14-02 Boissy Montgeroult Courcelles_1]]></name>
    <trkseg>
      <trkpt lat="49.07585" lon="2.02582">
        <ele>43</ele>
        <time>2023-01-07T13:02:31Z</time>
      </trkpt>
      <trkpt lat="49.07585" lon="2.02582">
        <ele>43</ele>
        <time>2023-01-07T13:02:37Z</time>
      </trkpt>
      <trkpt lat="49.07585" lon="2.02582">
        <ele>43</ele>
        <time>2023-01-07T13:02:42Z</time>
      </trkpt>
      <trkpt lat="49.07585" lon="2.02582">
        <ele>43</ele>
        <time>2023-01-07T13:02:47Z</time>
      </trkpt>
      <trkpt lat="49.07585" lon="2.02582">
        <ele>43</ele>
        <time>2023-01-07T13:02:53Z</time>
      </trkpt>
      <trkpt lat="49.07585" lon="2.02582">
        <ele>43</ele>
        <time>2023-01-07T13:02:58Z</time>
      </trkpt>
      <trkpt lat="49.07585" lon="2.02582">
        <ele>43</ele>
        <time>2023-01-07T13:03:03Z</time>
      </trkpt>
      <trkpt lat="49.07585" lon="2.02582">
        <ele>43</ele>
        <time>2023-01-07T13:03:09Z</time>
      </trkpt>
      <trkpt lat="49.07585" lon="2.02582">
        <ele>43</ele>
        <time>2023-01-07T13:03:14Z</time>
      </trkpt>
      <trkpt lat="49.07585" lon="2.02582">
        <ele>43</ele>
        <time>2023-01-07T13:03:20Z</time>
      </trkpt>
      <trkpt lat="49.07585" lon="2.02582">
        <ele>43</ele>
        <time>2023-01-07T13:03:26Z</time>
      </trkpt>
      <trkpt lat="49.07585" lon="2.02582">
        <ele>43</ele>
        <time>2023-01-07T13:03:31Z</time>
      </trkpt>
      <trkpt lat="49.07585" lon="2.02582">
        <ele>43</ele>
        <time>2023-01-07T13:03:37Z</time>
      </trkpt>
      <trkpt lat="49.07585" lon="2.02582">
        <ele>43</ele>
        <time>2023-01-07T13:03:43Z</time>
      </trkpt>
      <trkpt lat="49.07585" lon="2.02582">
        <ele>43</ele>
        <time>2023-01-07T13:03:48Z</time>
      </trkpt>
      <trkpt lat="49.07585" lon="2.02582">
        <ele>43</ele>
        <time>2023-01-07T13:03:54Z</time>
      </trkpt>
      <trkpt lat="49.07585" lon="2.02582">
        <ele>43</ele>
        <time>2023-01-07T13:04:00Z</time>
      </trkpt>
      <trkpt lat="49.07585" lon="2.02582">
        <ele>43</ele>
        <time>2023-01-07T13:04:05Z</time>
      </trkpt>
      <trkpt lat="49.07585" lon="2.02582">
        <ele>43</ele>
        <time>2023-01-07T13:04:11Z</time>
      </trkpt>
      <trkpt lat="49.07585" lon="2.02582">
        <ele>43</ele>
        <time>2023-01-07T13:04:16Z</time>
      </trkpt>
      <trkpt lat="49.07585" lon="2.02589">
        <ele>42.8</ele>
        <time>2023-01-07T13:04:22Z</time>
      </trkpt>
      <trkpt lat="49.07584" lon="2.02597">
        <ele>42.5</ele>
        <time>2023-01-07T13:04:28Z</time>
      </trkpt>
      <trkpt lat="49.07581" lon="2.02614">
        <ele>41.9</ele>
        <time>2023-01-07T13:04:34Z</time>
      </trkpt>
      <trkpt lat="49.07579" lon="2.02626">
        <ele>41.6</ele>
        <time>2023-01-07T13:04:39Z</time>
      </trkpt>
      <trkpt lat="49.07579" lon="2.02634">
        <ele>41.3</ele>
        <time>2023-01-07T13:04:44Z</time>
      </trkpt>
      <trkpt lat="49.07576" lon="2.02649">
        <ele>41.3</ele>
        <time>2023-01-07T13:04:50Z</time>
      </trkpt>
      <trkpt lat="49.07574" lon="2.02661">
        <ele>41.3</ele>
        <time>2023-01-07T13:04:55Z</time>
      </trkpt>
      <trkpt lat="49.07574" lon="2.02671">
        <ele>41.4</ele>
        <time>2023-01-07T13:05:01Z</time>
      </trkpt>
      <trkpt lat="49.07574" lon="2.02677">
        <ele>41.4</ele>
        <time>2023-01-07T13:05:06Z</time>
      </trkpt>
      <trkpt lat="49.07569" lon="2.02689">
        <ele>41.5</ele>
        <time>2023-01-07T13:05:12Z</time>
      </trkpt>
      <trkpt lat="49.07566" lon="2.027">
        <ele>41.6</ele>
        <time>2023-01-07T13:05:17Z</time>
      </trkpt>
      <trkpt lat="49.07564" lon="2.02712">
        <ele>41.7</ele>
        <time>2023-01-07T13:05:23Z</time>
      </trkpt>
      <trkpt lat="49.07563" lon="2.02723">
        <ele>41.7</ele>
        <time>2023-01-07T13:05:28Z</time>
      </trkpt>
      <trkpt lat="49.0756" lon="2.02736">
        <ele>41.3</ele>
        <time>2023-01-07T13:05:34Z</time>
      </trkpt>
      <trkpt lat="49.07557" lon="2.02747">
        <ele>41</ele>
        <time>2023-01-07T13:05:39Z</time>
      </trkpt>
      <trkpt lat="49.07554" lon="2.02761">
        <ele>41</ele>
        <time>2023-01-07T13:05:45Z</time>
      </trkpt>
      <trkpt lat="49.0755" lon="2.02774">
        <ele>41</ele>
        <time>2023-01-07T13:05:51Z</time>
      </trkpt>
      <trkpt lat="49.0755" lon="2.02784">
        <ele>40.8</ele>
        <time>2023-01-07T13:05:56Z</time>
      </trkpt>
      <trkpt lat="49.07547" lon="2.02795">
        <ele>40.5</ele>
        <time>2023-01-07T13:06:02Z</time>
      </trkpt>
      <trkpt lat="49.07545" lon="2.02806">
        <ele>40.4</ele>
        <time>2023-01-07T13:06:07Z</time>
      </trkpt>
      <trkpt lat="49.07542" lon="2.0282">
        <ele>40.5</ele>
        <time>2023-01-07T13:06:13Z</time>
      </trkpt>
      <trkpt lat="49.07539" lon="2.02831">
        <ele>40.6</ele>
        <time>2023-01-07T13:06:18Z</time>
      </trkpt>
      <trkpt lat="49.07537" lon="2.02842">
        <ele>40.7</ele>
        <time>2023-01-07T13:06:24Z</time>
      </trkpt>
      <trkpt lat="49.07535" lon="2.02851">
        <ele>40.7</ele>
        <time>2023-01-07T13:06:29Z</time>
      </trkpt>
      <trkpt lat="49.07534" lon="2.02858">
        <ele>40.8</ele>
        <time>2023-01-07T13:06:34Z</time>
      </trkpt>
      <trkpt lat="49.07534" lon="2.02866">
        <ele>40.6</ele>
        <time>2023-01-07T13:06:40Z</time>
      </trkpt>
      <trkpt lat="49.07533" lon="2.02873">
        <ele>40.5</ele>
        <time>2023-01-07T13:06:45Z</time>
      </trkpt>
      <trkpt lat="49.07532" lon="2.02885">
        <ele>40.1</ele>
        <time>2023-01-07T13:06:51Z</time>
      </trkpt>
      <trkpt lat="49.07534" lon="2.02898">
        <ele>40</ele>
        <time>2023-01-07T13:06:57Z</time>
      </trkpt>
      <trkpt lat="49.07536" lon="2.02906">
        <ele>40</ele>
        <time>2023-01-07T13:07:03Z</time>
      </trkpt>
      <trkpt lat="49.07538" lon="2.02915">
        <ele>40</ele>
        <time>2023-01-07T13:07:09Z</time>
      </trkpt>
      <trkpt lat="49.07538" lon="2.02928">
        <ele>39.7</ele>
        <time>2023-01-07T13:07:14Z</time>
      </trkpt>
      <trkpt lat="49.07537" lon="2.02941">
        <ele>39.4</ele>
        <time>2023-01-07T13:07:20Z</time>
      </trkpt>
      <trkpt lat="49.07532" lon="2.02948">
        <ele>39.1</ele>
        <time>2023-01-07T13:07:25Z</time>
      </trkpt>
      <trkpt lat="49.07523" lon="2.02955">
        <ele>39.1</ele>
        <time>2023-01-07T13:07:30Z</time>
      </trkpt>
      <trkpt lat="49.07513" lon="2.02957">
        <ele>39.3</ele>
        <time>2023-01-07T13:07:36Z</time>
      </trkpt>
      <trkpt lat="49.07504" lon="2.0296">
        <ele>39.4</ele>
        <time>2023-01-07T13:07:41Z</time>
      </trkpt>
      <trkpt lat="49.07496" lon="2.02964">
        <ele>39.6</ele>
        <time>2023-01-07T13:07:47Z</time>
      </trkpt>
      <trkpt lat="49.07491" lon="2.0297">
        <ele>39.7</ele>
        <time>2023-01-07T13:07:52Z</time>
      </trkpt>
      <trkpt lat="49.07488" lon="2.02978">
        <ele>39.9</ele>
        <time>2023-01-07T13:07:58Z</time>
      </trkpt>
      <trkpt lat="49.07486" lon="2.02986">
        <ele>40</ele>
        <time>2023-01-07T13:08:03Z</time>
      </trkpt>
      <trkpt lat="49.07484" lon="2.02997">
        <ele>40.1</ele>
        <time>2023-01-07T13:08:08Z</time>
      </trkpt>
      <trkpt lat="49.07483" lon="2.03008">
        <ele>40.2</ele>
        <time>2023-01-07T13:08:13Z</time>
      </trkpt>
      <trkpt lat="49.07483" lon="2.03023">
        <ele>40.3</ele>
        <time>2023-01-07T13:08:19Z</time>
      </trkpt>
      <trkpt lat="49.07484" lon="2.03034">
        <ele>40.1</ele>
        <time>2023-01-07T13:08:25Z</time>
      </trkpt>
      <trkpt lat="49.07485" lon="2.03042">
        <ele>39.8</ele>
        <time>2023-01-07T13:08:31Z</time>
      </trkpt>
      <trkpt lat="49.07486" lon="2.03057">
        <ele>39.5</ele>
        <time>2023-01-07T13:08:37Z</time>
      </trkpt>
      <trkpt lat="49.07484" lon="2.03072">
        <ele>39.3</ele>
        <time>2023-01-07T13:08:43Z</time>
      </trkpt>
      <trkpt lat="49.07482" lon="2.03084">
        <ele>39.3</ele>
        <time>2023-01-07T13:08:48Z</time>
      </trkpt>
      <trkpt lat="49.0748" lon="2.03098">
        <ele>39</ele>
        <time>2023-01-07T13:08:54Z</time>
      </trkpt>
      <trkpt lat="49.07478" lon="2.0311">
        <ele>38.8</ele>
        <time>2023-01-07T13:08:59Z</time>
      </trkpt>
      <trkpt lat="49.07475" lon="2.03122">
        <ele>38.9</ele>
        <time>2023-01-07T13:09:04Z</time>
      </trkpt>
      <trkpt lat="49.07471" lon="2.03136">
        <ele>39.1</ele>
        <time>2023-01-07T13:09:10Z</time>
      </trkpt>
      <trkpt lat="49.07467" lon="2.03146">
        <ele>39.2</ele>
        <time>2023-01-07T13:09:15Z</time>
      </trkpt>
      <trkpt lat="49.07463" lon="2.0316">
        <ele>39.3</ele>
        <time>2023-01-07T13:09:21Z</time>
      </trkpt>
      <trkpt lat="49.07458" lon="2.03174">
        <ele>39.5</ele>
        <time>2023-01-07T13:09:26Z</time>
      </trkpt>
      <trkpt lat="49.07453" lon="2.03187">
        <ele>39.7</ele>
        <time>2023-01-07T13:09:32Z</time>
      </trkpt>
      <trkpt lat="49.07451" lon="2.03196">
        <ele>39.8</ele>
        <time>2023-01-07T13:09:37Z</time>
      </trkpt>
      <trkpt lat="49.07449" lon="2.03204">
        <ele>39.8</ele>
        <time>2023-01-07T13:09:43Z</time>
      </trkpt>
      <trkpt lat="49.07446" lon="2.03212">
        <ele>39.9</ele>
        <time>2023-01-07T13:09:49Z</time>
      </trkpt>
      <trkpt lat="49.07443" lon="2.03217">
        <ele>40</ele>
        <time>2023-01-07T13:09:54Z</time>
      </trkpt>
      <trkpt lat="49.07438" lon="2.03224">
        <ele>40</ele>
        <time>2023-01-07T13:09:59Z</time>
      </trkpt>
      <trkpt lat="49.07431" lon="2.03232">
        <ele>40</ele>
        <time>2023-01-07T13:10:04Z</time>
      </trkpt>
      <trkpt lat="49.07422" lon="2.03241">
        <ele>40</ele>
        <time>2023-01-07T13:10:10Z</time>
      </trkpt>
      <trkpt lat="49.07416" lon="2.03247">
        <ele>40</ele>
        <time>2023-01-07T13:10:15Z</time>
      </trkpt>
      <trkpt lat="49.07409" lon="2.03255">
        <ele>40</ele>
        <time>2023-01-07T13:10:21Z</time>
      </trkpt>
      <trkpt lat="49.07405" lon="2.03261">
        <ele>40</ele>
        <time>2023-01-07T13:10:26Z</time>
      </trkpt>
      <trkpt lat="49.07401" lon="2.03265">
        <ele>40</ele>
        <time>2023-01-07T13:10:31Z</time>
      </trkpt>
      <trkpt lat="49.07396" lon="2.03271">
        <ele>40</ele>
        <time>2023-01-07T13:10:37Z</time>
      </trkpt>
      <trkpt lat="49.07389" lon="2.03281">
        <ele>39.9</ele>
        <time>2023-01-07T13:10:43Z</time>
      </trkpt>
      <trkpt lat="49.07383" lon="2.03289">
        <ele>39.6</ele>
        <time>2023-01-07T13:10:49Z</time>
      </trkpt>
      <trkpt lat="49.07376" lon="2.03298">
        <ele>39.3</ele>
        <time>2023-01-07T13:10:55Z</time>
      </trkpt>
      <trkpt lat="49.07369" lon="2.03306">
        <ele>39</ele>
        <time>2023-01-07T13:11:00Z</time>
      </trkpt>
      <trkpt lat="49.0736" lon="2.0331">
        <ele>39</ele>
        <time>2023-01-07T13:11:06Z</time>
      </trkpt>
      <trkpt lat="49.07353" lon="2.03308">
        <ele>39</ele>
        <time>2023-01-07T13:11:11Z</time>
      </trkpt>
      <trkpt lat="49.07344" lon="2.03301">
        <ele>39.2</ele>
        <time>2023-01-07T13:11:17Z</time>
      </trkpt>
      <trkpt lat="49.07336" lon="2.03291">
        <ele>39.5</ele>
        <time>2023-01-07T13:11:23Z</time>
      </trkpt>
      <trkpt lat="49.07332" lon="2.03277">
        <ele>40</ele>
        <time>2023-01-07T13:11:29Z</time>
      </trkpt>
      <trkpt lat="49.07326" lon="2.03264">
        <ele>40.1</ele>
        <time>2023-01-07T13:11:35Z</time>
      </trkpt>
      <trkpt lat="49.07323" lon="2.03258">
        <ele>40.3</ele>
        <time>2023-01-07T13:11:40Z</time>
      </trkpt>
      <trkpt lat="49.07317" lon="2.03259">
        <ele>40.4</ele>
        <time>2023-01-07T13:11:46Z</time>
      </trkpt>
      <trkpt lat="49.0731" lon="2.03263">
        <ele>40.4</ele>
        <time>2023-01-07T13:11:51Z</time>
      </trkpt>
      <trkpt lat="49.07303" lon="2.03269">
        <ele>40.4</ele>
        <time>2023-01-07T13:11:56Z</time>
      </trkpt>
      <trkpt lat="49.07296" lon="2.03278">
        <ele>40.3</ele>
        <time>2023-01-07T13:12:02Z</time>
      </trkpt>
      <trkpt lat="49.07289" lon="2.03288">
        <ele>40.4</ele>
        <time>2023-01-07T13:12:08Z</time>
      </trkpt>
      <trkpt lat="49.07284" lon="2.03296">
        <ele>40.3</ele>
        <time>2023-01-07T13:12:13Z</time>
      </trkpt>
      <trkpt lat="49.07277" lon="2.03306">
        <ele>40</ele>
        <time>2023-01-07T13:12:19Z</time>
      </trkpt>
      <trkpt lat="49.07269" lon="2.03311">
        <ele>40.3</ele>
        <time>2023-01-07T13:12:25Z</time>
      </trkpt>
      <trkpt lat="49.07263" lon="2.03316">
        <ele>40.5</ele>
        <time>2023-01-07T13:12:31Z</time>
      </trkpt>
      <trkpt lat="49.07255" lon="2.03323">
        <ele>40.8</ele>
        <time>2023-01-07T13:12:37Z</time>
      </trkpt>
      <trkpt lat="49.07248" lon="2.03328">
        <ele>41.1</ele>
        <time>2023-01-07T13:12:42Z</time>
      </trkpt>
      <trkpt lat="49.0724" lon="2.03336">
        <ele>41.8</ele>
        <time>2023-01-07T13:12:48Z</time>
      </trkpt>
      <trkpt lat="49.07236" lon="2.03342">
        <ele>42.5</ele>
        <time>2023-01-07T13:12:53Z</time>
      </trkpt>
      <trkpt lat="49.0723" lon="2.03348">
        <ele>43.3</ele>
        <time>2023-01-07T13:12:59Z</time>
      </trkpt>
      <trkpt lat="49.0723" lon="2.0335">
        <ele>43.4</ele>
        <time>2023-01-07T13:13:05Z</time>
      </trkpt>
      <trkpt lat="49.07232" lon="2.03353">
        <ele>43.4</ele>
        <time>2023-01-07T13:13:10Z</time>
      </trkpt>
      <trkpt lat="49.07233" lon="2.03354">
        <ele>43.4</ele>
        <time>2023-01-07T13:13:16Z</time>
      </trkpt>
      <trkpt lat="49.07233" lon="2.03354">
        <ele>43.4</ele>
        <time>2023-01-07T13:13:21Z</time>
      </trkpt>
      <trkpt lat="49.07236" lon="2.03356">
        <ele>43.3</ele>
        <time>2023-01-07T13:13:27Z</time>
      </trkpt>
      <trkpt lat="49.07238" lon="2.03367">
        <ele>43.9</ele>
        <time>2023-01-07T13:13:33Z</time>
      </trkpt>
      <trkpt lat="49.07242" lon="2.03375">
        <ele>44.2</ele>
        <time>2023-01-07T13:13:39Z</time>
      </trkpt>
      <trkpt lat="49.07243" lon="2.0338">
        <ele>44.4</ele>
        <time>2023-01-07T13:13:45Z</time>
      </trkpt>
      <trkpt lat="49.07242" lon="2.03387">
        <ele>45.3</ele>
        <time>2023-01-07T13:13:51Z</time>
      </trkpt>
      <trkpt lat="49.07247" lon="2.03396">
        <ele>45.1</ele>
        <time>2023-01-07T13:13:57Z</time>
      </trkpt>
      <trkpt lat="49.07251" lon="2.03405">
        <ele>45</ele>
        <time>2023-01-07T13:14:03Z</time>
      </trkpt>
      <trkpt lat="49.07255" lon="2.03413">
        <ele>44.7</ele>
        <time>2023-01-07T13:14:09Z</time>
      </trkpt>
      <trkpt lat="49.07256" lon="2.03422">
        <ele>45.3</ele>
        <time>2023-01-07T13:14:15Z</time>
      </trkpt>
      <trkpt lat="49.07259" lon="2.03427">
        <ele>45.4</ele>
        <time>2023-01-07T13:14:20Z</time>
      </trkpt>
      <trkpt lat="49.07259" lon="2.0343">
        <ele>45.6</ele>
        <time>2023-01-07T13:14:26Z</time>
      </trkpt>
      <trkpt lat="49.07261" lon="2.03435">
        <ele>45.8</ele>
        <time>2023-01-07T13:14:31Z</time>
      </trkpt>
      <trkpt lat="49.07262" lon="2.03443">
        <ele>46.5</ele>
        <time>2023-01-07T13:14:37Z</time>
      </trkpt>
      <trkpt lat="49.07263" lon="2.03451">
        <ele>47</ele>
        <time>2023-01-07T13:14:42Z</time>
      </trkpt>
      <trkpt lat="49.07264" lon="2.03459">
        <ele>47.5</ele>
        <time>2023-01-07T13:14:47Z</time>
      </trkpt>
      <trkpt lat="49.07267" lon="2.03468">
        <ele>47.6</ele>
        <time>2023-01-07T13:14:53Z</time>
      </trkpt>
      <trkpt lat="49.0727" lon="2.03476">
        <ele>47.8</ele>
        <time>2023-01-07T13:14:58Z</time>
      </trkpt>
      <trkpt lat="49.07273" lon="2.03485">
        <ele>48.2</ele>
        <time>2023-01-07T13:15:04Z</time>
      </trkpt>
      <trkpt lat="49.07278" lon="2.03491">
        <ele>47.8</ele>
        <time>2023-01-07T13:15:10Z</time>
      </trkpt>
      <trkpt lat="49.07281" lon="2.03495">
        <ele>47.5</ele>
        <time>2023-01-07T13:15:15Z</time>
      </trkpt>
      <trkpt lat="49.07287" lon="2.03501">
        <ele>47.2</ele>
        <time>2023-01-07T13:15:21Z</time>
      </trkpt>
      <trkpt lat="49.07291" lon="2.03505">
        <ele>46.8</ele>
        <time>2023-01-07T13:15:26Z</time>
      </trkpt>
      <trkpt lat="49.07296" lon="2.0351">
        <ele>46.4</ele>
        <time>2023-01-07T13:15:32Z</time>
      </trkpt>
      <trkpt lat="49.07301" lon="2.03516">
        <ele>46.3</ele>
        <time>2023-01-07T13:15:38Z</time>
      </trkpt>
      <trkpt lat="49.07306" lon="2.03521">
        <ele>45.8</ele>
        <time>2023-01-07T13:15:44Z</time>
      </trkpt>
      <trkpt lat="49.07311" lon="2.03524">
        <ele>45.3</ele>
        <time>2023-01-07T13:15:50Z</time>
      </trkpt>
      <trkpt lat="49.07314" lon="2.03526">
        <ele>44.9</ele>
        <time>2023-01-07T13:15:56Z</time>
      </trkpt>
      <trkpt lat="49.07316" lon="2.03528">
        <ele>44.9</ele>
        <time>2023-01-07T13:16:02Z</time>
      </trkpt>
      <trkpt lat="49.07318" lon="2.0353">
        <ele>44.6</ele>
        <time>2023-01-07T13:16:08Z</time>
      </trkpt>
      <trkpt lat="49.07319" lon="2.0353">
        <ele>44.4</ele>
        <time>2023-01-07T13:16:13Z</time>
      </trkpt>
      <trkpt lat="49.07319" lon="2.0353">
        <ele>44.5</ele>
        <time>2023-01-07T13:16:18Z</time>
      </trkpt>
      <trkpt lat="49.07318" lon="2.0353">
        <ele>44.6</ele>
        <time>2023-01-07T13:16:23Z</time>
      </trkpt>
      <trkpt lat="49.0732" lon="2.0353">
        <ele>44.3</ele>
        <time>2023-01-07T13:16:29Z</time>
      </trkpt>
      <trkpt lat="49.0732" lon="2.0353">
        <ele>44.2</ele>
        <time>2023-01-07T13:16:34Z</time>
      </trkpt>
      <trkpt lat="49.0732" lon="2.0353">
        <ele>44.2</ele>
        <time>2023-01-07T13:16:40Z</time>
      </trkpt>
      <trkpt lat="49.0732" lon="2.0353">
        <ele>44.2</ele>
        <time>2023-01-07T13:16:45Z</time>
      </trkpt>
      <trkpt lat="49.0732" lon="2.03529">
        <ele>44.1</ele>
        <time>2023-01-07T13:16:51Z</time>
      </trkpt>
      <trkpt lat="49.0732" lon="2.03529">
        <ele>44</ele>
        <time>2023-01-07T13:16:56Z</time>
      </trkpt>
      <trkpt lat="49.07321" lon="2.03529">
        <ele>43.9</ele>
        <time>2023-01-07T13:17:02Z</time>
      </trkpt>
      <trkpt lat="49.07322" lon="2.0353">
        <ele>43.7</ele>
        <time>2023-01-07T13:17:08Z</time>
      </trkpt>
      <trkpt lat="49.07323" lon="2.0353">
        <ele>43.7</ele>
        <time>2023-01-07T13:17:13Z</time>
      </trkpt>
      <trkpt lat="49.07323" lon="2.0353">
        <ele>43.6</ele>
        <time>2023-01-07T13:17:19Z</time>
      </trkpt>
      <trkpt lat="49.07322" lon="2.03529">
        <ele>43.5</ele>
        <time>2023-01-07T13:17:25Z</time>
      </trkpt>
      <trkpt lat="49.07323" lon="2.03528">
        <ele>43.3</ele>
        <time>2023-01-07T13:17:30Z</time>
      </trkpt>
      <trkpt lat="49.07329" lon="2.03529">
        <ele>42.1</ele>
        <time>2023-01-07T13:17:36Z</time>
      </trkpt>
      <trkpt lat="49.07334" lon="2.03534">
        <ele>41.8</ele>
        <time>2023-01-07T13:17:42Z</time>
      </trkpt>
      <trkpt lat="49.07337" lon="2.0354">
        <ele>42.3</ele>
        <time>2023-01-07T13:17:48Z</time>
      </trkpt>
      <trkpt lat="49.07341" lon="2.03546">
        <ele>42.7</ele>
        <time>2023-01-07T13:17:53Z</time>
      </trkpt>
      <trkpt lat="49.07346" lon="2.03552">
        <ele>42.8</ele>
        <time>2023-01-07T13:17:59Z</time>
      </trkpt>
      <trkpt lat="49.0735" lon="2.03558">
        <ele>42.9</ele>
        <time>2023-01-07T13:18:05Z</time>
      </trkpt>
      <trkpt lat="49.07354" lon="2.03564">
        <ele>43</ele>
        <time>2023-01-07T13:18:11Z</time>
      </trkpt>
      <trkpt lat="49.07357" lon="2.03567">
        <ele>42.9</ele>
        <time>2023-01-07T13:18:16Z</time>
      </trkpt>
      <trkpt lat="49.07361" lon="2.03573">
        <ele>42.9</ele>
        <time>2023-01-07T13:18:22Z</time>
      </trkpt>
      <trkpt lat="49.07365" lon="2.03579">
        <ele>43.2</ele>
        <time>2023-01-07T13:18:27Z</time>
      </trkpt>
      <trkpt lat="49.0737" lon="2.03587">
        <ele>43.6</ele>
        <time>2023-01-07T13:18:33Z</time>
      </trkpt>
      <trkpt lat="49.07374" lon="2.03592">
        <ele>43.6</ele>
        <time>2023-01-07T13:18:38Z</time>
      </trkpt>
      <trkpt lat="49.07379" lon="2.03597">
        <ele>43.8</ele>
        <time>2023-01-07T13:18:43Z</time>
      </trkpt>
      <trkpt lat="49.07383" lon="2.03604">
        <ele>44</ele>
        <time>2023-01-07T13:18:49Z</time>
      </trkpt>
      <trkpt lat="49.07387" lon="2.03611">
        <ele>44.3</ele>
        <time>2023-01-07T13:18:55Z</time>
      </trkpt>
      <trkpt lat="49.07394" lon="2.03613">
        <ele>44.1</ele>
        <time>2023-01-07T13:19:01Z</time>
      </trkpt>
      <trkpt lat="49.07401" lon="2.03614">
        <ele>43.9</ele>
        <time>2023-01-07T13:19:06Z</time>
      </trkpt>
      <trkpt lat="49.07409" lon="2.03614">
        <ele>43.7</ele>
        <time>2023-01-07T13:19:11Z</time>
      </trkpt>
      <trkpt lat="49.07418" lon="2.03616">
        <ele>43.7</ele>
        <time>2023-01-07T13:19:17Z</time>
      </trkpt>
      <trkpt lat="49.0743" lon="2.03619">
        <ele>44.6</ele>
        <time>2023-01-07T13:19:23Z</time>
      </trkpt>
      <trkpt lat="49.07439" lon="2.0362">
        <ele>45.1</ele>
        <time>2023-01-07T13:19:28Z</time>
      </trkpt>
      <trkpt lat="49.07449" lon="2.03621">
        <ele>45.6</ele>
        <time>2023-01-07T13:19:34Z</time>
      </trkpt>
      <trkpt lat="49.07456" lon="2.03621">
        <ele>45.9</ele>
        <time>2023-01-07T13:19:40Z</time>
      </trkpt>
      <trkpt lat="49.07464" lon="2.0362">
        <ele>46</ele>
        <time>2023-01-07T13:19:46Z</time>
      </trkpt>
      <trkpt lat="49.07472" lon="2.03618">
        <ele>45.9</ele>
        <time>2023-01-07T13:19:52Z</time>
      </trkpt>
      <trkpt lat="49.07478" lon="2.03616">
        <ele>45.9</ele>
        <time>2023-01-07T13:19:57Z</time>
      </trkpt>
      <trkpt lat="49.07485" lon="2.03614">
        <ele>45.8</ele>
        <time>2023-01-07T13:20:03Z</time>
      </trkpt>
      <trkpt lat="49.07491" lon="2.03614">
        <ele>46.2</ele>
        <time>2023-01-07T13:20:08Z</time>
      </trkpt>
      <trkpt lat="49.07499" lon="2.03617">
        <ele>46.8</ele>
        <time>2023-01-07T13:20:13Z</time>
      </trkpt>
      <trkpt lat="49.07504" lon="2.03619">
        <ele>47.2</ele>
        <time>2023-01-07T13:20:18Z</time>
      </trkpt>
      <trkpt lat="49.07511" lon="2.03621">
        <ele>47.9</ele>
        <time>2023-01-07T13:20:24Z</time>
      </trkpt>
      <trkpt lat="49.0752" lon="2.03624">
        <ele>48.5</ele>
        <time>2023-01-07T13:20:30Z</time>
      </trkpt>
      <trkpt lat="49.07528" lon="2.03624">
        <ele>48.8</ele>
        <time>2023-01-07T13:20:36Z</time>
      </trkpt>
      <trkpt lat="49.07534" lon="2.03623">
        <ele>49</ele>
        <time>2023-01-07T13:20:41Z</time>
      </trkpt>
      <trkpt lat="49.0754" lon="2.03623">
        <ele>49.2</ele>
        <time>2023-01-07T13:20:47Z</time>
      </trkpt>
      <trkpt lat="49.07547" lon="2.03625">
        <ele>49.7</ele>
        <time>2023-01-07T13:20:52Z</time>
      </trkpt>
      <trkpt lat="49.07554" lon="2.03628">
        <ele>50.4</ele>
        <time>2023-01-07T13:20:57Z</time>
      </trkpt>
      <trkpt lat="49.07562" lon="2.03635">
        <ele>51.7</ele>
        <time>2023-01-07T13:21:03Z</time>
      </trkpt>
      <trkpt lat="49.07569" lon="2.03641">
        <ele>52.8</ele>
        <time>2023-01-07T13:21:08Z</time>
      </trkpt>
      <trkpt lat="49.07577" lon="2.03647">
        <ele>54</ele>
        <time>2023-01-07T13:21:14Z</time>
      </trkpt>
      <trkpt lat="49.07582" lon="2.03653">
        <ele>55</ele>
        <time>2023-01-07T13:21:19Z</time>
      </trkpt>
      <trkpt lat="49.07586" lon="2.03659">
        <ele>56.1</ele>
        <time>2023-01-07T13:21:24Z</time>
      </trkpt>
      <trkpt lat="49.07587" lon="2.03666">
        <ele>57.1</ele>
        <time>2023-01-07T13:21:30Z</time>
      </trkpt>
      <trkpt lat="49.07588" lon="2.03668">
        <ele>57.5</ele>
        <time>2023-01-07T13:21:35Z</time>
      </trkpt>
      <trkpt lat="49.07588" lon="2.03669">
        <ele>57.7</ele>
        <time>2023-01-07T13:21:40Z</time>
      </trkpt>
      <trkpt lat="49.07594" lon="2.03668">
        <ele>57.9</ele>
        <time>2023-01-07T13:21:46Z</time>
      </trkpt>
      <trkpt lat="49.07601" lon="2.03669">
        <ele>58.5</ele>
        <time>2023-01-07T13:21:52Z</time>
      </trkpt>
      <trkpt lat="49.07605" lon="2.03674">
        <ele>59.2</ele>
        <time>2023-01-07T13:21:58Z</time>
      </trkpt>
      <trkpt lat="49.07607" lon="2.03678">
        <ele>59.6</ele>
        <time>2023-01-07T13:22:03Z</time>
      </trkpt>
      <trkpt lat="49.07607" lon="2.03681">
        <ele>59.9</ele>
        <time>2023-01-07T13:22:08Z</time>
      </trkpt>
      <trkpt lat="49.07607" lon="2.03686">
        <ele>60.3</ele>
        <time>2023-01-07T13:22:13Z</time>
      </trkpt>
      <trkpt lat="49.07606" lon="2.03692">
        <ele>60.7</ele>
        <time>2023-01-07T13:22:19Z</time>
      </trkpt>
      <trkpt lat="49.07602" lon="2.03694">
        <ele>60.9</ele>
        <time>2023-01-07T13:22:25Z</time>
      </trkpt>
      <trkpt lat="49.07597" lon="2.03699">
        <ele>61.6</ele>
        <time>2023-01-07T13:22:30Z</time>
      </trkpt>
      <trkpt lat="49.0759" lon="2.03709">
        <ele>62.9</ele>
        <time>2023-01-07T13:22:35Z</time>
      </trkpt>
      <trkpt lat="49.07584" lon="2.03719">
        <ele>64.5</ele>
        <time>2023-01-07T13:22:40Z</time>
      </trkpt>
      <trkpt lat="49.07578" lon="2.0373">
        <ele>65.3</ele>
        <time>2023-01-07T13:22:46Z</time>
      </trkpt>
      <trkpt lat="49.07575" lon="2.03735">
        <ele>65.6</ele>
        <time>2023-01-07T13:22:52Z</time>
      </trkpt>
      <trkpt lat="49.07569" lon="2.03742">
        <ele>65.9</ele>
        <time>2023-01-07T13:22:57Z</time>
      </trkpt>
      <trkpt lat="49.07564" lon="2.03749">
        <ele>66.2</ele>
        <time>2023-01-07T13:23:02Z</time>
      </trkpt>
      <trkpt lat="49.0756" lon="2.03761">
        <ele>66.9</ele>
        <time>2023-01-07T13:23:08Z</time>
      </trkpt>
      <trkpt lat="49.07556" lon="2.03774">
        <ele>67.7</ele>
        <time>2023-01-07T13:23:13Z</time>
      </trkpt>
      <trkpt lat="49.07554" lon="2.03784">
        <ele>67.9</ele>
        <time>2023-01-07T13:23:18Z</time>
      </trkpt>
      <trkpt lat="49.07553" lon="2.03795">
        <ele>67.9</ele>
        <time>2023-01-07T13:23:23Z</time>
      </trkpt>
      <trkpt lat="49.07552" lon="2.03806">
        <ele>67.9</ele>
        <time>2023-01-07T13:23:29Z</time>
      </trkpt>
      <trkpt lat="49.07551" lon="2.03816">
        <ele>68.2</ele>
        <time>2023-01-07T13:23:34Z</time>
      </trkpt>
      <trkpt lat="49.07548" lon="2.03829">
        <ele>68.6</ele>
        <time>2023-01-07T13:23:40Z</time>
      </trkpt>
      <trkpt lat="49.07545" lon="2.03841">
        <ele>68.9</ele>
        <time>2023-01-07T13:23:46Z</time>
      </trkpt>
      <trkpt lat="49.07542" lon="2.03853">
        <ele>69.2</ele>
        <time>2023-01-07T13:23:52Z</time>
      </trkpt>
      <trkpt lat="49.0754" lon="2.03863">
        <ele>69.5</ele>
        <time>2023-01-07T13:23:57Z</time>
      </trkpt>
      <trkpt lat="49.07538" lon="2.03874">
        <ele>69.8</ele>
        <time>2023-01-07T13:24:04Z</time>
      </trkpt>
      <trkpt lat="49.07536" lon="2.03884">
        <ele>70.1</ele>
        <time>2023-01-07T13:24:09Z</time>
      </trkpt>
      <trkpt lat="49.07535" lon="2.03896">
        <ele>70.7</ele>
        <time>2023-01-07T13:24:15Z</time>
      </trkpt>
      <trkpt lat="49.07534" lon="2.03904">
        <ele>71.2</ele>
        <time>2023-01-07T13:24:21Z</time>
      </trkpt>
      <trkpt lat="49.07537" lon="2.03911">
        <ele>71.7</ele>
        <time>2023-01-07T13:24:27Z</time>
      </trkpt>
      <trkpt lat="49.07543" lon="2.03918">
        <ele>72.1</ele>
        <time>2023-01-07T13:24:33Z</time>
      </trkpt>
      <trkpt lat="49.07548" lon="2.03925">
        <ele>72.3</ele>
        <time>2023-01-07T13:24:38Z</time>
      </trkpt>
      <trkpt lat="49.07555" lon="2.03933">
        <ele>72.6</ele>
        <time>2023-01-07T13:24:44Z</time>
      </trkpt>
      <trkpt lat="49.07559" lon="2.03944">
        <ele>73.2</ele>
        <time>2023-01-07T13:24:50Z</time>
      </trkpt>
      <trkpt lat="49.07562" lon="2.03956">
        <ele>73.8</ele>
        <time>2023-01-07T13:24:56Z</time>
      </trkpt>
      <trkpt lat="49.07566" lon="2.03968">
        <ele>74.3</ele>
        <time>2023-01-07T13:25:02Z</time>
      </trkpt>
      <trkpt lat="49.0757" lon="2.0398">
        <ele>74.5</ele>
        <time>2023-01-07T13:25:08Z</time>
      </trkpt>
      <trkpt lat="49.07577" lon="2.03991">
        <ele>74.8</ele>
        <time>2023-01-07T13:25:15Z</time>
      </trkpt>
      <trkpt lat="49.07583" lon="2.03997">
        <ele>75</ele>
        <time>2023-01-07T13:25:20Z</time>
      </trkpt>
      <trkpt lat="49.0759" lon="2.03998">
        <ele>75.4</ele>
        <time>2023-01-07T13:25:26Z</time>
      </trkpt>
      <trkpt lat="49.07596" lon="2.03995">
        <ele>75.8</ele>
        <time>2023-01-07T13:25:32Z</time>
      </trkpt>
      <trkpt lat="49.07601" lon="2.03989">
        <ele>76</ele>
        <time>2023-01-07T13:25:37Z</time>
      </trkpt>
      <trkpt lat="49.07605" lon="2.03981">
        <ele>76</ele>
        <time>2023-01-07T13:25:43Z</time>
      </trkpt>
      <trkpt lat="49.07609" lon="2.0397">
        <ele>75.9</ele>
        <time>2023-01-07T13:25:49Z</time>
      </trkpt>
      <trkpt lat="49.07612" lon="2.03961">
        <ele>76</ele>
        <time>2023-01-07T13:25:54Z</time>
      </trkpt>
      <trkpt lat="49.07617" lon="2.03949">
        <ele>76</ele>
        <time>2023-01-07T13:26:00Z</time>
      </trkpt>
      <trkpt lat="49.07623" lon="2.03938">
        <ele>75.8</ele>
        <time>2023-01-07T13:26:06Z</time>
      </trkpt>
      <trkpt lat="49.07628" lon="2.03931">
        <ele>75.5</ele>
        <time>2023-01-07T13:26:11Z</time>
      </trkpt>
      <trkpt lat="49.07635" lon="2.03923">
        <ele>75.2</ele>
        <time>2023-01-07T13:26:17Z</time>
      </trkpt>
      <trkpt lat="49.0764" lon="2.03915">
        <ele>75</ele>
        <time>2023-01-07T13:26:22Z</time>
      </trkpt>
      <trkpt lat="49.07646" lon="2.03909">
        <ele>74.9</ele>
        <time>2023-01-07T13:26:28Z</time>
      </trkpt>
      <trkpt lat="49.07649" lon="2.03903">
        <ele>74.7</ele>
        <time>2023-01-07T13:26:33Z</time>
      </trkpt>
      <trkpt lat="49.07656" lon="2.03899">
        <ele>74.6</ele>
        <time>2023-01-07T13:26:39Z</time>
      </trkpt>
      <trkpt lat="49.07663" lon="2.03893">
        <ele>74.3</ele>
        <time>2023-01-07T13:26:44Z</time>
      </trkpt>
      <trkpt lat="49.07671" lon="2.03886">
        <ele>73.9</ele>
        <time>2023-01-07T13:26:49Z</time>
      </trkpt>
      <trkpt lat="49.07679" lon="2.03879">
        <ele>73.7</ele>
        <time>2023-01-07T13:26:55Z</time>
      </trkpt>
      <trkpt lat="49.07685" lon="2.03875">
        <ele>73.5</ele>
        <time>2023-01-07T13:27:00Z</time>
      </trkpt>
      <trkpt lat="49.07692" lon="2.03865">
        <ele>73.2</ele>
        <time>2023-01-07T13:27:06Z</time>
      </trkpt>
      <trkpt lat="49.077" lon="2.03855">
        <ele>72.8</ele>
        <time>2023-01-07T13:27:11Z</time>
      </trkpt>
      <trkpt lat="49.07708" lon="2.03848">
        <ele>72.8</ele>
        <time>2023-01-07T13:27:16Z</time>
      </trkpt>
      <trkpt lat="49.07717" lon="2.03841">
        <ele>73</ele>
        <time>2023-01-07T13:27:22Z</time>
      </trkpt>
      <trkpt lat="49.07723" lon="2.03833">
        <ele>73</ele>
        <time>2023-01-07T13:27:28Z</time>
      </trkpt>
      <trkpt lat="49.07728" lon="2.03824">
        <ele>72.7</ele>
        <time>2023-01-07T13:27:33Z</time>
      </trkpt>
      <trkpt lat="49.07733" lon="2.03811">
        <ele>72.4</ele>
        <time>2023-01-07T13:27:39Z</time>
      </trkpt>
      <trkpt lat="49.07737" lon="2.03802">
        <ele>72.5</ele>
        <time>2023-01-07T13:27:45Z</time>
      </trkpt>
      <trkpt lat="49.07741" lon="2.03794">
        <ele>72.9</ele>
        <time>2023-01-07T13:27:50Z</time>
      </trkpt>
      <trkpt lat="49.07747" lon="2.03784">
        <ele>73.5</ele>
        <time>2023-01-07T13:27:56Z</time>
      </trkpt>
      <trkpt lat="49.0775" lon="2.03776">
        <ele>73.9</ele>
        <time>2023-01-07T13:28:01Z</time>
      </trkpt>
      <trkpt lat="49.07755" lon="2.03764">
        <ele>73.9</ele>
        <time>2023-01-07T13:28:07Z</time>
      </trkpt>
      <trkpt lat="49.07761" lon="2.03753">
        <ele>73.9</ele>
        <time>2023-01-07T13:28:13Z</time>
      </trkpt>
      <trkpt lat="49.07766" lon="2.03745">
        <ele>74</ele>
        <time>2023-01-07T13:28:18Z</time>
      </trkpt>
      <trkpt lat="49.07773" lon="2.03735">
        <ele>74.5</ele>
        <time>2023-01-07T13:28:24Z</time>
      </trkpt>
      <trkpt lat="49.07779" lon="2.03727">
        <ele>75</ele>
        <time>2023-01-07T13:28:29Z</time>
      </trkpt>
      <trkpt lat="49.07785" lon="2.03719">
        <ele>75.1</ele>
        <time>2023-01-07T13:28:35Z</time>
      </trkpt>
      <trkpt lat="49.07791" lon="2.03711">
        <ele>75</ele>
        <time>2023-01-07T13:28:40Z</time>
      </trkpt>
      <trkpt lat="49.07795" lon="2.03701">
        <ele>74.9</ele>
        <time>2023-01-07T13:28:46Z</time>
      </trkpt>
      <trkpt lat="49.078" lon="2.03695">
        <ele>74.8</ele>
        <time>2023-01-07T13:28:51Z</time>
      </trkpt>
      <trkpt lat="49.07807" lon="2.03688">
        <ele>75.1</ele>
        <time>2023-01-07T13:28:57Z</time>
      </trkpt>
      <trkpt lat="49.07812" lon="2.03678">
        <ele>75.3</ele>
        <time>2023-01-07T13:29:03Z</time>
      </trkpt>
      <trkpt lat="49.07816" lon="2.03671">
        <ele>75.4</ele>
        <time>2023-01-07T13:29:08Z</time>
      </trkpt>
      <trkpt lat="49.07822" lon="2.03662">
        <ele>75.4</ele>
        <time>2023-01-07T13:29:14Z</time>
      </trkpt>
      <trkpt lat="49.07829" lon="2.03655">
        <ele>75.4</ele>
        <time>2023-01-07T13:29:20Z</time>
      </trkpt>
      <trkpt lat="49.07836" lon="2.03648">
        <ele>75.4</ele>
        <time>2023-01-07T13:29:26Z</time>
      </trkpt>
      <trkpt lat="49.07842" lon="2.03638">
        <ele>75.3</ele>
        <time>2023-01-07T13:29:32Z</time>
      </trkpt>
      <trkpt lat="49.07847" lon="2.03631">
        <ele>75.4</ele>
        <time>2023-01-07T13:29:37Z</time>
      </trkpt>
      <trkpt lat="49.07854" lon="2.03619">
        <ele>75.6</ele>
        <time>2023-01-07T13:29:43Z</time>
      </trkpt>
      <trkpt lat="49.07859" lon="2.03613">
        <ele>75.8</ele>
        <time>2023-01-07T13:29:48Z</time>
      </trkpt>
      <trkpt lat="49.07865" lon="2.03603">
        <ele>75.8</ele>
        <time>2023-01-07T13:29:54Z</time>
      </trkpt>
      <trkpt lat="49.07871" lon="2.03595">
        <ele>75.6</ele>
        <time>2023-01-07T13:29:59Z</time>
      </trkpt>
      <trkpt lat="49.07878" lon="2.03589">
        <ele>75.7</ele>
        <time>2023-01-07T13:30:05Z</time>
      </trkpt>
      <trkpt lat="49.07884" lon="2.03578">
        <ele>75.6</ele>
        <time>2023-01-07T13:30:11Z</time>
      </trkpt>
      <trkpt lat="49.07889" lon="2.03571">
        <ele>75.6</ele>
        <time>2023-01-07T13:30:16Z</time>
      </trkpt>
      <trkpt lat="49.07894" lon="2.03563">
        <ele>75.2</ele>
        <time>2023-01-07T13:30:21Z</time>
      </trkpt>
      <trkpt lat="49.07901" lon="2.03556">
        <ele>75</ele>
        <time>2023-01-07T13:30:27Z</time>
      </trkpt>
      <trkpt lat="49.07906" lon="2.03549">
        <ele>74.8</ele>
        <time>2023-01-07T13:30:32Z</time>
      </trkpt>
      <trkpt lat="49.07911" lon="2.03543">
        <ele>74.8</ele>
        <time>2023-01-07T13:30:38Z</time>
      </trkpt>
      <trkpt lat="49.07916" lon="2.03534">
        <ele>74.9</ele>
        <time>2023-01-07T13:30:43Z</time>
      </trkpt>
      <trkpt lat="49.0792" lon="2.03522">
        <ele>74.8</ele>
        <time>2023-01-07T13:30:49Z</time>
      </trkpt>
      <trkpt lat="49.07924" lon="2.03513">
        <ele>74.6</ele>
        <time>2023-01-07T13:30:54Z</time>
      </trkpt>
      <trkpt lat="49.07929" lon="2.03504">
        <ele>74.5</ele>
        <time>2023-01-07T13:30:59Z</time>
      </trkpt>
      <trkpt lat="49.07934" lon="2.03497">
        <ele>74.6</ele>
        <time>2023-01-07T13:31:04Z</time>
      </trkpt>
      <trkpt lat="49.07939" lon="2.03486">
        <ele>74.8</ele>
        <time>2023-01-07T13:31:10Z</time>
      </trkpt>
      <trkpt lat="49.07944" lon="2.03478">
        <ele>75</ele>
        <time>2023-01-07T13:31:15Z</time>
      </trkpt>
      <trkpt lat="49.07949" lon="2.03467">
        <ele>74.9</ele>
        <time>2023-01-07T13:31:21Z</time>
      </trkpt>
      <trkpt lat="49.07952" lon="2.03461">
        <ele>74.7</ele>
        <time>2023-01-07T13:31:26Z</time>
      </trkpt>
      <trkpt lat="49.07958" lon="2.03453">
        <ele>74.6</ele>
        <time>2023-01-07T13:31:32Z</time>
      </trkpt>
      <trkpt lat="49.07961" lon="2.03444">
        <ele>74.6</ele>
        <time>2023-01-07T13:31:37Z</time>
      </trkpt>
      <trkpt lat="49.07966" lon="2.03435">
        <ele>74.5</ele>
        <time>2023-01-07T13:31:43Z</time>
      </trkpt>
      <trkpt lat="49.0797" lon="2.03424">
        <ele>74.2</ele>
        <time>2023-01-07T13:31:48Z</time>
      </trkpt>
      <trkpt lat="49.07974" lon="2.03412">
        <ele>74</ele>
        <time>2023-01-07T13:31:54Z</time>
      </trkpt>
      <trkpt lat="49.07977" lon="2.03403">
        <ele>74.1</ele>
        <time>2023-01-07T13:31:59Z</time>
      </trkpt>
      <trkpt lat="49.07983" lon="2.03394">
        <ele>74.1</ele>
        <time>2023-01-07T13:32:05Z</time>
      </trkpt>
      <trkpt lat="49.07988" lon="2.03385">
        <ele>73.9</ele>
        <time>2023-01-07T13:32:10Z</time>
      </trkpt>
      <trkpt lat="49.07991" lon="2.03376">
        <ele>73.9</ele>
        <time>2023-01-07T13:32:16Z</time>
      </trkpt>
      <trkpt lat="49.07994" lon="2.0337">
        <ele>73.9</ele>
        <time>2023-01-07T13:32:21Z</time>
      </trkpt>
      <trkpt lat="49.08001" lon="2.03361">
        <ele>74</ele>
        <time>2023-01-07T13:32:27Z</time>
      </trkpt>
      <trkpt lat="49.08004" lon="2.03353">
        <ele>74.1</ele>
        <time>2023-01-07T13:32:32Z</time>
      </trkpt>
      <trkpt lat="49.08008" lon="2.03342">
        <ele>74.3</ele>
        <time>2023-01-07T13:32:38Z</time>
      </trkpt>
      <trkpt lat="49.08013" lon="2.03335">
        <ele>74.5</ele>
        <time>2023-01-07T13:32:44Z</time>
      </trkpt>
      <trkpt lat="49.08015" lon="2.03328">
        <ele>74.4</ele>
        <time>2023-01-07T13:32:49Z</time>
      </trkpt>
      <trkpt lat="49.0802" lon="2.03317">
        <ele>74.1</ele>
        <time>2023-01-07T13:32:55Z</time>
      </trkpt>
      <trkpt lat="49.08024" lon="2.03306">
        <ele>73.9</ele>
        <time>2023-01-07T13:33:00Z</time>
      </trkpt>
      <trkpt lat="49.08029" lon="2.03295">
        <ele>74</ele>
        <time>2023-01-07T13:33:06Z</time>
      </trkpt>
      <trkpt lat="49.08032" lon="2.03284">
        <ele>74.1</ele>
        <time>2023-01-07T13:33:12Z</time>
      </trkpt>
      <trkpt lat="49.08036" lon="2.03273">
        <ele>74.3</ele>
        <time>2023-01-07T13:33:18Z</time>
      </trkpt>
      <trkpt lat="49.08038" lon="2.03263">
        <ele>74.4</ele>
        <time>2023-01-07T13:33:24Z</time>
      </trkpt>
      <trkpt lat="49.08042" lon="2.03253">
        <ele>74.5</ele>
        <time>2023-01-07T13:33:29Z</time>
      </trkpt>
      <trkpt lat="49.08045" lon="2.03241">
        <ele>74.6</ele>
        <time>2023-01-07T13:33:35Z</time>
      </trkpt>
      <trkpt lat="49.08047" lon="2.03233">
        <ele>74.7</ele>
        <time>2023-01-07T13:33:40Z</time>
      </trkpt>
      <trkpt lat="49.0805" lon="2.03219">
        <ele>74.8</ele>
        <time>2023-01-07T13:33:46Z</time>
      </trkpt>
      <trkpt lat="49.08054" lon="2.03217">
        <ele>74.9</ele>
        <time>2023-01-07T13:33:51Z</time>
      </trkpt>
      <trkpt lat="49.08061" lon="2.03214">
        <ele>75.4</ele>
        <time>2023-01-07T13:33:57Z</time>
      </trkpt>
      <trkpt lat="49.08061" lon="2.03208">
        <ele>75.4</ele>
        <time>2023-01-07T13:34:03Z</time>
      </trkpt>
      <trkpt lat="49.08061" lon="2.03198">
        <ele>75.4</ele>
        <time>2023-01-07T13:34:08Z</time>
      </trkpt>
      <trkpt lat="49.0806" lon="2.03193">
        <ele>75.3</ele>
        <time>2023-01-07T13:34:14Z</time>
      </trkpt>
      <trkpt lat="49.08062" lon="2.03186">
        <ele>75.4</ele>
        <time>2023-01-07T13:34:19Z</time>
      </trkpt>
      <trkpt lat="49.08066" lon="2.0317">
        <ele>75.4</ele>
        <time>2023-01-07T13:34:25Z</time>
      </trkpt>
      <trkpt lat="49.08068" lon="2.03157">
        <ele>75.5</ele>
        <time>2023-01-07T13:34:31Z</time>
      </trkpt>
      <trkpt lat="49.08073" lon="2.03145">
        <ele>75.6</ele>
        <time>2023-01-07T13:34:36Z</time>
      </trkpt>
      <trkpt lat="49.08077" lon="2.03132">
        <ele>75.8</ele>
        <time>2023-01-07T13:34:42Z</time>
      </trkpt>
      <trkpt lat="49.0808" lon="2.0312">
        <ele>75.9</ele>
        <time>2023-01-07T13:34:47Z</time>
      </trkpt>
      <trkpt lat="49.08081" lon="2.03116">
        <ele>75.9</ele>
        <time>2023-01-07T13:34:52Z</time>
      </trkpt>
      <trkpt lat="49.08082" lon="2.03108">
        <ele>76</ele>
        <time>2023-01-07T13:34:58Z</time>
      </trkpt>
      <trkpt lat="49.08086" lon="2.03098">
        <ele>76.2</ele>
        <time>2023-01-07T13:35:03Z</time>
      </trkpt>
      <trkpt lat="49.08088" lon="2.03081">
        <ele>76.4</ele>
        <time>2023-01-07T13:35:09Z</time>
      </trkpt>
      <trkpt lat="49.0809" lon="2.03071">
        <ele>76.8</ele>
        <time>2023-01-07T13:35:14Z</time>
      </trkpt>
      <trkpt lat="49.08093" lon="2.03063">
        <ele>77.2</ele>
        <time>2023-01-07T13:35:20Z</time>
      </trkpt>
      <trkpt lat="49.08096" lon="2.03048">
        <ele>77.6</ele>
        <time>2023-01-07T13:35:26Z</time>
      </trkpt>
      <trkpt lat="49.081" lon="2.03035">
        <ele>78</ele>
        <time>2023-01-07T13:35:32Z</time>
      </trkpt>
      <trkpt lat="49.08102" lon="2.03024">
        <ele>78.3</ele>
        <time>2023-01-07T13:35:37Z</time>
      </trkpt>
      <trkpt lat="49.08104" lon="2.03012">
        <ele>78.5</ele>
        <time>2023-01-07T13:35:43Z</time>
      </trkpt>
      <trkpt lat="49.08106" lon="2.03002">
        <ele>78.7</ele>
        <time>2023-01-07T13:35:49Z</time>
      </trkpt>
      <trkpt lat="49.08109" lon="2.02992">
        <ele>78.8</ele>
        <time>2023-01-07T13:35:55Z</time>
      </trkpt>
      <trkpt lat="49.08111" lon="2.02983">
        <ele>79</ele>
        <time>2023-01-07T13:36:01Z</time>
      </trkpt>
      <trkpt lat="49.08115" lon="2.02973">
        <ele>79.1</ele>
        <time>2023-01-07T13:36:06Z</time>
      </trkpt>
      <trkpt lat="49.08118" lon="2.02965">
        <ele>79.1</ele>
        <time>2023-01-07T13:36:11Z</time>
      </trkpt>
      <trkpt lat="49.08121" lon="2.02953">
        <ele>78.9</ele>
        <time>2023-01-07T13:36:19Z</time>
      </trkpt>
      <trkpt lat="49.08124" lon="2.02944">
        <ele>78.9</ele>
        <time>2023-01-07T13:36:24Z</time>
      </trkpt>
      <trkpt lat="49.08127" lon="2.02934">
        <ele>78.9</ele>
        <time>2023-01-07T13:36:29Z</time>
      </trkpt>
      <trkpt lat="49.0813" lon="2.02925">
        <ele>78.9</ele>
        <time>2023-01-07T13:36:34Z</time>
      </trkpt>
      <trkpt lat="49.08134" lon="2.02918">
        <ele>78.9</ele>
        <time>2023-01-07T13:36:39Z</time>
      </trkpt>
      <trkpt lat="49.0814" lon="2.02906">
        <ele>78.2</ele>
        <time>2023-01-07T13:36:45Z</time>
      </trkpt>
      <trkpt lat="49.08144" lon="2.02896">
        <ele>77.7</ele>
        <time>2023-01-07T13:36:51Z</time>
      </trkpt>
      <trkpt lat="49.08143" lon="2.02887">
        <ele>77.1</ele>
        <time>2023-01-07T13:36:57Z</time>
      </trkpt>
      <trkpt lat="49.08147" lon="2.02883">
        <ele>77</ele>
        <time>2023-01-07T13:37:03Z</time>
      </trkpt>
      <trkpt lat="49.08148" lon="2.02882">
        <ele>77</ele>
        <time>2023-01-07T13:37:08Z</time>
      </trkpt>
      <trkpt lat="49.08147" lon="2.02882">
        <ele>77</ele>
        <time>2023-01-07T13:37:14Z</time>
      </trkpt>
      <trkpt lat="49.08147" lon="2.02883">
        <ele>77</ele>
        <time>2023-01-07T13:37:19Z</time>
      </trkpt>
      <trkpt lat="49.08147" lon="2.0288">
        <ele>76.9</ele>
        <time>2023-01-07T13:37:25Z</time>
      </trkpt>
      <trkpt lat="49.08145" lon="2.02878">
        <ele>76.8</ele>
        <time>2023-01-07T13:37:30Z</time>
      </trkpt>
      <trkpt lat="49.08146" lon="2.02876">
        <ele>76.7</ele>
        <time>2023-01-07T13:37:36Z</time>
      </trkpt>
      <trkpt lat="49.08151" lon="2.02867">
        <ele>76.3</ele>
        <time>2023-01-07T13:37:41Z</time>
      </trkpt>
      <trkpt lat="49.08157" lon="2.02857">
        <ele>75.8</ele>
        <time>2023-01-07T13:37:47Z</time>
      </trkpt>
      <trkpt lat="49.08163" lon="2.02845">
        <ele>75.4</ele>
        <time>2023-01-07T13:37:53Z</time>
      </trkpt>
      <trkpt lat="49.08167" lon="2.02834">
        <ele>75</ele>
        <time>2023-01-07T13:37:58Z</time>
      </trkpt>
      <trkpt lat="49.08172" lon="2.02824">
        <ele>74.3</ele>
        <time>2023-01-07T13:38:04Z</time>
      </trkpt>
      <trkpt lat="49.08178" lon="2.02814">
        <ele>73.6</ele>
        <time>2023-01-07T13:38:09Z</time>
      </trkpt>
      <trkpt lat="49.08183" lon="2.02804">
        <ele>72.9</ele>
        <time>2023-01-07T13:38:15Z</time>
      </trkpt>
      <trkpt lat="49.0819" lon="2.02795">
        <ele>72.3</ele>
        <time>2023-01-07T13:38:21Z</time>
      </trkpt>
      <trkpt lat="49.08196" lon="2.02789">
        <ele>71.9</ele>
        <time>2023-01-07T13:38:26Z</time>
      </trkpt>
      <trkpt lat="49.08202" lon="2.02782">
        <ele>71.5</ele>
        <time>2023-01-07T13:38:32Z</time>
      </trkpt>
      <trkpt lat="49.08209" lon="2.02777">
        <ele>71.5</ele>
        <time>2023-01-07T13:38:38Z</time>
      </trkpt>
      <trkpt lat="49.08216" lon="2.02772">
        <ele>71.6</ele>
        <time>2023-01-07T13:38:43Z</time>
      </trkpt>
      <trkpt lat="49.08221" lon="2.02766">
        <ele>71.5</ele>
        <time>2023-01-07T13:38:48Z</time>
      </trkpt>
      <trkpt lat="49.08228" lon="2.0276">
        <ele>71.4</ele>
        <time>2023-01-07T13:38:54Z</time>
      </trkpt>
      <trkpt lat="49.08237" lon="2.02753">
        <ele>71.1</ele>
        <time>2023-01-07T13:38:59Z</time>
      </trkpt>
      <trkpt lat="49.08244" lon="2.02746">
        <ele>70.8</ele>
        <time>2023-01-07T13:39:05Z</time>
      </trkpt>
      <trkpt lat="49.08249" lon="2.02736">
        <ele>70.5</ele>
        <time>2023-01-07T13:39:11Z</time>
      </trkpt>
      <trkpt lat="49.08255" lon="2.02732">
        <ele>70.4</ele>
        <time>2023-01-07T13:39:16Z</time>
      </trkpt>
      <trkpt lat="49.08261" lon="2.02725">
        <ele>70.1</ele>
        <time>2023-01-07T13:39:22Z</time>
      </trkpt>
      <trkpt lat="49.08264" lon="2.02718">
        <ele>70</ele>
        <time>2023-01-07T13:39:27Z</time>
      </trkpt>
      <trkpt lat="49.08271" lon="2.02711">
        <ele>70</ele>
        <time>2023-01-07T13:39:33Z</time>
      </trkpt>
      <trkpt lat="49.08275" lon="2.02704">
        <ele>70</ele>
        <time>2023-01-07T13:39:38Z</time>
      </trkpt>
      <trkpt lat="49.0828" lon="2.02691">
        <ele>70</ele>
        <time>2023-01-07T13:39:44Z</time>
      </trkpt>
      <trkpt lat="49.08285" lon="2.02681">
        <ele>70</ele>
        <time>2023-01-07T13:39:50Z</time>
      </trkpt>
      <trkpt lat="49.08289" lon="2.02671">
        <ele>70</ele>
        <time>2023-01-07T13:39:55Z</time>
      </trkpt>
      <trkpt lat="49.08293" lon="2.02662">
        <ele>70.2</ele>
        <time>2023-01-07T13:40:00Z</time>
      </trkpt>
      <trkpt lat="49.08296" lon="2.02649">
        <ele>70.7</ele>
        <time>2023-01-07T13:40:06Z</time>
      </trkpt>
      <trkpt lat="49.08299" lon="2.0264">
        <ele>70.9</ele>
        <time>2023-01-07T13:40:11Z</time>
      </trkpt>
      <trkpt lat="49.08302" lon="2.02629">
        <ele>71.3</ele>
        <time>2023-01-07T13:40:17Z</time>
      </trkpt>
      <trkpt lat="49.08306" lon="2.0262">
        <ele>71.7</ele>
        <time>2023-01-07T13:40:22Z</time>
      </trkpt>
      <trkpt lat="49.0831" lon="2.02611">
        <ele>72</ele>
        <time>2023-01-07T13:40:28Z</time>
      </trkpt>
      <trkpt lat="49.08314" lon="2.02601">
        <ele>72.4</ele>
        <time>2023-01-07T13:40:34Z</time>
      </trkpt>
      <trkpt lat="49.08317" lon="2.02591">
        <ele>72.7</ele>
        <time>2023-01-07T13:40:40Z</time>
      </trkpt>
      <trkpt lat="49.0832" lon="2.02582">
        <ele>73.1</ele>
        <time>2023-01-07T13:40:46Z</time>
      </trkpt>
      <trkpt lat="49.08323" lon="2.02573">
        <ele>73.4</ele>
        <time>2023-01-07T13:40:51Z</time>
      </trkpt>
      <trkpt lat="49.08326" lon="2.02561">
        <ele>73.8</ele>
        <time>2023-01-07T13:40:57Z</time>
      </trkpt>
      <trkpt lat="49.08329" lon="2.02552">
        <ele>74.2</ele>
        <time>2023-01-07T13:41:02Z</time>
      </trkpt>
      <trkpt lat="49.08333" lon="2.02543">
        <ele>74.5</ele>
        <time>2023-01-07T13:41:08Z</time>
      </trkpt>
      <trkpt lat="49.08336" lon="2.02535">
        <ele>74.9</ele>
        <time>2023-01-07T13:41:13Z</time>
      </trkpt>
      <trkpt lat="49.08339" lon="2.02523">
        <ele>75.4</ele>
        <time>2023-01-07T13:41:19Z</time>
      </trkpt>
      <trkpt lat="49.08343" lon="2.02513">
        <ele>75.9</ele>
        <time>2023-01-07T13:41:25Z</time>
      </trkpt>
      <trkpt lat="49.08347" lon="2.02504">
        <ele>76.4</ele>
        <time>2023-01-07T13:41:31Z</time>
      </trkpt>
      <trkpt lat="49.08349" lon="2.02492">
        <ele>76.7</ele>
        <time>2023-01-07T13:41:36Z</time>
      </trkpt>
      <trkpt lat="49.08354" lon="2.02482">
        <ele>76.9</ele>
        <time>2023-01-07T13:41:42Z</time>
      </trkpt>
      <trkpt lat="49.08356" lon="2.02472">
        <ele>77</ele>
        <time>2023-01-07T13:41:47Z</time>
      </trkpt>
      <trkpt lat="49.08357" lon="2.0246">
        <ele>77.4</ele>
        <time>2023-01-07T13:41:53Z</time>
      </trkpt>
      <trkpt lat="49.08355" lon="2.02449">
        <ele>77.9</ele>
        <time>2023-01-07T13:41:59Z</time>
      </trkpt>
      <trkpt lat="49.08354" lon="2.02437">
        <ele>78.3</ele>
        <time>2023-01-07T13:42:05Z</time>
      </trkpt>
      <trkpt lat="49.08352" lon="2.02426">
        <ele>78.6</ele>
        <time>2023-01-07T13:42:10Z</time>
      </trkpt>
      <trkpt lat="49.0835" lon="2.02414">
        <ele>79</ele>
        <time>2023-01-07T13:42:16Z</time>
      </trkpt>
      <trkpt lat="49.08349" lon="2.02401">
        <ele>79.3</ele>
        <time>2023-01-07T13:42:22Z</time>
      </trkpt>
      <trkpt lat="49.08348" lon="2.02388">
        <ele>79.5</ele>
        <time>2023-01-07T13:42:28Z</time>
      </trkpt>
      <trkpt lat="49.08349" lon="2.02377">
        <ele>79.7</ele>
        <time>2023-01-07T13:42:34Z</time>
      </trkpt>
      <trkpt lat="49.0835" lon="2.02367">
        <ele>79.9</ele>
        <time>2023-01-07T13:42:39Z</time>
      </trkpt>
      <trkpt lat="49.0835" lon="2.02356">
        <ele>80.2</ele>
        <time>2023-01-07T13:42:44Z</time>
      </trkpt>
      <trkpt lat="49.08351" lon="2.02344">
        <ele>80.6</ele>
        <time>2023-01-07T13:42:50Z</time>
      </trkpt>
      <trkpt lat="49.08352" lon="2.02333">
        <ele>81</ele>
        <time>2023-01-07T13:42:55Z</time>
      </trkpt>
      <trkpt lat="49.08354" lon="2.02321">
        <ele>81</ele>
        <time>2023-01-07T13:43:01Z</time>
      </trkpt>
      <trkpt lat="49.08357" lon="2.0231">
        <ele>81</ele>
        <time>2023-01-07T13:43:07Z</time>
      </trkpt>
      <trkpt lat="49.08358" lon="2.02299">
        <ele>81.2</ele>
        <time>2023-01-07T13:43:12Z</time>
      </trkpt>
      <trkpt lat="49.08361" lon="2.02289">
        <ele>81.6</ele>
        <time>2023-01-07T13:43:17Z</time>
      </trkpt>
      <trkpt lat="49.08364" lon="2.02278">
        <ele>82</ele>
        <time>2023-01-07T13:43:23Z</time>
      </trkpt>
      <trkpt lat="49.08368" lon="2.02269">
        <ele>82.3</ele>
        <time>2023-01-07T13:43:28Z</time>
      </trkpt>
      <trkpt lat="49.08371" lon="2.02258">
        <ele>82.7</ele>
        <time>2023-01-07T13:43:33Z</time>
      </trkpt>
      <trkpt lat="49.08374" lon="2.02249">
        <ele>83</ele>
        <time>2023-01-07T13:43:38Z</time>
      </trkpt>
      <trkpt lat="49.08378" lon="2.02239">
        <ele>83.4</ele>
        <time>2023-01-07T13:43:44Z</time>
      </trkpt>
      <trkpt lat="49.08382" lon="2.02229">
        <ele>83.8</ele>
        <time>2023-01-07T13:43:49Z</time>
      </trkpt>
      <trkpt lat="49.08386" lon="2.02217">
        <ele>84.2</ele>
        <time>2023-01-07T13:43:55Z</time>
      </trkpt>
      <trkpt lat="49.0839" lon="2.02208">
        <ele>84.5</ele>
        <time>2023-01-07T13:44:00Z</time>
      </trkpt>
      <trkpt lat="49.08394" lon="2.022">
        <ele>84.8</ele>
        <time>2023-01-07T13:44:05Z</time>
      </trkpt>
      <trkpt lat="49.08401" lon="2.02193">
        <ele>85</ele>
        <time>2023-01-07T13:44:11Z</time>
      </trkpt>
      <trkpt lat="49.08406" lon="2.02183">
        <ele>85.2</ele>
        <time>2023-01-07T13:44:17Z</time>
      </trkpt>
      <trkpt lat="49.08411" lon="2.02177">
        <ele>85.5</ele>
        <time>2023-01-07T13:44:22Z</time>
      </trkpt>
      <trkpt lat="49.08417" lon="2.02168">
        <ele>85.9</ele>
        <time>2023-01-07T13:44:28Z</time>
      </trkpt>
      <trkpt lat="49.08423" lon="2.02159">
        <ele>86.1</ele>
        <time>2023-01-07T13:44:34Z</time>
      </trkpt>
      <trkpt lat="49.08427" lon="2.02152">
        <ele>86.2</ele>
        <time>2023-01-07T13:44:39Z</time>
      </trkpt>
      <trkpt lat="49.08433" lon="2.02146">
        <ele>86.5</ele>
        <time>2023-01-07T13:44:45Z</time>
      </trkpt>
      <trkpt lat="49.08439" lon="2.0214">
        <ele>86.8</ele>
        <time>2023-01-07T13:44:50Z</time>
      </trkpt>
      <trkpt lat="49.08445" lon="2.02135">
        <ele>87</ele>
        <time>2023-01-07T13:44:56Z</time>
      </trkpt>
      <trkpt lat="49.08451" lon="2.02128">
        <ele>87</ele>
        <time>2023-01-07T13:45:02Z</time>
      </trkpt>
      <trkpt lat="49.08458" lon="2.0212">
        <ele>87</ele>
        <time>2023-01-07T13:45:08Z</time>
      </trkpt>
      <trkpt lat="49.08465" lon="2.02115">
        <ele>87</ele>
        <time>2023-01-07T13:45:13Z</time>
      </trkpt>
      <trkpt lat="49.08472" lon="2.02112">
        <ele>87</ele>
        <time>2023-01-07T13:45:18Z</time>
      </trkpt>
      <trkpt lat="49.08479" lon="2.0211">
        <ele>87.3</ele>
        <time>2023-01-07T13:45:24Z</time>
      </trkpt>
      <trkpt lat="49.08485" lon="2.02107">
        <ele>87.5</ele>
        <time>2023-01-07T13:45:29Z</time>
      </trkpt>
      <trkpt lat="49.08491" lon="2.02103">
        <ele>87.8</ele>
        <time>2023-01-07T13:45:34Z</time>
      </trkpt>
      <trkpt lat="49.08499" lon="2.021">
        <ele>88</ele>
        <time>2023-01-07T13:45:40Z</time>
      </trkpt>
      <trkpt lat="49.08506" lon="2.02097">
        <ele>88.2</ele>
        <time>2023-01-07T13:45:46Z</time>
      </trkpt>
      <trkpt lat="49.08513" lon="2.02095">
        <ele>88.5</ele>
        <time>2023-01-07T13:45:51Z</time>
      </trkpt>
      <trkpt lat="49.0852" lon="2.02093">
        <ele>88.7</ele>
        <time>2023-01-07T13:45:57Z</time>
      </trkpt>
      <trkpt lat="49.08529" lon="2.02091">
        <ele>89</ele>
        <time>2023-01-07T13:46:03Z</time>
      </trkpt>
      <trkpt lat="49.08538" lon="2.02089">
        <ele>89.3</ele>
        <time>2023-01-07T13:46:09Z</time>
      </trkpt>
      <trkpt lat="49.08546" lon="2.02089">
        <ele>89.5</ele>
        <time>2023-01-07T13:46:15Z</time>
      </trkpt>
      <trkpt lat="49.08555" lon="2.02091">
        <ele>89.7</ele>
        <time>2023-01-07T13:46:21Z</time>
      </trkpt>
      <trkpt lat="49.08562" lon="2.0209">
        <ele>89.8</ele>
        <time>2023-01-07T13:46:26Z</time>
      </trkpt>
      <trkpt lat="49.08569" lon="2.02093">
        <ele>89.8</ele>
        <time>2023-01-07T13:46:32Z</time>
      </trkpt>
      <trkpt lat="49.08577" lon="2.02095">
        <ele>89.9</ele>
        <time>2023-01-07T13:46:38Z</time>
      </trkpt>
      <trkpt lat="49.08586" lon="2.02098">
        <ele>90.1</ele>
        <time>2023-01-07T13:46:44Z</time>
      </trkpt>
      <trkpt lat="49.08593" lon="2.021">
        <ele>90.4</ele>
        <time>2023-01-07T13:46:50Z</time>
      </trkpt>
      <trkpt lat="49.086" lon="2.02102">
        <ele>90.6</ele>
        <time>2023-01-07T13:46:55Z</time>
      </trkpt>
      <trkpt lat="49.08607" lon="2.02105">
        <ele>90.9</ele>
        <time>2023-01-07T13:47:00Z</time>
      </trkpt>
      <trkpt lat="49.08615" lon="2.0211">
        <ele>91</ele>
        <time>2023-01-07T13:47:06Z</time>
      </trkpt>
      <trkpt lat="49.08622" lon="2.02114">
        <ele>90.9</ele>
        <time>2023-01-07T13:47:11Z</time>
      </trkpt>
      <trkpt lat="49.08629" lon="2.02117">
        <ele>90.9</ele>
        <time>2023-01-07T13:47:16Z</time>
      </trkpt>
      <trkpt lat="49.08636" lon="2.02123">
        <ele>91</ele>
        <time>2023-01-07T13:47:22Z</time>
      </trkpt>
      <trkpt lat="49.08644" lon="2.02128">
        <ele>91.2</ele>
        <time>2023-01-07T13:47:28Z</time>
      </trkpt>
      <trkpt lat="49.08651" lon="2.02134">
        <ele>91.4</ele>
        <time>2023-01-07T13:47:34Z</time>
      </trkpt>
      <trkpt lat="49.08658" lon="2.0214">
        <ele>91.6</ele>
        <time>2023-01-07T13:47:40Z</time>
      </trkpt>
      <trkpt lat="49.08664" lon="2.02147">
        <ele>91.6</ele>
        <time>2023-01-07T13:47:45Z</time>
      </trkpt>
      <trkpt lat="49.08669" lon="2.02153">
        <ele>91.5</ele>
        <time>2023-01-07T13:47:50Z</time>
      </trkpt>
      <trkpt lat="49.08675" lon="2.0216">
        <ele>91.4</ele>
        <time>2023-01-07T13:47:56Z</time>
      </trkpt>
      <trkpt lat="49.0868" lon="2.02168">
        <ele>91.5</ele>
        <time>2023-01-07T13:48:01Z</time>
      </trkpt>
      <trkpt lat="49.08685" lon="2.02176">
        <ele>91.7</ele>
        <time>2023-01-07T13:48:07Z</time>
      </trkpt>
      <trkpt lat="49.08692" lon="2.02185">
        <ele>91.9</ele>
        <time>2023-01-07T13:48:13Z</time>
      </trkpt>
      <trkpt lat="49.08697" lon="2.02194">
        <ele>92</ele>
        <time>2023-01-07T13:48:19Z</time>
      </trkpt>
      <trkpt lat="49.08701" lon="2.02203">
        <ele>91.8</ele>
        <time>2023-01-07T13:48:25Z</time>
      </trkpt>
      <trkpt lat="49.08706" lon="2.02209">
        <ele>91.7</ele>
        <time>2023-01-07T13:48:30Z</time>
      </trkpt>
      <trkpt lat="49.08711" lon="2.02218">
        <ele>91.7</ele>
        <time>2023-01-07T13:48:36Z</time>
      </trkpt>
      <trkpt lat="49.08714" lon="2.02225">
        <ele>91.7</ele>
        <time>2023-01-07T13:48:41Z</time>
      </trkpt>
      <trkpt lat="49.0872" lon="2.02233">
        <ele>91.9</ele>
        <time>2023-01-07T13:48:47Z</time>
      </trkpt>
      <trkpt lat="49.08728" lon="2.02239">
        <ele>92</ele>
        <time>2023-01-07T13:48:53Z</time>
      </trkpt>
      <trkpt lat="49.08732" lon="2.02234">
        <ele>92</ele>
        <time>2023-01-07T13:48:59Z</time>
      </trkpt>
      <trkpt lat="49.08738" lon="2.02228">
        <ele>92</ele>
        <time>2023-01-07T13:49:04Z</time>
      </trkpt>
      <trkpt lat="49.08741" lon="2.02219">
        <ele>92</ele>
        <time>2023-01-07T13:49:09Z</time>
      </trkpt>
      <trkpt lat="49.08743" lon="2.02207">
        <ele>92</ele>
        <time>2023-01-07T13:49:15Z</time>
      </trkpt>
      <trkpt lat="49.08745" lon="2.02197">
        <ele>92</ele>
        <time>2023-01-07T13:49:20Z</time>
      </trkpt>
      <trkpt lat="49.08749" lon="2.02183">
        <ele>92.4</ele>
        <time>2023-01-07T13:49:26Z</time>
      </trkpt>
      <trkpt lat="49.08753" lon="2.02173">
        <ele>92.8</ele>
        <time>2023-01-07T13:49:31Z</time>
      </trkpt>
      <trkpt lat="49.08758" lon="2.02161">
        <ele>93</ele>
        <time>2023-01-07T13:49:37Z</time>
      </trkpt>
      <trkpt lat="49.08762" lon="2.02152">
        <ele>93</ele>
        <time>2023-01-07T13:49:43Z</time>
      </trkpt>
      <trkpt lat="49.08766" lon="2.02144">
        <ele>93</ele>
        <time>2023-01-07T13:49:48Z</time>
      </trkpt>
      <trkpt lat="49.08769" lon="2.02135">
        <ele>93</ele>
        <time>2023-01-07T13:49:53Z</time>
      </trkpt>
      <trkpt lat="49.08774" lon="2.02126">
        <ele>92.9</ele>
        <time>2023-01-07T13:49:59Z</time>
      </trkpt>
      <trkpt lat="49.08777" lon="2.02119">
        <ele>93</ele>
        <time>2023-01-07T13:50:04Z</time>
      </trkpt>
      <trkpt lat="49.08781" lon="2.02109">
        <ele>93</ele>
        <time>2023-01-07T13:50:09Z</time>
      </trkpt>
      <trkpt lat="49.08785" lon="2.02102">
        <ele>93</ele>
        <time>2023-01-07T13:50:14Z</time>
      </trkpt>
      <trkpt lat="49.0879" lon="2.02094">
        <ele>93</ele>
        <time>2023-01-07T13:50:20Z</time>
      </trkpt>
      <trkpt lat="49.08794" lon="2.02087">
        <ele>93</ele>
        <time>2023-01-07T13:50:25Z</time>
      </trkpt>
      <trkpt lat="49.08798" lon="2.02078">
        <ele>92.9</ele>
        <time>2023-01-07T13:50:30Z</time>
      </trkpt>
      <trkpt lat="49.08805" lon="2.02069">
        <ele>93</ele>
        <time>2023-01-07T13:50:36Z</time>
      </trkpt>
      <trkpt lat="49.0881" lon="2.02058">
        <ele>93</ele>
        <time>2023-01-07T13:50:42Z</time>
      </trkpt>
      <trkpt lat="49.08815" lon="2.02053">
        <ele>93</ele>
        <time>2023-01-07T13:50:47Z</time>
      </trkpt>
      <trkpt lat="49.0882" lon="2.02045">
        <ele>93</ele>
        <time>2023-01-07T13:50:52Z</time>
      </trkpt>
      <trkpt lat="49.08827" lon="2.02039">
        <ele>93</ele>
        <time>2023-01-07T13:50:58Z</time>
      </trkpt>
      <trkpt lat="49.08833" lon="2.02031">
        <ele>93</ele>
        <time>2023-01-07T13:51:03Z</time>
      </trkpt>
      <trkpt lat="49.0884" lon="2.02025">
        <ele>93</ele>
        <time>2023-01-07T13:51:09Z</time>
      </trkpt>
      <trkpt lat="49.08848" lon="2.0202">
        <ele>93</ele>
        <time>2023-01-07T13:51:15Z</time>
      </trkpt>
      <trkpt lat="49.08855" lon="2.02014">
        <ele>93</ele>
        <time>2023-01-07T13:51:20Z</time>
      </trkpt>
      <trkpt lat="49.08861" lon="2.02006">
        <ele>93</ele>
        <time>2023-01-07T13:51:26Z</time>
      </trkpt>
      <trkpt lat="49.08868" lon="2.02002">
        <ele>93.2</ele>
        <time>2023-01-07T13:51:32Z</time>
      </trkpt>
      <trkpt lat="49.08875" lon="2.01997">
        <ele>93.5</ele>
        <time>2023-01-07T13:51:38Z</time>
      </trkpt>
      <trkpt lat="49.08883" lon="2.01994">
        <ele>93.8</ele>
        <time>2023-01-07T13:51:44Z</time>
      </trkpt>
      <trkpt lat="49.0889" lon="2.01985">
        <ele>94</ele>
        <time>2023-01-07T13:51:50Z</time>
      </trkpt>
      <trkpt lat="49.08897" lon="2.0198">
        <ele>94</ele>
        <time>2023-01-07T13:51:55Z</time>
      </trkpt>
      <trkpt lat="49.08905" lon="2.01977">
        <ele>94</ele>
        <time>2023-01-07T13:52:01Z</time>
      </trkpt>
      <trkpt lat="49.08912" lon="2.01974">
        <ele>94</ele>
        <time>2023-01-07T13:52:06Z</time>
      </trkpt>
      <trkpt lat="49.0892" lon="2.01972">
        <ele>94</ele>
        <time>2023-01-07T13:52:12Z</time>
      </trkpt>
      <trkpt lat="49.08927" lon="2.01968">
        <ele>93.9</ele>
        <time>2023-01-07T13:52:18Z</time>
      </trkpt>
      <trkpt lat="49.08935" lon="2.01965">
        <ele>93.9</ele>
        <time>2023-01-07T13:52:24Z</time>
      </trkpt>
      <trkpt lat="49.08943" lon="2.01961">
        <ele>94</ele>
        <time>2023-01-07T13:52:30Z</time>
      </trkpt>
      <trkpt lat="49.0895" lon="2.01961">
        <ele>94</ele>
        <time>2023-01-07T13:52:35Z</time>
      </trkpt>
      <trkpt lat="49.08958" lon="2.0196">
        <ele>94</ele>
        <time>2023-01-07T13:52:41Z</time>
      </trkpt>
      <trkpt lat="49.08964" lon="2.0196">
        <ele>94</ele>
        <time>2023-01-07T13:52:46Z</time>
      </trkpt>
      <trkpt lat="49.08972" lon="2.01961">
        <ele>94</ele>
        <time>2023-01-07T13:52:51Z</time>
      </trkpt>
      <trkpt lat="49.08982" lon="2.01961">
        <ele>94</ele>
        <time>2023-01-07T13:52:57Z</time>
      </trkpt>
      <trkpt lat="49.08991" lon="2.01959">
        <ele>94</ele>
        <time>2023-01-07T13:53:03Z</time>
      </trkpt>
      <trkpt lat="49.08996" lon="2.01958">
        <ele>94</ele>
        <time>2023-01-07T13:53:08Z</time>
      </trkpt>
      <trkpt lat="49.09003" lon="2.01957">
        <ele>93.9</ele>
        <time>2023-01-07T13:53:14Z</time>
      </trkpt>
      <trkpt lat="49.09011" lon="2.01958">
        <ele>93.8</ele>
        <time>2023-01-07T13:53:20Z</time>
      </trkpt>
      <trkpt lat="49.0902" lon="2.01958">
        <ele>93.6</ele>
        <time>2023-01-07T13:53:26Z</time>
      </trkpt>
      <trkpt lat="49.09028" lon="2.01959">
        <ele>93.5</ele>
        <time>2023-01-07T13:53:31Z</time>
      </trkpt>
      <trkpt lat="49.09036" lon="2.01959">
        <ele>93.5</ele>
        <time>2023-01-07T13:53:37Z</time>
      </trkpt>
      <trkpt lat="49.09044" lon="2.01959">
        <ele>93.5</ele>
        <time>2023-01-07T13:53:43Z</time>
      </trkpt>
      <trkpt lat="49.09051" lon="2.0196">
        <ele>93.6</ele>
        <time>2023-01-07T13:53:48Z</time>
      </trkpt>
      <trkpt lat="49.09059" lon="2.01961">
        <ele>93.5</ele>
        <time>2023-01-07T13:53:54Z</time>
      </trkpt>
      <trkpt lat="49.09067" lon="2.0196">
        <ele>93.3</ele>
        <time>2023-01-07T13:54:00Z</time>
      </trkpt>
      <trkpt lat="49.09075" lon="2.01959">
        <ele>93.2</ele>
        <time>2023-01-07T13:54:06Z</time>
      </trkpt>
      <trkpt lat="49.09083" lon="2.0196">
        <ele>93</ele>
        <time>2023-01-07T13:54:11Z</time>
      </trkpt>
      <trkpt lat="49.0909" lon="2.0196">
        <ele>93</ele>
        <time>2023-01-07T13:54:17Z</time>
      </trkpt>
      <trkpt lat="49.09097" lon="2.01962">
        <ele>93</ele>
        <time>2023-01-07T13:54:22Z</time>
      </trkpt>
      <trkpt lat="49.09104" lon="2.01963">
        <ele>93</ele>
        <time>2023-01-07T13:54:28Z</time>
      </trkpt>
      <trkpt lat="49.09111" lon="2.01964">
        <ele>93</ele>
        <time>2023-01-07T13:54:33Z</time>
      </trkpt>
      <trkpt lat="49.09119" lon="2.01965">
        <ele>93</ele>
        <time>2023-01-07T13:54:39Z</time>
      </trkpt>
      <trkpt lat="49.09125" lon="2.01966">
        <ele>93</ele>
        <time>2023-01-07T13:54:44Z</time>
      </trkpt>
      <trkpt lat="49.09135" lon="2.01966">
        <ele>93</ele>
        <time>2023-01-07T13:54:50Z</time>
      </trkpt>
      <trkpt lat="49.09146" lon="2.01967">
        <ele>93</ele>
        <time>2023-01-07T13:54:56Z</time>
      </trkpt>
      <trkpt lat="49.09152" lon="2.0197">
        <ele>93</ele>
        <time>2023-01-07T13:55:01Z</time>
      </trkpt>
      <trkpt lat="49.0916" lon="2.01971">
        <ele>93</ele>
        <time>2023-01-07T13:55:07Z</time>
      </trkpt>
      <trkpt lat="49.09166" lon="2.01972">
        <ele>93</ele>
        <time>2023-01-07T13:55:12Z</time>
      </trkpt>
      <trkpt lat="49.09172" lon="2.01973">
        <ele>93</ele>
        <time>2023-01-07T13:55:18Z</time>
      </trkpt>
      <trkpt lat="49.09178" lon="2.01974">
        <ele>93</ele>
        <time>2023-01-07T13:55:23Z</time>
      </trkpt>
      <trkpt lat="49.09185" lon="2.01978">
        <ele>93</ele>
        <time>2023-01-07T13:55:29Z</time>
      </trkpt>
      <trkpt lat="49.09195" lon="2.0198">
        <ele>93</ele>
        <time>2023-01-07T13:55:35Z</time>
      </trkpt>
      <trkpt lat="49.09203" lon="2.01981">
        <ele>93.1</ele>
        <time>2023-01-07T13:55:40Z</time>
      </trkpt>
      <trkpt lat="49.09212" lon="2.01981">
        <ele>93.2</ele>
        <time>2023-01-07T13:55:46Z</time>
      </trkpt>
      <trkpt lat="49.09216" lon="2.01983">
        <ele>93.3</ele>
        <time>2023-01-07T13:55:51Z</time>
      </trkpt>
      <trkpt lat="49.09216" lon="2.01983">
        <ele>93.3</ele>
        <time>2023-01-07T13:55:56Z</time>
      </trkpt>
      <trkpt lat="49.09216" lon="2.01983">
        <ele>93.3</ele>
        <time>2023-01-07T13:56:02Z</time>
      </trkpt>
      <trkpt lat="49.0922" lon="2.01984">
        <ele>93.4</ele>
        <time>2023-01-07T13:56:07Z</time>
      </trkpt>
      <trkpt lat="49.09227" lon="2.01986">
        <ele>93.6</ele>
        <time>2023-01-07T13:56:13Z</time>
      </trkpt>
      <trkpt lat="49.09237" lon="2.01988">
        <ele>93.8</ele>
        <time>2023-01-07T13:56:18Z</time>
      </trkpt>
      <trkpt lat="49.09245" lon="2.01989">
        <ele>93.9</ele>
        <time>2023-01-07T13:56:23Z</time>
      </trkpt>
      <trkpt lat="49.09255" lon="2.01991">
        <ele>94.1</ele>
        <time>2023-01-07T13:56:29Z</time>
      </trkpt>
      <trkpt lat="49.09262" lon="2.01993">
        <ele>94.3</ele>
        <time>2023-01-07T13:56:34Z</time>
      </trkpt>
      <trkpt lat="49.0927" lon="2.01996">
        <ele>94.6</ele>
        <time>2023-01-07T13:56:40Z</time>
      </trkpt>
      <trkpt lat="49.09277" lon="2.02">
        <ele>95</ele>
        <time>2023-01-07T13:56:46Z</time>
      </trkpt>
      <trkpt lat="49.09283" lon="2.02003">
        <ele>95</ele>
        <time>2023-01-07T13:56:51Z</time>
      </trkpt>
      <trkpt lat="49.09293" lon="2.02006">
        <ele>95</ele>
        <time>2023-01-07T13:56:57Z</time>
      </trkpt>
      <trkpt lat="49.093" lon="2.02009">
        <ele>95</ele>
        <time>2023-01-07T13:57:02Z</time>
      </trkpt>
      <trkpt lat="49.09307" lon="2.02011">
        <ele>95</ele>
        <time>2023-01-07T13:57:07Z</time>
      </trkpt>
      <trkpt lat="49.09316" lon="2.02014">
        <ele>95</ele>
        <time>2023-01-07T13:57:13Z</time>
      </trkpt>
      <trkpt lat="49.09324" lon="2.02016">
        <ele>95</ele>
        <time>2023-01-07T13:57:19Z</time>
      </trkpt>
      <trkpt lat="49.09333" lon="2.0202">
        <ele>95</ele>
        <time>2023-01-07T13:57:25Z</time>
      </trkpt>
      <trkpt lat="49.0934" lon="2.02023">
        <ele>95</ele>
        <time>2023-01-07T13:57:30Z</time>
      </trkpt>
      <trkpt lat="49.09346" lon="2.02025">
        <ele>95</ele>
        <time>2023-01-07T13:57:36Z</time>
      </trkpt>
      <trkpt lat="49.09353" lon="2.02027">
        <ele>95</ele>
        <time>2023-01-07T13:57:41Z</time>
      </trkpt>
      <trkpt lat="49.09362" lon="2.0203">
        <ele>95.1</ele>
        <time>2023-01-07T13:57:47Z</time>
      </trkpt>
      <trkpt lat="49.09373" lon="2.02034">
        <ele>95.5</ele>
        <time>2023-01-07T13:57:53Z</time>
      </trkpt>
      <trkpt lat="49.09379" lon="2.02036">
        <ele>95.8</ele>
        <time>2023-01-07T13:57:58Z</time>
      </trkpt>
      <trkpt lat="49.09388" lon="2.02039">
        <ele>96</ele>
        <time>2023-01-07T13:58:04Z</time>
      </trkpt>
      <trkpt lat="49.09395" lon="2.02042">
        <ele>96</ele>
        <time>2023-01-07T13:58:09Z</time>
      </trkpt>
      <trkpt lat="49.09404" lon="2.02044">
        <ele>96</ele>
        <time>2023-01-07T13:58:15Z</time>
      </trkpt>
      <trkpt lat="49.09411" lon="2.02046">
        <ele>96</ele>
        <time>2023-01-07T13:58:20Z</time>
      </trkpt>
      <trkpt lat="49.09418" lon="2.02048">
        <ele>96</ele>
        <time>2023-01-07T13:58:26Z</time>
      </trkpt>
      <trkpt lat="49.09429" lon="2.02052">
        <ele>96</ele>
        <time>2023-01-07T13:58:32Z</time>
      </trkpt>
      <trkpt lat="49.09435" lon="2.02055">
        <ele>96</ele>
        <time>2023-01-07T13:58:37Z</time>
      </trkpt>
      <trkpt lat="49.09444" lon="2.02059">
        <ele>96.1</ele>
        <time>2023-01-07T13:58:43Z</time>
      </trkpt>
      <trkpt lat="49.09452" lon="2.02061">
        <ele>96.4</ele>
        <time>2023-01-07T13:58:48Z</time>
      </trkpt>
      <trkpt lat="49.09458" lon="2.02064">
        <ele>96.6</ele>
        <time>2023-01-07T13:58:54Z</time>
      </trkpt>
      <trkpt lat="49.09464" lon="2.02068">
        <ele>96.8</ele>
        <time>2023-01-07T13:58:59Z</time>
      </trkpt>
      <trkpt lat="49.0947" lon="2.02072">
        <ele>97</ele>
        <time>2023-01-07T13:59:05Z</time>
      </trkpt>
      <trkpt lat="49.09479" lon="2.02074">
        <ele>97</ele>
        <time>2023-01-07T13:59:11Z</time>
      </trkpt>
      <trkpt lat="49.09487" lon="2.02079">
        <ele>97</ele>
        <time>2023-01-07T13:59:17Z</time>
      </trkpt>
      <trkpt lat="49.09495" lon="2.02083">
        <ele>97</ele>
        <time>2023-01-07T13:59:23Z</time>
      </trkpt>
      <trkpt lat="49.09502" lon="2.02086">
        <ele>97</ele>
        <time>2023-01-07T13:59:28Z</time>
      </trkpt>
      <trkpt lat="49.09511" lon="2.02091">
        <ele>97.1</ele>
        <time>2023-01-07T13:59:34Z</time>
      </trkpt>
      <trkpt lat="49.09517" lon="2.02095">
        <ele>97.3</ele>
        <time>2023-01-07T13:59:39Z</time>
      </trkpt>
      <trkpt lat="49.09525" lon="2.02101">
        <ele>97.6</ele>
        <time>2023-01-07T13:59:45Z</time>
      </trkpt>
      <trkpt lat="49.09532" lon="2.02105">
        <ele>97.8</ele>
        <time>2023-01-07T13:59:50Z</time>
      </trkpt>
      <trkpt lat="49.0954" lon="2.02108">
        <ele>97.9</ele>
        <time>2023-01-07T13:59:56Z</time>
      </trkpt>
      <trkpt lat="49.09547" lon="2.02111">
        <ele>98</ele>
        <time>2023-01-07T14:00:02Z</time>
      </trkpt>
      <trkpt lat="49.09554" lon="2.02113">
        <ele>98</ele>
        <time>2023-01-07T14:00:08Z</time>
      </trkpt>
      <trkpt lat="49.09562" lon="2.02117">
        <ele>98</ele>
        <time>2023-01-07T14:00:14Z</time>
      </trkpt>
      <trkpt lat="49.09565" lon="2.02123">
        <ele>98</ele>
        <time>2023-01-07T14:00:19Z</time>
      </trkpt>
      <trkpt lat="49.09573" lon="2.02129">
        <ele>98</ele>
        <time>2023-01-07T14:00:25Z</time>
      </trkpt>
      <trkpt lat="49.09581" lon="2.02134">
        <ele>98</ele>
        <time>2023-01-07T14:00:30Z</time>
      </trkpt>
      <trkpt lat="49.0959" lon="2.02139">
        <ele>98</ele>
        <time>2023-01-07T14:00:36Z</time>
      </trkpt>
      <trkpt lat="49.09597" lon="2.02144">
        <ele>98</ele>
        <time>2023-01-07T14:00:42Z</time>
      </trkpt>
      <trkpt lat="49.09603" lon="2.02148">
        <ele>98</ele>
        <time>2023-01-07T14:00:47Z</time>
      </trkpt>
      <trkpt lat="49.09611" lon="2.02152">
        <ele>98</ele>
        <time>2023-01-07T14:00:53Z</time>
      </trkpt>
      <trkpt lat="49.09618" lon="2.02158">
        <ele>97.9</ele>
        <time>2023-01-07T14:00:59Z</time>
      </trkpt>
      <trkpt lat="49.09624" lon="2.02162">
        <ele>97.9</ele>
        <time>2023-01-07T14:01:05Z</time>
      </trkpt>
      <trkpt lat="49.0963" lon="2.02165">
        <ele>98</ele>
        <time>2023-01-07T14:01:10Z</time>
      </trkpt>
      <trkpt lat="49.09638" lon="2.02169">
        <ele>98</ele>
        <time>2023-01-07T14:01:16Z</time>
      </trkpt>
      <trkpt lat="49.09645" lon="2.02174">
        <ele>98</ele>
        <time>2023-01-07T14:01:21Z</time>
      </trkpt>
      <trkpt lat="49.09654" lon="2.02179">
        <ele>98</ele>
        <time>2023-01-07T14:01:27Z</time>
      </trkpt>
      <trkpt lat="49.09664" lon="2.02183">
        <ele>98</ele>
        <time>2023-01-07T14:01:33Z</time>
      </trkpt>
      <trkpt lat="49.09672" lon="2.02188">
        <ele>98</ele>
        <time>2023-01-07T14:01:38Z</time>
      </trkpt>
      <trkpt lat="49.0968" lon="2.02193">
        <ele>98</ele>
        <time>2023-01-07T14:01:44Z</time>
      </trkpt>
      <trkpt lat="49.09684" lon="2.02195">
        <ele>98</ele>
        <time>2023-01-07T14:01:49Z</time>
      </trkpt>
      <trkpt lat="49.0969" lon="2.02198">
        <ele>98</ele>
        <time>2023-01-07T14:01:55Z</time>
      </trkpt>
      <trkpt lat="49.09698" lon="2.02202">
        <ele>98</ele>
        <time>2023-01-07T14:02:01Z</time>
      </trkpt>
      <trkpt lat="49.09706" lon="2.02206">
        <ele>98</ele>
        <time>2023-01-07T14:02:07Z</time>
      </trkpt>
      <trkpt lat="49.09714" lon="2.02212">
        <ele>98</ele>
        <time>2023-01-07T14:02:13Z</time>
      </trkpt>
      <trkpt lat="49.0972" lon="2.02216">
        <ele>98</ele>
        <time>2023-01-07T14:02:18Z</time>
      </trkpt>
      <trkpt lat="49.09728" lon="2.02219">
        <ele>98</ele>
        <time>2023-01-07T14:02:23Z</time>
      </trkpt>
      <trkpt lat="49.09737" lon="2.0222">
        <ele>98</ele>
        <time>2023-01-07T14:02:28Z</time>
      </trkpt>
      <trkpt lat="49.09746" lon="2.02223">
        <ele>98</ele>
        <time>2023-01-07T14:02:34Z</time>
      </trkpt>
      <trkpt lat="49.09754" lon="2.02226">
        <ele>97.9</ele>
        <time>2023-01-07T14:02:40Z</time>
      </trkpt>
      <trkpt lat="49.09761" lon="2.02229">
        <ele>97.7</ele>
        <time>2023-01-07T14:02:45Z</time>
      </trkpt>
      <trkpt lat="49.09769" lon="2.0223">
        <ele>97.5</ele>
        <time>2023-01-07T14:02:51Z</time>
      </trkpt>
      <trkpt lat="49.09775" lon="2.02233">
        <ele>97.5</ele>
        <time>2023-01-07T14:02:56Z</time>
      </trkpt>
      <trkpt lat="49.09784" lon="2.02238">
        <ele>97.4</ele>
        <time>2023-01-07T14:03:02Z</time>
      </trkpt>
      <trkpt lat="49.0979" lon="2.02239">
        <ele>97.3</ele>
        <time>2023-01-07T14:03:07Z</time>
      </trkpt>
      <trkpt lat="49.09798" lon="2.02241">
        <ele>97.2</ele>
        <time>2023-01-07T14:03:13Z</time>
      </trkpt>
      <trkpt lat="49.09805" lon="2.02237">
        <ele>97</ele>
        <time>2023-01-07T14:03:19Z</time>
      </trkpt>
      <trkpt lat="49.0981" lon="2.02235">
        <ele>96.9</ele>
        <time>2023-01-07T14:03:24Z</time>
      </trkpt>
      <trkpt lat="49.09812" lon="2.02236">
        <ele>96.9</ele>
        <time>2023-01-07T14:03:30Z</time>
      </trkpt>
      <trkpt lat="49.09811" lon="2.02236">
        <ele>96.9</ele>
        <time>2023-01-07T14:03:36Z</time>
      </trkpt>
      <trkpt lat="49.09812" lon="2.02235">
        <ele>96.9</ele>
        <time>2023-01-07T14:03:41Z</time>
      </trkpt>
      <trkpt lat="49.09812" lon="2.02235">
        <ele>96.9</ele>
        <time>2023-01-07T14:03:47Z</time>
      </trkpt>
      <trkpt lat="49.09812" lon="2.02236">
        <ele>96.9</ele>
        <time>2023-01-07T14:03:52Z</time>
      </trkpt>
      <trkpt lat="49.09812" lon="2.02236">
        <ele>96.9</ele>
        <time>2023-01-07T14:03:58Z</time>
      </trkpt>
      <trkpt lat="49.09812" lon="2.02235">
        <ele>96.9</ele>
        <time>2023-01-07T14:04:04Z</time>
      </trkpt>
      <trkpt lat="49.09811" lon="2.02235">
        <ele>96.9</ele>
        <time>2023-01-07T14:04:10Z</time>
      </trkpt>
      <trkpt lat="49.09811" lon="2.02235">
        <ele>96.9</ele>
        <time>2023-01-07T14:04:16Z</time>
      </trkpt>
      <trkpt lat="49.09811" lon="2.02235">
        <ele>96.9</ele>
        <time>2023-01-07T14:04:22Z</time>
      </trkpt>
      <trkpt lat="49.09811" lon="2.02235">
        <ele>96.9</ele>
        <time>2023-01-07T14:04:27Z</time>
      </trkpt>
      <trkpt lat="49.09811" lon="2.02235">
        <ele>96.9</ele>
        <time>2023-01-07T14:04:33Z</time>
      </trkpt>
      <trkpt lat="49.09811" lon="2.02235">
        <ele>96.9</ele>
        <time>2023-01-07T14:04:39Z</time>
      </trkpt>
      <trkpt lat="49.09811" lon="2.02234">
        <ele>96.9</ele>
        <time>2023-01-07T14:04:44Z</time>
      </trkpt>
      <trkpt lat="49.09812" lon="2.02233">
        <ele>96.9</ele>
        <time>2023-01-07T14:04:50Z</time>
      </trkpt>
      <trkpt lat="49.09812" lon="2.02233">
        <ele>96.9</ele>
        <time>2023-01-07T14:04:56Z</time>
      </trkpt>
      <trkpt lat="49.09812" lon="2.02233">
        <ele>96.9</ele>
        <time>2023-01-07T14:05:01Z</time>
      </trkpt>
      <trkpt lat="49.09812" lon="2.02232">
        <ele>96.9</ele>
        <time>2023-01-07T14:05:07Z</time>
      </trkpt>
      <trkpt lat="49.09812" lon="2.02228">
        <ele>96.8</ele>
        <time>2023-01-07T14:05:13Z</time>
      </trkpt>
      <trkpt lat="49.09813" lon="2.02221">
        <ele>96.7</ele>
        <time>2023-01-07T14:05:18Z</time>
      </trkpt>
      <trkpt lat="49.09814" lon="2.02211">
        <ele>96.3</ele>
        <time>2023-01-07T14:05:24Z</time>
      </trkpt>
      <trkpt lat="49.09815" lon="2.02202">
        <ele>95.9</ele>
        <time>2023-01-07T14:05:29Z</time>
      </trkpt>
      <trkpt lat="49.09816" lon="2.0219">
        <ele>95.5</ele>
        <time>2023-01-07T14:05:35Z</time>
      </trkpt>
      <trkpt lat="49.09816" lon="2.0218">
        <ele>95.3</ele>
        <time>2023-01-07T14:05:40Z</time>
      </trkpt>
      <trkpt lat="49.09817" lon="2.02165">
        <ele>94.9</ele>
        <time>2023-01-07T14:05:46Z</time>
      </trkpt>
      <trkpt lat="49.09819" lon="2.02155">
        <ele>94.6</ele>
        <time>2023-01-07T14:05:52Z</time>
      </trkpt>
      <trkpt lat="49.09822" lon="2.02143">
        <ele>94.2</ele>
        <time>2023-01-07T14:05:58Z</time>
      </trkpt>
      <trkpt lat="49.09823" lon="2.02131">
        <ele>93.8</ele>
        <time>2023-01-07T14:06:04Z</time>
      </trkpt>
      <trkpt lat="49.09824" lon="2.02119">
        <ele>93.5</ele>
        <time>2023-01-07T14:06:09Z</time>
      </trkpt>
      <trkpt lat="49.09824" lon="2.02105">
        <ele>93.1</ele>
        <time>2023-01-07T14:06:15Z</time>
      </trkpt>
      <trkpt lat="49.09826" lon="2.02092">
        <ele>92.6</ele>
        <time>2023-01-07T14:06:21Z</time>
      </trkpt>
      <trkpt lat="49.09827" lon="2.02078">
        <ele>92.1</ele>
        <time>2023-01-07T14:06:27Z</time>
      </trkpt>
      <trkpt lat="49.09827" lon="2.02066">
        <ele>91.6</ele>
        <time>2023-01-07T14:06:32Z</time>
      </trkpt>
      <trkpt lat="49.09826" lon="2.02053">
        <ele>91.2</ele>
        <time>2023-01-07T14:06:38Z</time>
      </trkpt>
      <trkpt lat="49.09825" lon="2.02041">
        <ele>90.8</ele>
        <time>2023-01-07T14:06:43Z</time>
      </trkpt>
      <trkpt lat="49.09824" lon="2.02029">
        <ele>90.4</ele>
        <time>2023-01-07T14:06:49Z</time>
      </trkpt>
      <trkpt lat="49.09823" lon="2.02021">
        <ele>90.1</ele>
        <time>2023-01-07T14:06:54Z</time>
      </trkpt>
      <trkpt lat="49.09821" lon="2.02011">
        <ele>89.8</ele>
        <time>2023-01-07T14:06:59Z</time>
      </trkpt>
      <trkpt lat="49.09818" lon="2.02">
        <ele>89.5</ele>
        <time>2023-01-07T14:07:05Z</time>
      </trkpt>
      <trkpt lat="49.09815" lon="2.0199">
        <ele>89.4</ele>
        <time>2023-01-07T14:07:10Z</time>
      </trkpt>
      <trkpt lat="49.0981" lon="2.01978">
        <ele>89.2</ele>
        <time>2023-01-07T14:07:16Z</time>
      </trkpt>
      <trkpt lat="49.09805" lon="2.01968">
        <ele>89</ele>
        <time>2023-01-07T14:07:21Z</time>
      </trkpt>
      <trkpt lat="49.098" lon="2.01956">
        <ele>89</ele>
        <time>2023-01-07T14:07:27Z</time>
      </trkpt>
      <trkpt lat="49.09796" lon="2.01948">
        <ele>89</ele>
        <time>2023-01-07T14:07:32Z</time>
      </trkpt>
      <trkpt lat="49.09791" lon="2.01939">
        <ele>88.9</ele>
        <time>2023-01-07T14:07:38Z</time>
      </trkpt>
      <trkpt lat="49.09786" lon="2.01929">
        <ele>88.6</ele>
        <time>2023-01-07T14:07:44Z</time>
      </trkpt>
      <trkpt lat="49.0978" lon="2.01919">
        <ele>88.1</ele>
        <time>2023-01-07T14:07:50Z</time>
      </trkpt>
      <trkpt lat="49.09774" lon="2.01914">
        <ele>88</ele>
        <time>2023-01-07T14:07:55Z</time>
      </trkpt>
      <trkpt lat="49.09766" lon="2.01907">
        <ele>88</ele>
        <time>2023-01-07T14:08:01Z</time>
      </trkpt>
      <trkpt lat="49.0976" lon="2.019">
        <ele>88</ele>
        <time>2023-01-07T14:08:06Z</time>
      </trkpt>
      <trkpt lat="49.09753" lon="2.01889">
        <ele>88</ele>
        <time>2023-01-07T14:08:12Z</time>
      </trkpt>
      <trkpt lat="49.09747" lon="2.01882">
        <ele>88</ele>
        <time>2023-01-07T14:08:17Z</time>
      </trkpt>
      <trkpt lat="49.0974" lon="2.01874">
        <ele>87.8</ele>
        <time>2023-01-07T14:08:23Z</time>
      </trkpt>
      <trkpt lat="49.09734" lon="2.01866">
        <ele>87.5</ele>
        <time>2023-01-07T14:08:28Z</time>
      </trkpt>
      <trkpt lat="49.09728" lon="2.01857">
        <ele>87.2</ele>
        <time>2023-01-07T14:08:34Z</time>
      </trkpt>
      <trkpt lat="49.09721" lon="2.01849">
        <ele>87</ele>
        <time>2023-01-07T14:08:40Z</time>
      </trkpt>
      <trkpt lat="49.09715" lon="2.01842">
        <ele>87.1</ele>
        <time>2023-01-07T14:08:45Z</time>
      </trkpt>
      <trkpt lat="49.09709" lon="2.01835">
        <ele>87</ele>
        <time>2023-01-07T14:08:51Z</time>
      </trkpt>
      <trkpt lat="49.09703" lon="2.01829">
        <ele>87</ele>
        <time>2023-01-07T14:08:56Z</time>
      </trkpt>
      <trkpt lat="49.09695" lon="2.01821">
        <ele>87</ele>
        <time>2023-01-07T14:09:02Z</time>
      </trkpt>
      <trkpt lat="49.09689" lon="2.01813">
        <ele>87.1</ele>
        <time>2023-01-07T14:09:07Z</time>
      </trkpt>
      <trkpt lat="49.09682" lon="2.01806">
        <ele>87</ele>
        <time>2023-01-07T14:09:12Z</time>
      </trkpt>
      <trkpt lat="49.09675" lon="2.01798">
        <ele>86.8</ele>
        <time>2023-01-07T14:09:18Z</time>
      </trkpt>
      <trkpt lat="49.0967" lon="2.0179">
        <ele>86.5</ele>
        <time>2023-01-07T14:09:23Z</time>
      </trkpt>
      <trkpt lat="49.09663" lon="2.01781">
        <ele>86.2</ele>
        <time>2023-01-07T14:09:29Z</time>
      </trkpt>
      <trkpt lat="49.09658" lon="2.01775">
        <ele>86.3</ele>
        <time>2023-01-07T14:09:34Z</time>
      </trkpt>
      <trkpt lat="49.0965" lon="2.01768">
        <ele>86.4</ele>
        <time>2023-01-07T14:09:40Z</time>
      </trkpt>
      <trkpt lat="49.09644" lon="2.01762">
        <ele>86.3</ele>
        <time>2023-01-07T14:09:45Z</time>
      </trkpt>
      <trkpt lat="49.09638" lon="2.01753">
        <ele>86.2</ele>
        <time>2023-01-07T14:09:51Z</time>
      </trkpt>
      <trkpt lat="49.09633" lon="2.01746">
        <ele>86.1</ele>
        <time>2023-01-07T14:09:56Z</time>
      </trkpt>
      <trkpt lat="49.09627" lon="2.01739">
        <ele>85.9</ele>
        <time>2023-01-07T14:10:02Z</time>
      </trkpt>
      <trkpt lat="49.0962" lon="2.01729">
        <ele>85.4</ele>
        <time>2023-01-07T14:10:08Z</time>
      </trkpt>
      <trkpt lat="49.09614" lon="2.01721">
        <ele>85</ele>
        <time>2023-01-07T14:10:14Z</time>
      </trkpt>
      <trkpt lat="49.09608" lon="2.01713">
        <ele>85.2</ele>
        <time>2023-01-07T14:10:20Z</time>
      </trkpt>
      <trkpt lat="49.09601" lon="2.01704">
        <ele>85.3</ele>
        <time>2023-01-07T14:10:26Z</time>
      </trkpt>
      <trkpt lat="49.09594" lon="2.01697">
        <ele>85.1</ele>
        <time>2023-01-07T14:10:32Z</time>
      </trkpt>
      <trkpt lat="49.09587" lon="2.01688">
        <ele>84.8</ele>
        <time>2023-01-07T14:10:38Z</time>
      </trkpt>
      <trkpt lat="49.09582" lon="2.01681">
        <ele>84.6</ele>
        <time>2023-01-07T14:10:43Z</time>
      </trkpt>
      <trkpt lat="49.09574" lon="2.01673">
        <ele>84.3</ele>
        <time>2023-01-07T14:10:49Z</time>
      </trkpt>
      <trkpt lat="49.09568" lon="2.01666">
        <ele>84</ele>
        <time>2023-01-07T14:10:54Z</time>
      </trkpt>
      <trkpt lat="49.0956" lon="2.01659">
        <ele>84</ele>
        <time>2023-01-07T14:11:00Z</time>
      </trkpt>
      <trkpt lat="49.09552" lon="2.01651">
        <ele>84</ele>
        <time>2023-01-07T14:11:06Z</time>
      </trkpt>
      <trkpt lat="49.09543" lon="2.01642">
        <ele>84</ele>
        <time>2023-01-07T14:11:12Z</time>
      </trkpt>
      <trkpt lat="49.09536" lon="2.01638">
        <ele>84</ele>
        <time>2023-01-07T14:11:17Z</time>
      </trkpt>
      <trkpt lat="49.09527" lon="2.01634">
        <ele>83.8</ele>
        <time>2023-01-07T14:11:23Z</time>
      </trkpt>
      <trkpt lat="49.09519" lon="2.0163">
        <ele>83.7</ele>
        <time>2023-01-07T14:11:28Z</time>
      </trkpt>
      <trkpt lat="49.09512" lon="2.01624">
        <ele>83.5</ele>
        <time>2023-01-07T14:11:34Z</time>
      </trkpt>
      <trkpt lat="49.09507" lon="2.0162">
        <ele>83.3</ele>
        <time>2023-01-07T14:11:39Z</time>
      </trkpt>
      <trkpt lat="49.09499" lon="2.01618">
        <ele>83.3</ele>
        <time>2023-01-07T14:11:45Z</time>
      </trkpt>
      <trkpt lat="49.09491" lon="2.01617">
        <ele>83.2</ele>
        <time>2023-01-07T14:11:51Z</time>
      </trkpt>
      <trkpt lat="49.0948" lon="2.01614">
        <ele>83.1</ele>
        <time>2023-01-07T14:11:57Z</time>
      </trkpt>
      <trkpt lat="49.09473" lon="2.01613">
        <ele>83.1</ele>
        <time>2023-01-07T14:12:02Z</time>
      </trkpt>
      <trkpt lat="49.09466" lon="2.01612">
        <ele>83</ele>
        <time>2023-01-07T14:12:07Z</time>
      </trkpt>
      <trkpt lat="49.09458" lon="2.0161">
        <ele>83</ele>
        <time>2023-01-07T14:12:13Z</time>
      </trkpt>
      <trkpt lat="49.09448" lon="2.01606">
        <ele>82.8</ele>
        <time>2023-01-07T14:12:19Z</time>
      </trkpt>
      <trkpt lat="49.09441" lon="2.01604">
        <ele>82.6</ele>
        <time>2023-01-07T14:12:24Z</time>
      </trkpt>
      <trkpt lat="49.09433" lon="2.01602">
        <ele>82.4</ele>
        <time>2023-01-07T14:12:29Z</time>
      </trkpt>
      <trkpt lat="49.09426" lon="2.01601">
        <ele>82.2</ele>
        <time>2023-01-07T14:12:35Z</time>
      </trkpt>
      <trkpt lat="49.09418" lon="2.016">
        <ele>82</ele>
        <time>2023-01-07T14:12:40Z</time>
      </trkpt>
      <trkpt lat="49.0941" lon="2.01599">
        <ele>82</ele>
        <time>2023-01-07T14:12:46Z</time>
      </trkpt>
      <trkpt lat="49.09403" lon="2.01597">
        <ele>82</ele>
        <time>2023-01-07T14:12:51Z</time>
      </trkpt>
      <trkpt lat="49.09394" lon="2.01594">
        <ele>82</ele>
        <time>2023-01-07T14:12:57Z</time>
      </trkpt>
      <trkpt lat="49.09385" lon="2.01592">
        <ele>81.9</ele>
        <time>2023-01-07T14:13:03Z</time>
      </trkpt>
      <trkpt lat="49.09374" lon="2.0159">
        <ele>81.6</ele>
        <time>2023-01-07T14:13:09Z</time>
      </trkpt>
      <trkpt lat="49.09366" lon="2.01589">
        <ele>81.3</ele>
        <time>2023-01-07T14:13:14Z</time>
      </trkpt>
      <trkpt lat="49.09356" lon="2.01587">
        <ele>81.1</ele>
        <time>2023-01-07T14:13:20Z</time>
      </trkpt>
      <trkpt lat="49.0935" lon="2.01587">
        <ele>81.1</ele>
        <time>2023-01-07T14:13:25Z</time>
      </trkpt>
      <trkpt lat="49.09344" lon="2.01585">
        <ele>81.1</ele>
        <time>2023-01-07T14:13:30Z</time>
      </trkpt>
      <trkpt lat="49.09336" lon="2.01581">
        <ele>81</ele>
        <time>2023-01-07T14:13:36Z</time>
      </trkpt>
      <trkpt lat="49.09327" lon="2.01581">
        <ele>81</ele>
        <time>2023-01-07T14:13:42Z</time>
      </trkpt>
      <trkpt lat="49.0932" lon="2.0158">
        <ele>80.9</ele>
        <time>2023-01-07T14:13:47Z</time>
      </trkpt>
      <trkpt lat="49.09311" lon="2.01579">
        <ele>80.9</ele>
        <time>2023-01-07T14:13:53Z</time>
      </trkpt>
      <trkpt lat="49.09303" lon="2.01579">
        <ele>80.8</ele>
        <time>2023-01-07T14:13:59Z</time>
      </trkpt>
      <trkpt lat="49.09295" lon="2.01578">
        <ele>80.8</ele>
        <time>2023-01-07T14:14:04Z</time>
      </trkpt>
      <trkpt lat="49.09284" lon="2.01577">
        <ele>80.8</ele>
        <time>2023-01-07T14:14:10Z</time>
      </trkpt>
      <trkpt lat="49.09277" lon="2.01575">
        <ele>80.7</ele>
        <time>2023-01-07T14:14:15Z</time>
      </trkpt>
      <trkpt lat="49.09269" lon="2.01575">
        <ele>80.7</ele>
        <time>2023-01-07T14:14:20Z</time>
      </trkpt>
      <trkpt lat="49.09261" lon="2.01572">
        <ele>80.6</ele>
        <time>2023-01-07T14:14:26Z</time>
      </trkpt>
      <trkpt lat="49.09255" lon="2.0157">
        <ele>80.5</ele>
        <time>2023-01-07T14:14:31Z</time>
      </trkpt>
      <trkpt lat="49.09247" lon="2.01569">
        <ele>80.5</ele>
        <time>2023-01-07T14:14:37Z</time>
      </trkpt>
      <trkpt lat="49.09237" lon="2.01567">
        <ele>80.4</ele>
        <time>2023-01-07T14:14:43Z</time>
      </trkpt>
      <trkpt lat="49.0923" lon="2.01567">
        <ele>80.4</ele>
        <time>2023-01-07T14:14:48Z</time>
      </trkpt>
      <trkpt lat="49.09222" lon="2.01565">
        <ele>80.4</ele>
        <time>2023-01-07T14:14:54Z</time>
      </trkpt>
      <trkpt lat="49.09212" lon="2.01564">
        <ele>80.3</ele>
        <time>2023-01-07T14:15:01Z</time>
      </trkpt>
      <trkpt lat="49.09204" lon="2.01561">
        <ele>80.2</ele>
        <time>2023-01-07T14:15:07Z</time>
      </trkpt>
      <trkpt lat="49.09198" lon="2.01559">
        <ele>80.1</ele>
        <time>2023-01-07T14:15:12Z</time>
      </trkpt>
      <trkpt lat="49.09192" lon="2.01559">
        <ele>80.1</ele>
        <time>2023-01-07T14:15:17Z</time>
      </trkpt>
      <trkpt lat="49.09183" lon="2.01557">
        <ele>80.1</ele>
        <time>2023-01-07T14:15:23Z</time>
      </trkpt>
      <trkpt lat="49.09175" lon="2.01553">
        <ele>79.9</ele>
        <time>2023-01-07T14:15:29Z</time>
      </trkpt>
      <trkpt lat="49.09167" lon="2.01551">
        <ele>79.8</ele>
        <time>2023-01-07T14:15:34Z</time>
      </trkpt>
      <trkpt lat="49.09161" lon="2.01551">
        <ele>79.8</ele>
        <time>2023-01-07T14:15:40Z</time>
      </trkpt>
      <trkpt lat="49.09151" lon="2.01548">
        <ele>79.7</ele>
        <time>2023-01-07T14:15:46Z</time>
      </trkpt>
      <trkpt lat="49.09143" lon="2.01546">
        <ele>79.7</ele>
        <time>2023-01-07T14:15:52Z</time>
      </trkpt>
      <trkpt lat="49.09138" lon="2.01544">
        <ele>79.6</ele>
        <time>2023-01-07T14:15:57Z</time>
      </trkpt>
      <trkpt lat="49.09129" lon="2.01539">
        <ele>79.3</ele>
        <time>2023-01-07T14:16:03Z</time>
      </trkpt>
      <trkpt lat="49.09124" lon="2.01536">
        <ele>79.1</ele>
        <time>2023-01-07T14:16:08Z</time>
      </trkpt>
      <trkpt lat="49.09117" lon="2.01532">
        <ele>79</ele>
        <time>2023-01-07T14:16:13Z</time>
      </trkpt>
      <trkpt lat="49.09111" lon="2.01529">
        <ele>79</ele>
        <time>2023-01-07T14:16:18Z</time>
      </trkpt>
      <trkpt lat="49.09104" lon="2.01524">
        <ele>79</ele>
        <time>2023-01-07T14:16:24Z</time>
      </trkpt>
      <trkpt lat="49.09097" lon="2.01518">
        <ele>79</ele>
        <time>2023-01-07T14:16:30Z</time>
      </trkpt>
      <trkpt lat="49.09089" lon="2.01512">
        <ele>79</ele>
        <time>2023-01-07T14:16:36Z</time>
      </trkpt>
      <trkpt lat="49.09083" lon="2.01509">
        <ele>79</ele>
        <time>2023-01-07T14:16:41Z</time>
      </trkpt>
      <trkpt lat="49.09077" lon="2.01508">
        <ele>79</ele>
        <time>2023-01-07T14:16:46Z</time>
      </trkpt>
      <trkpt lat="49.09071" lon="2.01503">
        <ele>79</ele>
        <time>2023-01-07T14:16:52Z</time>
      </trkpt>
      <trkpt lat="49.0907" lon="2.01503">
        <ele>79</ele>
        <time>2023-01-07T14:16:57Z</time>
      </trkpt>
      <trkpt lat="49.0907" lon="2.01502">
        <ele>79</ele>
        <time>2023-01-07T14:17:03Z</time>
      </trkpt>
      <trkpt lat="49.0907" lon="2.01502">
        <ele>79</ele>
        <time>2023-01-07T14:17:08Z</time>
      </trkpt>
      <trkpt lat="49.09071" lon="2.01502">
        <ele>79</ele>
        <time>2023-01-07T14:17:14Z</time>
      </trkpt>
      <trkpt lat="49.09071" lon="2.01502">
        <ele>79</ele>
        <time>2023-01-07T14:17:19Z</time>
      </trkpt>
      <trkpt lat="49.0907" lon="2.01502">
        <ele>79</ele>
        <time>2023-01-07T14:17:25Z</time>
      </trkpt>
      <trkpt lat="49.0907" lon="2.01502">
        <ele>79</ele>
        <time>2023-01-07T14:17:31Z</time>
      </trkpt>
      <trkpt lat="49.0907" lon="2.01502">
        <ele>79</ele>
        <time>2023-01-07T14:17:36Z</time>
      </trkpt>
      <trkpt lat="49.0907" lon="2.01501">
        <ele>79</ele>
        <time>2023-01-07T14:17:41Z</time>
      </trkpt>
      <trkpt lat="49.09069" lon="2.01502">
        <ele>79</ele>
        <time>2023-01-07T14:17:47Z</time>
      </trkpt>
      <trkpt lat="49.09068" lon="2.01502">
        <ele>79</ele>
        <time>2023-01-07T14:17:53Z</time>
      </trkpt>
      <trkpt lat="49.09069" lon="2.01502">
        <ele>79</ele>
        <time>2023-01-07T14:17:59Z</time>
      </trkpt>
      <trkpt lat="49.09069" lon="2.01502">
        <ele>79</ele>
        <time>2023-01-07T14:18:05Z</time>
      </trkpt>
      <trkpt lat="49.09069" lon="2.01502">
        <ele>79</ele>
        <time>2023-01-07T14:18:10Z</time>
      </trkpt>
      <trkpt lat="49.09069" lon="2.01501">
        <ele>79</ele>
        <time>2023-01-07T14:18:16Z</time>
      </trkpt>
      <trkpt lat="49.09069" lon="2.01501">
        <ele>79</ele>
        <time>2023-01-07T14:18:22Z</time>
      </trkpt>
      <trkpt lat="49.09069" lon="2.01501">
        <ele>79</ele>
        <time>2023-01-07T14:18:27Z</time>
      </trkpt>
      <trkpt lat="49.09069" lon="2.01501">
        <ele>79</ele>
        <time>2023-01-07T14:18:33Z</time>
      </trkpt>
      <trkpt lat="49.09069" lon="2.01501">
        <ele>79</ele>
        <time>2023-01-07T14:18:38Z</time>
      </trkpt>
      <trkpt lat="49.09069" lon="2.01501">
        <ele>79</ele>
        <time>2023-01-07T14:18:44Z</time>
      </trkpt>
      <trkpt lat="49.09069" lon="2.01501">
        <ele>79</ele>
        <time>2023-01-07T14:18:50Z</time>
      </trkpt>
      <trkpt lat="49.09069" lon="2.01501">
        <ele>79</ele>
        <time>2023-01-07T14:18:55Z</time>
      </trkpt>
      <trkpt lat="49.09069" lon="2.01501">
        <ele>79</ele>
        <time>2023-01-07T14:19:01Z</time>
      </trkpt>
      <trkpt lat="49.09069" lon="2.01501">
        <ele>79</ele>
        <time>2023-01-07T14:19:07Z</time>
      </trkpt>
      <trkpt lat="49.09069" lon="2.01501">
        <ele>79</ele>
        <time>2023-01-07T14:19:13Z</time>
      </trkpt>
      <trkpt lat="49.09069" lon="2.01501">
        <ele>79</ele>
        <time>2023-01-07T14:19:19Z</time>
      </trkpt>
      <trkpt lat="49.09069" lon="2.01501">
        <ele>79</ele>
        <time>2023-01-07T14:19:24Z</time>
      </trkpt>
      <trkpt lat="49.09069" lon="2.01502">
        <ele>79</ele>
        <time>2023-01-07T14:19:30Z</time>
      </trkpt>
      <trkpt lat="49.09069" lon="2.01501">
        <ele>79</ele>
        <time>2023-01-07T14:19:35Z</time>
      </trkpt>
      <trkpt lat="49.09069" lon="2.015">
        <ele>79</ele>
        <time>2023-01-07T14:19:41Z</time>
      </trkpt>
      <trkpt lat="49.0907" lon="2.015">
        <ele>79</ele>
        <time>2023-01-07T14:19:46Z</time>
      </trkpt>
      <trkpt lat="49.09068" lon="2.01501">
        <ele>79</ele>
        <time>2023-01-07T14:19:52Z</time>
      </trkpt>
      <trkpt lat="49.09068" lon="2.01501">
        <ele>79</ele>
        <time>2023-01-07T14:19:58Z</time>
      </trkpt>
      <trkpt lat="49.09062" lon="2.01497">
        <ele>79</ele>
        <time>2023-01-07T14:20:03Z</time>
      </trkpt>
      <trkpt lat="49.09055" lon="2.0149">
        <ele>79</ele>
        <time>2023-01-07T14:20:09Z</time>
      </trkpt>
      <trkpt lat="49.09049" lon="2.01482">
        <ele>78.8</ele>
        <time>2023-01-07T14:20:15Z</time>
      </trkpt>
      <trkpt lat="49.09043" lon="2.01475">
        <ele>78.6</ele>
        <time>2023-01-07T14:20:20Z</time>
      </trkpt>
      <trkpt lat="49.09035" lon="2.01469">
        <ele>78.3</ele>
        <time>2023-01-07T14:20:26Z</time>
      </trkpt>
      <trkpt lat="49.09028" lon="2.01464">
        <ele>78</ele>
        <time>2023-01-07T14:20:31Z</time>
      </trkpt>
      <trkpt lat="49.09022" lon="2.01458">
        <ele>78</ele>
        <time>2023-01-07T14:20:37Z</time>
      </trkpt>
      <trkpt lat="49.09017" lon="2.01451">
        <ele>78</ele>
        <time>2023-01-07T14:20:43Z</time>
      </trkpt>
      <trkpt lat="49.09012" lon="2.01444">
        <ele>78</ele>
        <time>2023-01-07T14:20:49Z</time>
      </trkpt>
      <trkpt lat="49.09005" lon="2.01437">
        <ele>78</ele>
        <time>2023-01-07T14:20:55Z</time>
      </trkpt>
      <trkpt lat="49.09" lon="2.01433">
        <ele>78</ele>
        <time>2023-01-07T14:21:00Z</time>
      </trkpt>
      <trkpt lat="49.08995" lon="2.01423">
        <ele>77.9</ele>
        <time>2023-01-07T14:21:06Z</time>
      </trkpt>
      <trkpt lat="49.0899" lon="2.01411">
        <ele>77.7</ele>
        <time>2023-01-07T14:21:12Z</time>
      </trkpt>
      <trkpt lat="49.08984" lon="2.01403">
        <ele>77.4</ele>
        <time>2023-01-07T14:21:18Z</time>
      </trkpt>
      <trkpt lat="49.08978" lon="2.01392">
        <ele>77.2</ele>
        <time>2023-01-07T14:21:24Z</time>
      </trkpt>
      <trkpt lat="49.08974" lon="2.01384">
        <ele>77.1</ele>
        <time>2023-01-07T14:21:30Z</time>
      </trkpt>
      <trkpt lat="49.08968" lon="2.01377">
        <ele>77.1</ele>
        <time>2023-01-07T14:21:36Z</time>
      </trkpt>
      <trkpt lat="49.08962" lon="2.01371">
        <ele>77.1</ele>
        <time>2023-01-07T14:21:41Z</time>
      </trkpt>
      <trkpt lat="49.08958" lon="2.01364">
        <ele>77.1</ele>
        <time>2023-01-07T14:21:46Z</time>
      </trkpt>
      <trkpt lat="49.08954" lon="2.01357">
        <ele>77.1</ele>
        <time>2023-01-07T14:21:52Z</time>
      </trkpt>
      <trkpt lat="49.08948" lon="2.01348">
        <ele>77.1</ele>
        <time>2023-01-07T14:21:58Z</time>
      </trkpt>
      <trkpt lat="49.08944" lon="2.01342">
        <ele>77</ele>
        <time>2023-01-07T14:22:03Z</time>
      </trkpt>
      <trkpt lat="49.08939" lon="2.01331">
        <ele>77</ele>
        <time>2023-01-07T14:22:09Z</time>
      </trkpt>
      <trkpt lat="49.0893" lon="2.01323">
        <ele>76.8</ele>
        <time>2023-01-07T14:22:14Z</time>
      </trkpt>
      <trkpt lat="49.08924" lon="2.0131">
        <ele>76.4</ele>
        <time>2023-01-07T14:22:20Z</time>
      </trkpt>
      <trkpt lat="49.08917" lon="2.01304">
        <ele>76</ele>
        <time>2023-01-07T14:22:25Z</time>
      </trkpt>
      <trkpt lat="49.08912" lon="2.01297">
        <ele>76.1</ele>
        <time>2023-01-07T14:22:31Z</time>
      </trkpt>
      <trkpt lat="49.08907" lon="2.01292">
        <ele>76.2</ele>
        <time>2023-01-07T14:22:36Z</time>
      </trkpt>
      <trkpt lat="49.08903" lon="2.0129">
        <ele>76.2</ele>
        <time>2023-01-07T14:22:42Z</time>
      </trkpt>
      <trkpt lat="49.08899" lon="2.01286">
        <ele>76.2</ele>
        <time>2023-01-07T14:22:47Z</time>
      </trkpt>
      <trkpt lat="49.08889" lon="2.01279">
        <ele>76.1</ele>
        <time>2023-01-07T14:22:53Z</time>
      </trkpt>
      <trkpt lat="49.08883" lon="2.01273">
        <ele>76.2</ele>
        <time>2023-01-07T14:22:58Z</time>
      </trkpt>
      <trkpt lat="49.08877" lon="2.01267">
        <ele>76.3</ele>
        <time>2023-01-07T14:23:04Z</time>
      </trkpt>
      <trkpt lat="49.08872" lon="2.01261">
        <ele>76.2</ele>
        <time>2023-01-07T14:23:09Z</time>
      </trkpt>
      <trkpt lat="49.08865" lon="2.01254">
        <ele>76.1</ele>
        <time>2023-01-07T14:23:15Z</time>
      </trkpt>
      <trkpt lat="49.08858" lon="2.01248">
        <ele>76</ele>
        <time>2023-01-07T14:23:20Z</time>
      </trkpt>
      <trkpt lat="49.08853" lon="2.01242">
        <ele>75.9</ele>
        <time>2023-01-07T14:23:25Z</time>
      </trkpt>
      <trkpt lat="49.08846" lon="2.01236">
        <ele>75.7</ele>
        <time>2023-01-07T14:23:31Z</time>
      </trkpt>
      <trkpt lat="49.08841" lon="2.01228">
        <ele>75.4</ele>
        <time>2023-01-07T14:23:36Z</time>
      </trkpt>
      <trkpt lat="49.08833" lon="2.01222">
        <ele>75</ele>
        <time>2023-01-07T14:23:42Z</time>
      </trkpt>
      <trkpt lat="49.08827" lon="2.01216">
        <ele>75</ele>
        <time>2023-01-07T14:23:47Z</time>
      </trkpt>
      <trkpt lat="49.08819" lon="2.01206">
        <ele>74.7</ele>
        <time>2023-01-07T14:23:53Z</time>
      </trkpt>
      <trkpt lat="49.08812" lon="2.01201">
        <ele>74.4</ele>
        <time>2023-01-07T14:23:59Z</time>
      </trkpt>
      <trkpt lat="49.08807" lon="2.01199">
        <ele>74.2</ele>
        <time>2023-01-07T14:24:04Z</time>
      </trkpt>
      <trkpt lat="49.08801" lon="2.01196">
        <ele>74.1</ele>
        <time>2023-01-07T14:24:09Z</time>
      </trkpt>
      <trkpt lat="49.08797" lon="2.01191">
        <ele>74</ele>
        <time>2023-01-07T14:24:14Z</time>
      </trkpt>
      <trkpt lat="49.0879" lon="2.01181">
        <ele>73.7</ele>
        <time>2023-01-07T14:24:20Z</time>
      </trkpt>
      <trkpt lat="49.08783" lon="2.01176">
        <ele>73.5</ele>
        <time>2023-01-07T14:24:25Z</time>
      </trkpt>
      <trkpt lat="49.08776" lon="2.0117">
        <ele>73.1</ele>
        <time>2023-01-07T14:24:31Z</time>
      </trkpt>
      <trkpt lat="49.0877" lon="2.01166">
        <ele>72.7</ele>
        <time>2023-01-07T14:24:37Z</time>
      </trkpt>
      <trkpt lat="49.08762" lon="2.01158">
        <ele>72.2</ele>
        <time>2023-01-07T14:24:43Z</time>
      </trkpt>
      <trkpt lat="49.08756" lon="2.01152">
        <ele>71.8</ele>
        <time>2023-01-07T14:24:48Z</time>
      </trkpt>
      <trkpt lat="49.08746" lon="2.01146">
        <ele>71.3</ele>
        <time>2023-01-07T14:24:54Z</time>
      </trkpt>
      <trkpt lat="49.08738" lon="2.01143">
        <ele>71.2</ele>
        <time>2023-01-07T14:24:59Z</time>
      </trkpt>
      <trkpt lat="49.08732" lon="2.01137">
        <ele>71</ele>
        <time>2023-01-07T14:25:04Z</time>
      </trkpt>
      <trkpt lat="49.08726" lon="2.01128">
        <ele>70.7</ele>
        <time>2023-01-07T14:25:09Z</time>
      </trkpt>
      <trkpt lat="49.0872" lon="2.01124">
        <ele>70.5</ele>
        <time>2023-01-07T14:25:14Z</time>
      </trkpt>
      <trkpt lat="49.08713" lon="2.01119">
        <ele>70.4</ele>
        <time>2023-01-07T14:25:20Z</time>
      </trkpt>
      <trkpt lat="49.08706" lon="2.01114">
        <ele>70.2</ele>
        <time>2023-01-07T14:25:26Z</time>
      </trkpt>
      <trkpt lat="49.08702" lon="2.01109">
        <ele>70</ele>
        <time>2023-01-07T14:25:31Z</time>
      </trkpt>
      <trkpt lat="49.08699" lon="2.01106">
        <ele>69.8</ele>
        <time>2023-01-07T14:25:36Z</time>
      </trkpt>
      <trkpt lat="49.0869" lon="2.01098">
        <ele>69.6</ele>
        <time>2023-01-07T14:25:42Z</time>
      </trkpt>
      <trkpt lat="49.08683" lon="2.01091">
        <ele>69.4</ele>
        <time>2023-01-07T14:25:47Z</time>
      </trkpt>
      <trkpt lat="49.08677" lon="2.01087">
        <ele>69.2</ele>
        <time>2023-01-07T14:25:54Z</time>
      </trkpt>
      <trkpt lat="49.08677" lon="2.01085">
        <ele>69.1</ele>
        <time>2023-01-07T14:25:59Z</time>
      </trkpt>
      <trkpt lat="49.08677" lon="2.01084">
        <ele>69.1</ele>
        <time>2023-01-07T14:26:05Z</time>
      </trkpt>
      <trkpt lat="49.08678" lon="2.0108">
        <ele>69</ele>
        <time>2023-01-07T14:26:10Z</time>
      </trkpt>
      <trkpt lat="49.08679" lon="2.01082">
        <ele>69</ele>
        <time>2023-01-07T14:26:16Z</time>
      </trkpt>
      <trkpt lat="49.08684" lon="2.01074">
        <ele>69</ele>
        <time>2023-01-07T14:26:21Z</time>
      </trkpt>
      <trkpt lat="49.08687" lon="2.01059">
        <ele>69</ele>
        <time>2023-01-07T14:26:27Z</time>
      </trkpt>
      <trkpt lat="49.08689" lon="2.01049">
        <ele>69.2</ele>
        <time>2023-01-07T14:26:33Z</time>
      </trkpt>
      <trkpt lat="49.08687" lon="2.01038">
        <ele>69.5</ele>
        <time>2023-01-07T14:26:38Z</time>
      </trkpt>
      <trkpt lat="49.08684" lon="2.01027">
        <ele>69.7</ele>
        <time>2023-01-07T14:26:43Z</time>
      </trkpt>
      <trkpt lat="49.08678" lon="2.01019">
        <ele>70</ele>
        <time>2023-01-07T14:26:49Z</time>
      </trkpt>
      <trkpt lat="49.08672" lon="2.01009">
        <ele>70.5</ele>
        <time>2023-01-07T14:26:55Z</time>
      </trkpt>
      <trkpt lat="49.08666" lon="2.01002">
        <ele>70.8</ele>
        <time>2023-01-07T14:27:01Z</time>
      </trkpt>
      <trkpt lat="49.08662" lon="2.00996">
        <ele>71.1</ele>
        <time>2023-01-07T14:27:06Z</time>
      </trkpt>
      <trkpt lat="49.08658" lon="2.00982">
        <ele>72</ele>
        <time>2023-01-07T14:27:12Z</time>
      </trkpt>
      <trkpt lat="49.08655" lon="2.00975">
        <ele>72.4</ele>
        <time>2023-01-07T14:27:17Z</time>
      </trkpt>
      <trkpt lat="49.08651" lon="2.00968">
        <ele>72.7</ele>
        <time>2023-01-07T14:27:23Z</time>
      </trkpt>
      <trkpt lat="49.08645" lon="2.00958">
        <ele>73.2</ele>
        <time>2023-01-07T14:27:28Z</time>
      </trkpt>
      <trkpt lat="49.08642" lon="2.00952">
        <ele>73.6</ele>
        <time>2023-01-07T14:27:33Z</time>
      </trkpt>
      <trkpt lat="49.08637" lon="2.00946">
        <ele>73.8</ele>
        <time>2023-01-07T14:27:39Z</time>
      </trkpt>
      <trkpt lat="49.08634" lon="2.0094">
        <ele>73.8</ele>
        <time>2023-01-07T14:27:44Z</time>
      </trkpt>
      <trkpt lat="49.08627" lon="2.0093">
        <ele>73.9</ele>
        <time>2023-01-07T14:27:50Z</time>
      </trkpt>
      <trkpt lat="49.08619" lon="2.00921">
        <ele>74</ele>
        <time>2023-01-07T14:27:56Z</time>
      </trkpt>
      <trkpt lat="49.08614" lon="2.00911">
        <ele>74.3</ele>
        <time>2023-01-07T14:28:02Z</time>
      </trkpt>
      <trkpt lat="49.0861" lon="2.00903">
        <ele>74.4</ele>
        <time>2023-01-07T14:28:07Z</time>
      </trkpt>
      <trkpt lat="49.08603" lon="2.00895">
        <ele>74.5</ele>
        <time>2023-01-07T14:28:13Z</time>
      </trkpt>
      <trkpt lat="49.08599" lon="2.00886">
        <ele>74.7</ele>
        <time>2023-01-07T14:28:18Z</time>
      </trkpt>
      <trkpt lat="49.08596" lon="2.00879">
        <ele>75.1</ele>
        <time>2023-01-07T14:28:23Z</time>
      </trkpt>
      <trkpt lat="49.08591" lon="2.00872">
        <ele>75.5</ele>
        <time>2023-01-07T14:28:28Z</time>
      </trkpt>
      <trkpt lat="49.08586" lon="2.00867">
        <ele>75.7</ele>
        <time>2023-01-07T14:28:33Z</time>
      </trkpt>
      <trkpt lat="49.0858" lon="2.0086">
        <ele>75.9</ele>
        <time>2023-01-07T14:28:39Z</time>
      </trkpt>
      <trkpt lat="49.08575" lon="2.00851">
        <ele>76.2</ele>
        <time>2023-01-07T14:28:44Z</time>
      </trkpt>
      <trkpt lat="49.0857" lon="2.00844">
        <ele>76.4</ele>
        <time>2023-01-07T14:28:50Z</time>
      </trkpt>
      <trkpt lat="49.08562" lon="2.00837">
        <ele>76.7</ele>
        <time>2023-01-07T14:28:56Z</time>
      </trkpt>
      <trkpt lat="49.08556" lon="2.0083">
        <ele>77.1</ele>
        <time>2023-01-07T14:29:01Z</time>
      </trkpt>
      <trkpt lat="49.08551" lon="2.00824">
        <ele>77.2</ele>
        <time>2023-01-07T14:29:06Z</time>
      </trkpt>
      <trkpt lat="49.08545" lon="2.00819">
        <ele>77.1</ele>
        <time>2023-01-07T14:29:11Z</time>
      </trkpt>
      <trkpt lat="49.08539" lon="2.00807">
        <ele>77.3</ele>
        <time>2023-01-07T14:29:17Z</time>
      </trkpt>
      <trkpt lat="49.08534" lon="2.00801">
        <ele>77.4</ele>
        <time>2023-01-07T14:29:23Z</time>
      </trkpt>
      <trkpt lat="49.0853" lon="2.00797">
        <ele>77.4</ele>
        <time>2023-01-07T14:29:28Z</time>
      </trkpt>
      <trkpt lat="49.08523" lon="2.00789">
        <ele>77.5</ele>
        <time>2023-01-07T14:29:34Z</time>
      </trkpt>
      <trkpt lat="49.08517" lon="2.00784">
        <ele>77.7</ele>
        <time>2023-01-07T14:29:39Z</time>
      </trkpt>
      <trkpt lat="49.08512" lon="2.00779">
        <ele>77.9</ele>
        <time>2023-01-07T14:29:44Z</time>
      </trkpt>
      <trkpt lat="49.08507" lon="2.00774">
        <ele>78.2</ele>
        <time>2023-01-07T14:29:50Z</time>
      </trkpt>
      <trkpt lat="49.085" lon="2.00768">
        <ele>78.4</ele>
        <time>2023-01-07T14:29:56Z</time>
      </trkpt>
      <trkpt lat="49.08495" lon="2.00764">
        <ele>78.3</ele>
        <time>2023-01-07T14:30:02Z</time>
      </trkpt>
      <trkpt lat="49.08488" lon="2.00757">
        <ele>78.3</ele>
        <time>2023-01-07T14:30:07Z</time>
      </trkpt>
      <trkpt lat="49.0848" lon="2.00751">
        <ele>78.2</ele>
        <time>2023-01-07T14:30:13Z</time>
      </trkpt>
      <trkpt lat="49.08473" lon="2.00748">
        <ele>78</ele>
        <time>2023-01-07T14:30:18Z</time>
      </trkpt>
      <trkpt lat="49.08468" lon="2.00744">
        <ele>77.9</ele>
        <time>2023-01-07T14:30:23Z</time>
      </trkpt>
      <trkpt lat="49.08463" lon="2.00738">
        <ele>77.8</ele>
        <time>2023-01-07T14:30:29Z</time>
      </trkpt>
      <trkpt lat="49.08456" lon="2.00733">
        <ele>77.8</ele>
        <time>2023-01-07T14:30:35Z</time>
      </trkpt>
      <trkpt lat="49.0845" lon="2.00727">
        <ele>77.9</ele>
        <time>2023-01-07T14:30:40Z</time>
      </trkpt>
      <trkpt lat="49.08443" lon="2.00721">
        <ele>78</ele>
        <time>2023-01-07T14:30:45Z</time>
      </trkpt>
      <trkpt lat="49.08436" lon="2.00715">
        <ele>77.8</ele>
        <time>2023-01-07T14:30:51Z</time>
      </trkpt>
      <trkpt lat="49.0843" lon="2.00708">
        <ele>77.7</ele>
        <time>2023-01-07T14:30:56Z</time>
      </trkpt>
      <trkpt lat="49.08425" lon="2.00703">
        <ele>77.8</ele>
        <time>2023-01-07T14:31:01Z</time>
      </trkpt>
      <trkpt lat="49.08422" lon="2.00696">
        <ele>77.9</ele>
        <time>2023-01-07T14:31:06Z</time>
      </trkpt>
      <trkpt lat="49.08425" lon="2.00686">
        <ele>78.2</ele>
        <time>2023-01-07T14:31:12Z</time>
      </trkpt>
      <trkpt lat="49.08427" lon="2.00678">
        <ele>78.5</ele>
        <time>2023-01-07T14:31:18Z</time>
      </trkpt>
      <trkpt lat="49.0843" lon="2.0067">
        <ele>78.8</ele>
        <time>2023-01-07T14:31:24Z</time>
      </trkpt>
      <trkpt lat="49.08435" lon="2.00662">
        <ele>79.4</ele>
        <time>2023-01-07T14:31:30Z</time>
      </trkpt>
      <trkpt lat="49.08438" lon="2.0065">
        <ele>80</ele>
        <time>2023-01-07T14:31:36Z</time>
      </trkpt>
      <trkpt lat="49.08441" lon="2.0064">
        <ele>80.6</ele>
        <time>2023-01-07T14:31:41Z</time>
      </trkpt>
      <trkpt lat="49.08447" lon="2.00631">
        <ele>81.2</ele>
        <time>2023-01-07T14:31:47Z</time>
      </trkpt>
      <trkpt lat="49.08448" lon="2.00622">
        <ele>81.4</ele>
        <time>2023-01-07T14:31:53Z</time>
      </trkpt>
      <trkpt lat="49.08448" lon="2.00614">
        <ele>81.4</ele>
        <time>2023-01-07T14:31:59Z</time>
      </trkpt>
      <trkpt lat="49.08449" lon="2.00604">
        <ele>81.5</ele>
        <time>2023-01-07T14:32:05Z</time>
      </trkpt>
      <trkpt lat="49.08449" lon="2.00595">
        <ele>81.6</ele>
        <time>2023-01-07T14:32:11Z</time>
      </trkpt>
      <trkpt lat="49.08451" lon="2.00587">
        <ele>81.9</ele>
        <time>2023-01-07T14:32:16Z</time>
      </trkpt>
      <trkpt lat="49.08456" lon="2.00585">
        <ele>82.6</ele>
        <time>2023-01-07T14:32:22Z</time>
      </trkpt>
      <trkpt lat="49.08458" lon="2.00584">
        <ele>83</ele>
        <time>2023-01-07T14:32:27Z</time>
      </trkpt>
      <trkpt lat="49.08462" lon="2.00585">
        <ele>83.5</ele>
        <time>2023-01-07T14:32:32Z</time>
      </trkpt>
      <trkpt lat="49.08471" lon="2.00585">
        <ele>84.7</ele>
        <time>2023-01-07T14:32:38Z</time>
      </trkpt>
      <trkpt lat="49.08478" lon="2.00588">
        <ele>84.9</ele>
        <time>2023-01-07T14:32:44Z</time>
      </trkpt>
      <trkpt lat="49.08484" lon="2.0059">
        <ele>85.1</ele>
        <time>2023-01-07T14:32:50Z</time>
      </trkpt>
      <trkpt lat="49.08488" lon="2.00583">
        <ele>85</ele>
        <time>2023-01-07T14:32:55Z</time>
      </trkpt>
      <trkpt lat="49.08496" lon="2.00575">
        <ele>85.1</ele>
        <time>2023-01-07T14:33:01Z</time>
      </trkpt>
      <trkpt lat="49.08502" lon="2.00566">
        <ele>85.1</ele>
        <time>2023-01-07T14:33:06Z</time>
      </trkpt>
      <trkpt lat="49.08507" lon="2.0056">
        <ele>85.5</ele>
        <time>2023-01-07T14:33:12Z</time>
      </trkpt>
      <trkpt lat="49.08513" lon="2.00554">
        <ele>85.9</ele>
        <time>2023-01-07T14:33:17Z</time>
      </trkpt>
      <trkpt lat="49.08519" lon="2.00543">
        <ele>86.5</ele>
        <time>2023-01-07T14:33:23Z</time>
      </trkpt>
      <trkpt lat="49.08527" lon="2.00536">
        <ele>86.9</ele>
        <time>2023-01-07T14:33:29Z</time>
      </trkpt>
      <trkpt lat="49.08531" lon="2.00529">
        <ele>87.2</ele>
        <time>2023-01-07T14:33:34Z</time>
      </trkpt>
      <trkpt lat="49.08536" lon="2.00517">
        <ele>88</ele>
        <time>2023-01-07T14:33:40Z</time>
      </trkpt>
      <trkpt lat="49.0854" lon="2.00509">
        <ele>88.5</ele>
        <time>2023-01-07T14:33:45Z</time>
      </trkpt>
      <trkpt lat="49.08544" lon="2.00499">
        <ele>89.2</ele>
        <time>2023-01-07T14:33:51Z</time>
      </trkpt>
      <trkpt lat="49.08548" lon="2.00492">
        <ele>89.4</ele>
        <time>2023-01-07T14:33:56Z</time>
      </trkpt>
      <trkpt lat="49.08552" lon="2.00482">
        <ele>89.7</ele>
        <time>2023-01-07T14:34:02Z</time>
      </trkpt>
      <trkpt lat="49.08555" lon="2.00471">
        <ele>90</ele>
        <time>2023-01-07T14:34:07Z</time>
      </trkpt>
      <trkpt lat="49.08559" lon="2.00462">
        <ele>90</ele>
        <time>2023-01-07T14:34:13Z</time>
      </trkpt>
      <trkpt lat="49.08562" lon="2.00452">
        <ele>90</ele>
        <time>2023-01-07T14:34:19Z</time>
      </trkpt>
      <trkpt lat="49.08567" lon="2.00438">
        <ele>90</ele>
        <time>2023-01-07T14:34:25Z</time>
      </trkpt>
      <trkpt lat="49.0857" lon="2.00431">
        <ele>90</ele>
        <time>2023-01-07T14:34:30Z</time>
      </trkpt>
      <trkpt lat="49.08573" lon="2.00422">
        <ele>90</ele>
        <time>2023-01-07T14:34:36Z</time>
      </trkpt>
      <trkpt lat="49.08571" lon="2.00418">
        <ele>90</ele>
        <time>2023-01-07T14:34:42Z</time>
      </trkpt>
      <trkpt lat="49.08571" lon="2.00419">
        <ele>90</ele>
        <time>2023-01-07T14:34:48Z</time>
      </trkpt>
      <trkpt lat="49.08572" lon="2.00415">
        <ele>90</ele>
        <time>2023-01-07T14:34:53Z</time>
      </trkpt>
      <trkpt lat="49.08577" lon="2.00407">
        <ele>89.9</ele>
        <time>2023-01-07T14:34:58Z</time>
      </trkpt>
      <trkpt lat="49.08583" lon="2.00399">
        <ele>90</ele>
        <time>2023-01-07T14:35:03Z</time>
      </trkpt>
      <trkpt lat="49.08589" lon="2.00392">
        <ele>90</ele>
        <time>2023-01-07T14:35:09Z</time>
      </trkpt>
      <trkpt lat="49.0859" lon="2.00381">
        <ele>89.7</ele>
        <time>2023-01-07T14:35:15Z</time>
      </trkpt>
      <trkpt lat="49.08592" lon="2.00379">
        <ele>89.6</ele>
        <time>2023-01-07T14:35:20Z</time>
      </trkpt>
      <trkpt lat="49.08597" lon="2.0038">
        <ele>89.7</ele>
        <time>2023-01-07T14:35:26Z</time>
      </trkpt>
      <trkpt lat="49.08602" lon="2.00375">
        <ele>89.5</ele>
        <time>2023-01-07T14:35:31Z</time>
      </trkpt>
      <trkpt lat="49.0861" lon="2.0037">
        <ele>89.3</ele>
        <time>2023-01-07T14:35:37Z</time>
      </trkpt>
      <trkpt lat="49.08616" lon="2.00367">
        <ele>89.4</ele>
        <time>2023-01-07T14:35:42Z</time>
      </trkpt>
      <trkpt lat="49.08623" lon="2.00365">
        <ele>89.5</ele>
        <time>2023-01-07T14:35:47Z</time>
      </trkpt>
      <trkpt lat="49.08632" lon="2.00361">
        <ele>89.7</ele>
        <time>2023-01-07T14:35:53Z</time>
      </trkpt>
      <trkpt lat="49.0864" lon="2.00359">
        <ele>89.9</ele>
        <time>2023-01-07T14:35:58Z</time>
      </trkpt>
      <trkpt lat="49.08647" lon="2.00355">
        <ele>89.8</ele>
        <time>2023-01-07T14:36:03Z</time>
      </trkpt>
      <trkpt lat="49.08655" lon="2.00352">
        <ele>89.7</ele>
        <time>2023-01-07T14:36:09Z</time>
      </trkpt>
      <trkpt lat="49.08662" lon="2.00348">
        <ele>89.5</ele>
        <time>2023-01-07T14:36:15Z</time>
      </trkpt>
      <trkpt lat="49.0867" lon="2.00345">
        <ele>89.5</ele>
        <time>2023-01-07T14:36:21Z</time>
      </trkpt>
      <trkpt lat="49.08677" lon="2.00341">
        <ele>89.6</ele>
        <time>2023-01-07T14:36:27Z</time>
      </trkpt>
      <trkpt lat="49.08685" lon="2.00338">
        <ele>89.8</ele>
        <time>2023-01-07T14:36:33Z</time>
      </trkpt>
      <trkpt lat="49.08694" lon="2.00335">
        <ele>90.1</ele>
        <time>2023-01-07T14:36:39Z</time>
      </trkpt>
      <trkpt lat="49.08701" lon="2.00332">
        <ele>90</ele>
        <time>2023-01-07T14:36:44Z</time>
      </trkpt>
      <trkpt lat="49.08708" lon="2.00327">
        <ele>89.9</ele>
        <time>2023-01-07T14:36:50Z</time>
      </trkpt>
      <trkpt lat="49.08714" lon="2.00326">
        <ele>89.9</ele>
        <time>2023-01-07T14:36:55Z</time>
      </trkpt>
      <trkpt lat="49.08723" lon="2.00323">
        <ele>90</ele>
        <time>2023-01-07T14:37:01Z</time>
      </trkpt>
      <trkpt lat="49.08729" lon="2.00319">
        <ele>90.1</ele>
        <time>2023-01-07T14:37:06Z</time>
      </trkpt>
      <trkpt lat="49.08738" lon="2.00317">
        <ele>90.2</ele>
        <time>2023-01-07T14:37:12Z</time>
      </trkpt>
      <trkpt lat="49.08745" lon="2.00312">
        <ele>90.2</ele>
        <time>2023-01-07T14:37:17Z</time>
      </trkpt>
      <trkpt lat="49.08752" lon="2.00311">
        <ele>90.2</ele>
        <time>2023-01-07T14:37:23Z</time>
      </trkpt>
      <trkpt lat="49.0876" lon="2.00309">
        <ele>90.1</ele>
        <time>2023-01-07T14:37:29Z</time>
      </trkpt>
      <trkpt lat="49.08767" lon="2.00306">
        <ele>90</ele>
        <time>2023-01-07T14:37:34Z</time>
      </trkpt>
      <trkpt lat="49.08774" lon="2.00302">
        <ele>89.9</ele>
        <time>2023-01-07T14:37:40Z</time>
      </trkpt>
      <trkpt lat="49.08783" lon="2.00299">
        <ele>89.8</ele>
        <time>2023-01-07T14:37:45Z</time>
      </trkpt>
      <trkpt lat="49.08792" lon="2.00292">
        <ele>89.5</ele>
        <time>2023-01-07T14:37:51Z</time>
      </trkpt>
      <trkpt lat="49.088" lon="2.0029">
        <ele>89.5</ele>
        <time>2023-01-07T14:37:57Z</time>
      </trkpt>
      <trkpt lat="49.08807" lon="2.00286">
        <ele>89.3</ele>
        <time>2023-01-07T14:38:02Z</time>
      </trkpt>
      <trkpt lat="49.08814" lon="2.0028">
        <ele>89.3</ele>
        <time>2023-01-07T14:38:08Z</time>
      </trkpt>
      <trkpt lat="49.08821" lon="2.00276">
        <ele>89.5</ele>
        <time>2023-01-07T14:38:14Z</time>
      </trkpt>
      <trkpt lat="49.08828" lon="2.00272">
        <ele>89.6</ele>
        <time>2023-01-07T14:38:19Z</time>
      </trkpt>
      <trkpt lat="49.08835" lon="2.00268">
        <ele>89.7</ele>
        <time>2023-01-07T14:38:24Z</time>
      </trkpt>
      <trkpt lat="49.08843" lon="2.00265">
        <ele>89.5</ele>
        <time>2023-01-07T14:38:29Z</time>
      </trkpt>
      <trkpt lat="49.0885" lon="2.00262">
        <ele>89.4</ele>
        <time>2023-01-07T14:38:34Z</time>
      </trkpt>
      <trkpt lat="49.08862" lon="2.0026">
        <ele>89.4</ele>
        <time>2023-01-07T14:38:40Z</time>
      </trkpt>
      <trkpt lat="49.08872" lon="2.00254">
        <ele>89.5</ele>
        <time>2023-01-07T14:38:47Z</time>
      </trkpt>
      <trkpt lat="49.0888" lon="2.00243">
        <ele>89.5</ele>
        <time>2023-01-07T14:38:53Z</time>
      </trkpt>
      <trkpt lat="49.08884" lon="2.00236">
        <ele>89.4</ele>
        <time>2023-01-07T14:38:59Z</time>
      </trkpt>
      <trkpt lat="49.08889" lon="2.00235">
        <ele>89.4</ele>
        <time>2023-01-07T14:39:04Z</time>
      </trkpt>
      <trkpt lat="49.08894" lon="2.00234">
        <ele>89.5</ele>
        <time>2023-01-07T14:39:09Z</time>
      </trkpt>
      <trkpt lat="49.089" lon="2.00232">
        <ele>89.6</ele>
        <time>2023-01-07T14:39:14Z</time>
      </trkpt>
      <trkpt lat="49.08908" lon="2.00226">
        <ele>89.7</ele>
        <time>2023-01-07T14:39:20Z</time>
      </trkpt>
      <trkpt lat="49.08908" lon="2.00221">
        <ele>89.7</ele>
        <time>2023-01-07T14:39:25Z</time>
      </trkpt>
      <trkpt lat="49.08903" lon="2.0022">
        <ele>89.5</ele>
        <time>2023-01-07T14:39:30Z</time>
      </trkpt>
      <trkpt lat="49.089" lon="2.00219">
        <ele>89.4</ele>
        <time>2023-01-07T14:39:35Z</time>
      </trkpt>
      <trkpt lat="49.08899" lon="2.0022">
        <ele>89.4</ele>
        <time>2023-01-07T14:39:41Z</time>
      </trkpt>
      <trkpt lat="49.08899" lon="2.00219">
        <ele>89.4</ele>
        <time>2023-01-07T14:39:47Z</time>
      </trkpt>
      <trkpt lat="49.089" lon="2.00219">
        <ele>89.4</ele>
        <time>2023-01-07T14:39:52Z</time>
      </trkpt>
      <trkpt lat="49.08898" lon="2.00219">
        <ele>89.3</ele>
        <time>2023-01-07T14:39:58Z</time>
      </trkpt>
      <trkpt lat="49.08892" lon="2.00216">
        <ele>89.1</ele>
        <time>2023-01-07T14:40:04Z</time>
      </trkpt>
      <trkpt lat="49.08884" lon="2.00215">
        <ele>89</ele>
        <time>2023-01-07T14:40:10Z</time>
      </trkpt>
      <trkpt lat="49.08877" lon="2.00213">
        <ele>88.9</ele>
        <time>2023-01-07T14:40:15Z</time>
      </trkpt>
      <trkpt lat="49.08869" lon="2.00212">
        <ele>88.7</ele>
        <time>2023-01-07T14:40:20Z</time>
      </trkpt>
      <trkpt lat="49.08861" lon="2.00212">
        <ele>88.6</ele>
        <time>2023-01-07T14:40:26Z</time>
      </trkpt>
      <trkpt lat="49.08855" lon="2.00209">
        <ele>88.3</ele>
        <time>2023-01-07T14:40:31Z</time>
      </trkpt>
      <trkpt lat="49.08847" lon="2.00206">
        <ele>87.9</ele>
        <time>2023-01-07T14:40:37Z</time>
      </trkpt>
      <trkpt lat="49.0884" lon="2.00203">
        <ele>87.6</ele>
        <time>2023-01-07T14:40:42Z</time>
      </trkpt>
      <trkpt lat="49.08833" lon="2.00202">
        <ele>87.3</ele>
        <time>2023-01-07T14:40:47Z</time>
      </trkpt>
      <trkpt lat="49.08826" lon="2.00199">
        <ele>86.9</ele>
        <time>2023-01-07T14:40:53Z</time>
      </trkpt>
      <trkpt lat="49.08819" lon="2.00194">
        <ele>86.5</ele>
        <time>2023-01-07T14:40:59Z</time>
      </trkpt>
      <trkpt lat="49.08813" lon="2.00189">
        <ele>86.1</ele>
        <time>2023-01-07T14:41:04Z</time>
      </trkpt>
      <trkpt lat="49.08807" lon="2.00183">
        <ele>85.7</ele>
        <time>2023-01-07T14:41:09Z</time>
      </trkpt>
      <trkpt lat="49.08797" lon="2.00175">
        <ele>85.3</ele>
        <time>2023-01-07T14:41:15Z</time>
      </trkpt>
      <trkpt lat="49.08791" lon="2.00173">
        <ele>85.2</ele>
        <time>2023-01-07T14:41:20Z</time>
      </trkpt>
      <trkpt lat="49.08782" lon="2.00169">
        <ele>85.1</ele>
        <time>2023-01-07T14:41:26Z</time>
      </trkpt>
      <trkpt lat="49.08774" lon="2.00167">
        <ele>84.9</ele>
        <time>2023-01-07T14:41:31Z</time>
      </trkpt>
      <trkpt lat="49.08765" lon="2.00162">
        <ele>84.4</ele>
        <time>2023-01-07T14:41:37Z</time>
      </trkpt>
      <trkpt lat="49.08756" lon="2.00159">
        <ele>83.9</ele>
        <time>2023-01-07T14:41:43Z</time>
      </trkpt>
      <trkpt lat="49.08749" lon="2.00157">
        <ele>83.7</ele>
        <time>2023-01-07T14:41:48Z</time>
      </trkpt>
      <trkpt lat="49.08741" lon="2.00153">
        <ele>83.5</ele>
        <time>2023-01-07T14:41:54Z</time>
      </trkpt>
      <trkpt lat="49.08732" lon="2.00147">
        <ele>83.3</ele>
        <time>2023-01-07T14:42:00Z</time>
      </trkpt>
      <trkpt lat="49.08724" lon="2.00142">
        <ele>83.1</ele>
        <time>2023-01-07T14:42:05Z</time>
      </trkpt>
      <trkpt lat="49.08719" lon="2.0014">
        <ele>83</ele>
        <time>2023-01-07T14:42:10Z</time>
      </trkpt>
      <trkpt lat="49.0871" lon="2.00135">
        <ele>82.8</ele>
        <time>2023-01-07T14:42:16Z</time>
      </trkpt>
      <trkpt lat="49.08703" lon="2.00129">
        <ele>82.4</ele>
        <time>2023-01-07T14:42:21Z</time>
      </trkpt>
      <trkpt lat="49.08697" lon="2.00125">
        <ele>82.1</ele>
        <time>2023-01-07T14:42:26Z</time>
      </trkpt>
      <trkpt lat="49.08689" lon="2.00121">
        <ele>81.6</ele>
        <time>2023-01-07T14:42:32Z</time>
      </trkpt>
      <trkpt lat="49.08682" lon="2.00116">
        <ele>81.3</ele>
        <time>2023-01-07T14:42:37Z</time>
      </trkpt>
      <trkpt lat="49.08674" lon="2.0011">
        <ele>81</ele>
        <time>2023-01-07T14:42:43Z</time>
      </trkpt>
      <trkpt lat="49.08668" lon="2.00105">
        <ele>80.8</ele>
        <time>2023-01-07T14:42:48Z</time>
      </trkpt>
      <trkpt lat="49.08662" lon="2.00098">
        <ele>80.3</ele>
        <time>2023-01-07T14:42:53Z</time>
      </trkpt>
      <trkpt lat="49.08656" lon="2.00093">
        <ele>79.9</ele>
        <time>2023-01-07T14:42:58Z</time>
      </trkpt>
      <trkpt lat="49.08648" lon="2.00088">
        <ele>79.5</ele>
        <time>2023-01-07T14:43:04Z</time>
      </trkpt>
      <trkpt lat="49.08641" lon="2.00083">
        <ele>79.1</ele>
        <time>2023-01-07T14:43:09Z</time>
      </trkpt>
      <trkpt lat="49.08633" lon="2.00074">
        <ele>78.7</ele>
        <time>2023-01-07T14:43:15Z</time>
      </trkpt>
      <trkpt lat="49.08627" lon="2.00071">
        <ele>78.5</ele>
        <time>2023-01-07T14:43:20Z</time>
      </trkpt>
      <trkpt lat="49.0862" lon="2.00064">
        <ele>78.3</ele>
        <time>2023-01-07T14:43:26Z</time>
      </trkpt>
      <trkpt lat="49.08611" lon="2.00056">
        <ele>78</ele>
        <time>2023-01-07T14:43:31Z</time>
      </trkpt>
      <trkpt lat="49.08603" lon="2.0005">
        <ele>77.8</ele>
        <time>2023-01-07T14:43:37Z</time>
      </trkpt>
      <trkpt lat="49.08596" lon="2.00046">
        <ele>77.5</ele>
        <time>2023-01-07T14:43:43Z</time>
      </trkpt>
      <trkpt lat="49.08588" lon="2.00041">
        <ele>77</ele>
        <time>2023-01-07T14:43:48Z</time>
      </trkpt>
      <trkpt lat="49.08581" lon="2.00037">
        <ele>76.7</ele>
        <time>2023-01-07T14:43:54Z</time>
      </trkpt>
      <trkpt lat="49.08572" lon="2.00032">
        <ele>76.7</ele>
        <time>2023-01-07T14:44:00Z</time>
      </trkpt>
      <trkpt lat="49.08564" lon="2.00028">
        <ele>76.7</ele>
        <time>2023-01-07T14:44:05Z</time>
      </trkpt>
      <trkpt lat="49.08557" lon="2.00026">
        <ele>76.8</ele>
        <time>2023-01-07T14:44:11Z</time>
      </trkpt>
      <trkpt lat="49.08548" lon="2.00024">
        <ele>76.7</ele>
        <time>2023-01-07T14:44:17Z</time>
      </trkpt>
      <trkpt lat="49.0854" lon="2.00023">
        <ele>76.7</ele>
        <time>2023-01-07T14:44:22Z</time>
      </trkpt>
      <trkpt lat="49.08533" lon="2.00023">
        <ele>76.6</ele>
        <time>2023-01-07T14:44:28Z</time>
      </trkpt>
      <trkpt lat="49.08525" lon="2.00022">
        <ele>76.5</ele>
        <time>2023-01-07T14:44:34Z</time>
      </trkpt>
      <trkpt lat="49.08516" lon="2.00019">
        <ele>76.1</ele>
        <time>2023-01-07T14:44:39Z</time>
      </trkpt>
      <trkpt lat="49.08506" lon="2.00019">
        <ele>75.8</ele>
        <time>2023-01-07T14:44:45Z</time>
      </trkpt>
      <trkpt lat="49.085" lon="2.00015">
        <ele>75.5</ele>
        <time>2023-01-07T14:44:50Z</time>
      </trkpt>
      <trkpt lat="49.0849" lon="2.00014">
        <ele>75.3</ele>
        <time>2023-01-07T14:44:56Z</time>
      </trkpt>
      <trkpt lat="49.08481" lon="2.00014">
        <ele>75.2</ele>
        <time>2023-01-07T14:45:01Z</time>
      </trkpt>
      <trkpt lat="49.08474" lon="2.00014">
        <ele>75.1</ele>
        <time>2023-01-07T14:45:07Z</time>
      </trkpt>
      <trkpt lat="49.08466" lon="2.00014">
        <ele>75.1</ele>
        <time>2023-01-07T14:45:12Z</time>
      </trkpt>
      <trkpt lat="49.08457" lon="2.00012">
        <ele>75.1</ele>
        <time>2023-01-07T14:45:18Z</time>
      </trkpt>
      <trkpt lat="49.08453" lon="2.00008">
        <ele>74.5</ele>
        <time>2023-01-07T14:45:23Z</time>
      </trkpt>
      <trkpt lat="49.08451" lon="1.99997">
        <ele>72.6</ele>
        <time>2023-01-07T14:45:29Z</time>
      </trkpt>
      <trkpt lat="49.08452" lon="1.99989">
        <ele>71.2</ele>
        <time>2023-01-07T14:45:34Z</time>
      </trkpt>
      <trkpt lat="49.0845" lon="1.99986">
        <ele>70.4</ele>
        <time>2023-01-07T14:45:40Z</time>
      </trkpt>
      <trkpt lat="49.08452" lon="1.99983">
        <ele>70.1</ele>
        <time>2023-01-07T14:45:45Z</time>
      </trkpt>
      <trkpt lat="49.08454" lon="1.99985">
        <ele>70.6</ele>
        <time>2023-01-07T14:45:51Z</time>
      </trkpt>
      <trkpt lat="49.0846" lon="1.99986">
        <ele>71.4</ele>
        <time>2023-01-07T14:45:56Z</time>
      </trkpt>
      <trkpt lat="49.08459" lon="1.99985">
        <ele>71.1</ele>
        <time>2023-01-07T14:46:02Z</time>
      </trkpt>
      <trkpt lat="49.08458" lon="1.99988">
        <ele>71.5</ele>
        <time>2023-01-07T14:46:07Z</time>
      </trkpt>
      <trkpt lat="49.08456" lon="1.99995">
        <ele>72.6</ele>
        <time>2023-01-07T14:46:13Z</time>
      </trkpt>
      <trkpt lat="49.08452" lon="2">
        <ele>73.2</ele>
        <time>2023-01-07T14:46:19Z</time>
      </trkpt>
      <trkpt lat="49.08449" lon="2.00008">
        <ele>74.4</ele>
        <time>2023-01-07T14:46:24Z</time>
      </trkpt>
      <trkpt lat="49.08443" lon="2.00018">
        <ele>76.1</ele>
        <time>2023-01-07T14:46:30Z</time>
      </trkpt>
      <trkpt lat="49.08442" lon="2.00027">
        <ele>77.5</ele>
        <time>2023-01-07T14:46:36Z</time>
      </trkpt>
      <trkpt lat="49.08442" lon="2.00028">
        <ele>77.7</ele>
        <time>2023-01-07T14:46:41Z</time>
      </trkpt>
      <trkpt lat="49.08444" lon="2.00026">
        <ele>77.6</ele>
        <time>2023-01-07T14:46:46Z</time>
      </trkpt>
      <trkpt lat="49.08445" lon="2.00024">
        <ele>77.3</ele>
        <time>2023-01-07T14:46:52Z</time>
      </trkpt>
      <trkpt lat="49.08445" lon="2.00024">
        <ele>77.2</ele>
        <time>2023-01-07T14:46:58Z</time>
      </trkpt>
      <trkpt lat="49.08445" lon="2.00023">
        <ele>77.2</ele>
        <time>2023-01-07T14:47:04Z</time>
      </trkpt>
      <trkpt lat="49.08445" lon="2.00021">
        <ele>76.7</ele>
        <time>2023-01-07T14:47:10Z</time>
      </trkpt>
      <trkpt lat="49.08446" lon="2.00019">
        <ele>76.4</ele>
        <time>2023-01-07T14:47:15Z</time>
      </trkpt>
      <trkpt lat="49.08446" lon="2.00016">
        <ele>75.9</ele>
        <time>2023-01-07T14:47:21Z</time>
      </trkpt>
      <trkpt lat="49.08447" lon="2.00015">
        <ele>75.7</ele>
        <time>2023-01-07T14:47:27Z</time>
      </trkpt>
      <trkpt lat="49.08447" lon="2.00015">
        <ele>75.6</ele>
        <time>2023-01-07T14:47:33Z</time>
      </trkpt>
      <trkpt lat="49.08447" lon="2.00014">
        <ele>75.5</ele>
        <time>2023-01-07T14:47:39Z</time>
      </trkpt>
      <trkpt lat="49.08447" lon="2.00014">
        <ele>75.4</ele>
        <time>2023-01-07T14:47:45Z</time>
      </trkpt>
      <trkpt lat="49.08447" lon="2.00013">
        <ele>75.4</ele>
        <time>2023-01-07T14:47:50Z</time>
      </trkpt>
      <trkpt lat="49.08447" lon="2.00013">
        <ele>75.4</ele>
        <time>2023-01-07T14:47:55Z</time>
      </trkpt>
      <trkpt lat="49.08447" lon="2.00013">
        <ele>75.4</ele>
        <time>2023-01-07T14:48:01Z</time>
      </trkpt>
      <trkpt lat="49.08447" lon="2.00012">
        <ele>75.2</ele>
        <time>2023-01-07T14:48:07Z</time>
      </trkpt>
      <trkpt lat="49.08447" lon="2.00011">
        <ele>74.9</ele>
        <time>2023-01-07T14:48:13Z</time>
      </trkpt>
      <trkpt lat="49.08447" lon="2.0001">
        <ele>74.8</ele>
        <time>2023-01-07T14:48:18Z</time>
      </trkpt>
      <trkpt lat="49.08447" lon="2.0001">
        <ele>74.8</ele>
        <time>2023-01-07T14:48:24Z</time>
      </trkpt>
      <trkpt lat="49.08447" lon="2.0001">
        <ele>74.8</ele>
        <time>2023-01-07T14:48:29Z</time>
      </trkpt>
      <trkpt lat="49.08447" lon="2.0001">
        <ele>74.7</ele>
        <time>2023-01-07T14:48:35Z</time>
      </trkpt>
      <trkpt lat="49.08447" lon="2.0001">
        <ele>74.8</ele>
        <time>2023-01-07T14:48:41Z</time>
      </trkpt>
      <trkpt lat="49.08447" lon="2.0001">
        <ele>74.8</ele>
        <time>2023-01-07T14:48:46Z</time>
      </trkpt>
      <trkpt lat="49.08447" lon="2.0001">
        <ele>74.7</ele>
        <time>2023-01-07T14:48:51Z</time>
      </trkpt>
      <trkpt lat="49.08447" lon="2.0001">
        <ele>74.7</ele>
        <time>2023-01-07T14:48:57Z</time>
      </trkpt>
      <trkpt lat="49.08447" lon="2.00008">
        <ele>74.5</ele>
        <time>2023-01-07T14:49:02Z</time>
      </trkpt>
      <trkpt lat="49.08447" lon="2.00009">
        <ele>74.7</ele>
        <time>2023-01-07T14:49:07Z</time>
      </trkpt>
      <trkpt lat="49.08447" lon="2.0001">
        <ele>74.8</ele>
        <time>2023-01-07T14:49:12Z</time>
      </trkpt>
      <trkpt lat="49.08447" lon="2.0001">
        <ele>74.8</ele>
        <time>2023-01-07T14:49:18Z</time>
      </trkpt>
      <trkpt lat="49.08447" lon="2.0001">
        <ele>74.9</ele>
        <time>2023-01-07T14:49:23Z</time>
      </trkpt>
      <trkpt lat="49.08447" lon="2.0001">
        <ele>74.9</ele>
        <time>2023-01-07T14:49:29Z</time>
      </trkpt>
      <trkpt lat="49.08447" lon="2.0001">
        <ele>74.9</ele>
        <time>2023-01-07T14:49:34Z</time>
      </trkpt>
      <trkpt lat="49.08446" lon="2.0001">
        <ele>74.8</ele>
        <time>2023-01-07T14:49:39Z</time>
      </trkpt>
      <trkpt lat="49.08447" lon="2.00011">
        <ele>75</ele>
        <time>2023-01-07T14:49:45Z</time>
      </trkpt>
      <trkpt lat="49.08447" lon="2.00011">
        <ele>75</ele>
        <time>2023-01-07T14:49:50Z</time>
      </trkpt>
      <trkpt lat="49.08447" lon="2.00012">
        <ele>75.1</ele>
        <time>2023-01-07T14:49:55Z</time>
      </trkpt>
      <trkpt lat="49.08447" lon="2.00013">
        <ele>75.3</ele>
        <time>2023-01-07T14:50:01Z</time>
      </trkpt>
      <trkpt lat="49.08446" lon="2.00013">
        <ele>75.3</ele>
        <time>2023-01-07T14:50:06Z</time>
      </trkpt>
      <trkpt lat="49.08446" lon="2.00013">
        <ele>75.3</ele>
        <time>2023-01-07T14:50:11Z</time>
      </trkpt>
      <trkpt lat="49.08446" lon="2.00013">
        <ele>75.3</ele>
        <time>2023-01-07T14:50:17Z</time>
      </trkpt>
      <trkpt lat="49.08445" lon="2.00013">
        <ele>75.4</ele>
        <time>2023-01-07T14:50:23Z</time>
      </trkpt>
      <trkpt lat="49.08445" lon="2.00013">
        <ele>75.4</ele>
        <time>2023-01-07T14:50:29Z</time>
      </trkpt>
      <trkpt lat="49.08445" lon="2.00013">
        <ele>75.4</ele>
        <time>2023-01-07T14:50:35Z</time>
      </trkpt>
      <trkpt lat="49.08445" lon="2.00013">
        <ele>75.4</ele>
        <time>2023-01-07T14:50:41Z</time>
      </trkpt>
      <trkpt lat="49.08445" lon="2.00013">
        <ele>75.4</ele>
        <time>2023-01-07T14:50:46Z</time>
      </trkpt>
      <trkpt lat="49.08441" lon="2.00012">
        <ele>74.8</ele>
        <time>2023-01-07T14:50:52Z</time>
      </trkpt>
      <trkpt lat="49.08434" lon="2.00012">
        <ele>73.9</ele>
        <time>2023-01-07T14:50:58Z</time>
      </trkpt>
      <trkpt lat="49.08429" lon="2.00013">
        <ele>73.5</ele>
        <time>2023-01-07T14:51:03Z</time>
      </trkpt>
      <trkpt lat="49.0842" lon="2.00013">
        <ele>72.4</ele>
        <time>2023-01-07T14:51:09Z</time>
      </trkpt>
      <trkpt lat="49.08413" lon="2.00015">
        <ele>71.7</ele>
        <time>2023-01-07T14:51:14Z</time>
      </trkpt>
      <trkpt lat="49.08406" lon="2.00016">
        <ele>71</ele>
        <time>2023-01-07T14:51:20Z</time>
      </trkpt>
      <trkpt lat="49.08399" lon="2.00019">
        <ele>70.6</ele>
        <time>2023-01-07T14:51:25Z</time>
      </trkpt>
      <trkpt lat="49.08392" lon="2.00024">
        <ele>70.5</ele>
        <time>2023-01-07T14:51:31Z</time>
      </trkpt>
      <trkpt lat="49.0839" lon="2.00025">
        <ele>70.5</ele>
        <time>2023-01-07T14:51:36Z</time>
      </trkpt>
      <trkpt lat="49.08386" lon="2.00027">
        <ele>70.5</ele>
        <time>2023-01-07T14:51:42Z</time>
      </trkpt>
      <trkpt lat="49.08378" lon="2.00029">
        <ele>69.6</ele>
        <time>2023-01-07T14:51:47Z</time>
      </trkpt>
      <trkpt lat="49.08369" lon="2.00031">
        <ele>68.7</ele>
        <time>2023-01-07T14:51:53Z</time>
      </trkpt>
      <trkpt lat="49.08363" lon="2.00035">
        <ele>68.5</ele>
        <time>2023-01-07T14:51:59Z</time>
      </trkpt>
      <trkpt lat="49.08356" lon="2.00039">
        <ele>68.2</ele>
        <time>2023-01-07T14:52:04Z</time>
      </trkpt>
      <trkpt lat="49.08351" lon="2.00042">
        <ele>67.8</ele>
        <time>2023-01-07T14:52:09Z</time>
      </trkpt>
      <trkpt lat="49.08343" lon="2.00045">
        <ele>67.2</ele>
        <time>2023-01-07T14:52:15Z</time>
      </trkpt>
      <trkpt lat="49.08335" lon="2.00049">
        <ele>66.8</ele>
        <time>2023-01-07T14:52:21Z</time>
      </trkpt>
      <trkpt lat="49.08326" lon="2.00053">
        <ele>66</ele>
        <time>2023-01-07T14:52:27Z</time>
      </trkpt>
      <trkpt lat="49.08318" lon="2.00058">
        <ele>65</ele>
        <time>2023-01-07T14:52:33Z</time>
      </trkpt>
      <trkpt lat="49.08311" lon="2.00063">
        <ele>64.1</ele>
        <time>2023-01-07T14:52:38Z</time>
      </trkpt>
      <trkpt lat="49.08303" lon="2.00069">
        <ele>62.7</ele>
        <time>2023-01-07T14:52:44Z</time>
      </trkpt>
      <trkpt lat="49.08296" lon="2.00073">
        <ele>61.3</ele>
        <time>2023-01-07T14:52:49Z</time>
      </trkpt>
      <trkpt lat="49.08286" lon="2.00081">
        <ele>59.8</ele>
        <time>2023-01-07T14:52:56Z</time>
      </trkpt>
      <trkpt lat="49.08279" lon="2.00088">
        <ele>58.6</ele>
        <time>2023-01-07T14:53:01Z</time>
      </trkpt>
      <trkpt lat="49.08272" lon="2.00098">
        <ele>56.9</ele>
        <time>2023-01-07T14:53:07Z</time>
      </trkpt>
      <trkpt lat="49.08268" lon="2.00109">
        <ele>56.5</ele>
        <time>2023-01-07T14:53:12Z</time>
      </trkpt>
      <trkpt lat="49.08262" lon="2.00121">
        <ele>56.1</ele>
        <time>2023-01-07T14:53:18Z</time>
      </trkpt>
      <trkpt lat="49.08258" lon="2.0013">
        <ele>56</ele>
        <time>2023-01-07T14:53:23Z</time>
      </trkpt>
      <trkpt lat="49.08254" lon="2.0014">
        <ele>56.4</ele>
        <time>2023-01-07T14:53:29Z</time>
      </trkpt>
      <trkpt lat="49.08252" lon="2.00153">
        <ele>57.2</ele>
        <time>2023-01-07T14:53:35Z</time>
      </trkpt>
      <trkpt lat="49.08251" lon="2.00167">
        <ele>58.3</ele>
        <time>2023-01-07T14:53:41Z</time>
      </trkpt>
      <trkpt lat="49.08249" lon="2.00182">
        <ele>59</ele>
        <time>2023-01-07T14:53:47Z</time>
      </trkpt>
      <trkpt lat="49.08249" lon="2.00194">
        <ele>59.7</ele>
        <time>2023-01-07T14:53:53Z</time>
      </trkpt>
      <trkpt lat="49.08248" lon="2.00208">
        <ele>61.2</ele>
        <time>2023-01-07T14:53:59Z</time>
      </trkpt>
      <trkpt lat="49.08248" lon="2.0022">
        <ele>62.5</ele>
        <time>2023-01-07T14:54:05Z</time>
      </trkpt>
      <trkpt lat="49.08247" lon="2.0023">
        <ele>63.1</ele>
        <time>2023-01-07T14:54:11Z</time>
      </trkpt>
      <trkpt lat="49.08247" lon="2.00235">
        <ele>63.4</ele>
        <time>2023-01-07T14:54:17Z</time>
      </trkpt>
      <trkpt lat="49.08246" lon="2.00241">
        <ele>63.7</ele>
        <time>2023-01-07T14:54:23Z</time>
      </trkpt>
      <trkpt lat="49.08244" lon="2.00246">
        <ele>63.9</ele>
        <time>2023-01-07T14:54:28Z</time>
      </trkpt>
      <trkpt lat="49.08243" lon="2.00256">
        <ele>64.3</ele>
        <time>2023-01-07T14:54:34Z</time>
      </trkpt>
      <trkpt lat="49.0824" lon="2.00265">
        <ele>64.5</ele>
        <time>2023-01-07T14:54:39Z</time>
      </trkpt>
      <trkpt lat="49.08238" lon="2.00277">
        <ele>64.8</ele>
        <time>2023-01-07T14:54:45Z</time>
      </trkpt>
      <trkpt lat="49.08238" lon="2.00289">
        <ele>65.2</ele>
        <time>2023-01-07T14:54:51Z</time>
      </trkpt>
      <trkpt lat="49.08238" lon="2.00299">
        <ele>65.7</ele>
        <time>2023-01-07T14:54:57Z</time>
      </trkpt>
      <trkpt lat="49.08237" lon="2.00313">
        <ele>65.7</ele>
        <time>2023-01-07T14:55:04Z</time>
      </trkpt>
      <trkpt lat="49.08236" lon="2.00322">
        <ele>65.4</ele>
        <time>2023-01-07T14:55:09Z</time>
      </trkpt>
      <trkpt lat="49.08233" lon="2.00336">
        <ele>65</ele>
        <time>2023-01-07T14:55:15Z</time>
      </trkpt>
      <trkpt lat="49.08234" lon="2.00347">
        <ele>64.9</ele>
        <time>2023-01-07T14:55:21Z</time>
      </trkpt>
      <trkpt lat="49.08233" lon="2.00358">
        <ele>64.5</ele>
        <time>2023-01-07T14:55:27Z</time>
      </trkpt>
      <trkpt lat="49.08233" lon="2.00368">
        <ele>64.5</ele>
        <time>2023-01-07T14:55:33Z</time>
      </trkpt>
      <trkpt lat="49.08233" lon="2.0038">
        <ele>64.6</ele>
        <time>2023-01-07T14:55:39Z</time>
      </trkpt>
      <trkpt lat="49.08234" lon="2.0039">
        <ele>64.7</ele>
        <time>2023-01-07T14:55:45Z</time>
      </trkpt>
      <trkpt lat="49.08233" lon="2.00398">
        <ele>64.4</ele>
        <time>2023-01-07T14:55:50Z</time>
      </trkpt>
      <trkpt lat="49.08229" lon="2.00397">
        <ele>63.8</ele>
        <time>2023-01-07T14:55:55Z</time>
      </trkpt>
      <trkpt lat="49.08224" lon="2.00396">
        <ele>63.2</ele>
        <time>2023-01-07T14:56:01Z</time>
      </trkpt>
      <trkpt lat="49.08218" lon="2.00395">
        <ele>62.2</ele>
        <time>2023-01-07T14:56:07Z</time>
      </trkpt>
      <trkpt lat="49.0822" lon="2.00396">
        <ele>62.5</ele>
        <time>2023-01-07T14:56:12Z</time>
      </trkpt>
      <trkpt lat="49.08223" lon="2.00398">
        <ele>63.1</ele>
        <time>2023-01-07T14:56:18Z</time>
      </trkpt>
      <trkpt lat="49.08228" lon="2.004">
        <ele>63.7</ele>
        <time>2023-01-07T14:56:24Z</time>
      </trkpt>
      <trkpt lat="49.08231" lon="2.00406">
        <ele>64.1</ele>
        <time>2023-01-07T14:56:30Z</time>
      </trkpt>
      <trkpt lat="49.08234" lon="2.00421">
        <ele>64.3</ele>
        <time>2023-01-07T14:56:36Z</time>
      </trkpt>
      <trkpt lat="49.08236" lon="2.00432">
        <ele>64.7</ele>
        <time>2023-01-07T14:56:41Z</time>
      </trkpt>
      <trkpt lat="49.08235" lon="2.00443">
        <ele>64.9</ele>
        <time>2023-01-07T14:56:46Z</time>
      </trkpt>
      <trkpt lat="49.08232" lon="2.00453">
        <ele>64.4</ele>
        <time>2023-01-07T14:56:52Z</time>
      </trkpt>
      <trkpt lat="49.08228" lon="2.00453">
        <ele>63.8</ele>
        <time>2023-01-07T14:56:57Z</time>
      </trkpt>
      <trkpt lat="49.08223" lon="2.00455">
        <ele>63.1</ele>
        <time>2023-01-07T14:57:03Z</time>
      </trkpt>
      <trkpt lat="49.08218" lon="2.00454">
        <ele>62.2</ele>
        <time>2023-01-07T14:57:08Z</time>
      </trkpt>
      <trkpt lat="49.08212" lon="2.00452">
        <ele>60.9</ele>
        <time>2023-01-07T14:57:13Z</time>
      </trkpt>
      <trkpt lat="49.08207" lon="2.00455">
        <ele>59.7</ele>
        <time>2023-01-07T14:57:18Z</time>
      </trkpt>
      <trkpt lat="49.08199" lon="2.00457">
        <ele>58.1</ele>
        <time>2023-01-07T14:57:23Z</time>
      </trkpt>
      <trkpt lat="49.08193" lon="2.00456">
        <ele>56.6</ele>
        <time>2023-01-07T14:57:28Z</time>
      </trkpt>
      <trkpt lat="49.08189" lon="2.00451">
        <ele>55.9</ele>
        <time>2023-01-07T14:57:34Z</time>
      </trkpt>
      <trkpt lat="49.08182" lon="2.00448">
        <ele>54.3</ele>
        <time>2023-01-07T14:57:40Z</time>
      </trkpt>
      <trkpt lat="49.08173" lon="2.00445">
        <ele>52.4</ele>
        <time>2023-01-07T14:57:46Z</time>
      </trkpt>
      <trkpt lat="49.08168" lon="2.00446">
        <ele>51.2</ele>
        <time>2023-01-07T14:57:52Z</time>
      </trkpt>
      <trkpt lat="49.08163" lon="2.00444">
        <ele>50.3</ele>
        <time>2023-01-07T14:57:57Z</time>
      </trkpt>
      <trkpt lat="49.08156" lon="2.00445">
        <ele>49.2</ele>
        <time>2023-01-07T14:58:03Z</time>
      </trkpt>
      <trkpt lat="49.08153" lon="2.00443">
        <ele>48.6</ele>
        <time>2023-01-07T14:58:08Z</time>
      </trkpt>
      <trkpt lat="49.08146" lon="2.0044">
        <ele>47.2</ele>
        <time>2023-01-07T14:58:14Z</time>
      </trkpt>
      <trkpt lat="49.08138" lon="2.00442">
        <ele>45.9</ele>
        <time>2023-01-07T14:58:19Z</time>
      </trkpt>
      <trkpt lat="49.08127" lon="2.00442">
        <ele>44.8</ele>
        <time>2023-01-07T14:58:25Z</time>
      </trkpt>
      <trkpt lat="49.08118" lon="2.00441">
        <ele>43.7</ele>
        <time>2023-01-07T14:58:31Z</time>
      </trkpt>
      <trkpt lat="49.08111" lon="2.00441">
        <ele>43</ele>
        <time>2023-01-07T14:58:36Z</time>
      </trkpt>
      <trkpt lat="49.08104" lon="2.00438">
        <ele>42.7</ele>
        <time>2023-01-07T14:58:42Z</time>
      </trkpt>
      <trkpt lat="49.081" lon="2.00436">
        <ele>42.6</ele>
        <time>2023-01-07T14:58:47Z</time>
      </trkpt>
      <trkpt lat="49.08094" lon="2.00433">
        <ele>42.4</ele>
        <time>2023-01-07T14:58:52Z</time>
      </trkpt>
      <trkpt lat="49.08086" lon="2.00429">
        <ele>42.1</ele>
        <time>2023-01-07T14:58:58Z</time>
      </trkpt>
      <trkpt lat="49.08082" lon="2.00428">
        <ele>42</ele>
        <time>2023-01-07T14:59:03Z</time>
      </trkpt>
      <trkpt lat="49.08076" lon="2.00425">
        <ele>41.9</ele>
        <time>2023-01-07T14:59:08Z</time>
      </trkpt>
      <trkpt lat="49.08068" lon="2.00417">
        <ele>42</ele>
        <time>2023-01-07T14:59:14Z</time>
      </trkpt>
      <trkpt lat="49.08061" lon="2.00411">
        <ele>42</ele>
        <time>2023-01-07T14:59:20Z</time>
      </trkpt>
      <trkpt lat="49.08056" lon="2.00405">
        <ele>42</ele>
        <time>2023-01-07T14:59:25Z</time>
      </trkpt>
      <trkpt lat="49.0805" lon="2.00398">
        <ele>42</ele>
        <time>2023-01-07T14:59:31Z</time>
      </trkpt>
      <trkpt lat="49.08045" lon="2.00392">
        <ele>42</ele>
        <time>2023-01-07T14:59:37Z</time>
      </trkpt>
      <trkpt lat="49.08039" lon="2.00386">
        <ele>42</ele>
        <time>2023-01-07T14:59:43Z</time>
      </trkpt>
      <trkpt lat="49.08033" lon="2.00381">
        <ele>42</ele>
        <time>2023-01-07T14:59:49Z</time>
      </trkpt>
      <trkpt lat="49.08027" lon="2.00375">
        <ele>42</ele>
        <time>2023-01-07T14:59:55Z</time>
      </trkpt>
      <trkpt lat="49.08021" lon="2.00371">
        <ele>41.9</ele>
        <time>2023-01-07T15:00:01Z</time>
      </trkpt>
      <trkpt lat="49.08015" lon="2.00365">
        <ele>41.9</ele>
        <time>2023-01-07T15:00:06Z</time>
      </trkpt>
      <trkpt lat="49.08009" lon="2.00358">
        <ele>42</ele>
        <time>2023-01-07T15:00:11Z</time>
      </trkpt>
      <trkpt lat="49.08003" lon="2.00351">
        <ele>42</ele>
        <time>2023-01-07T15:00:17Z</time>
      </trkpt>
      <trkpt lat="49.07998" lon="2.00346">
        <ele>42</ele>
        <time>2023-01-07T15:00:22Z</time>
      </trkpt>
      <trkpt lat="49.07992" lon="2.00342">
        <ele>42</ele>
        <time>2023-01-07T15:00:27Z</time>
      </trkpt>
      <trkpt lat="49.07991" lon="2.00342">
        <ele>42</ele>
        <time>2023-01-07T15:00:33Z</time>
      </trkpt>
      <trkpt lat="49.07995" lon="2.00339">
        <ele>42</ele>
        <time>2023-01-07T15:00:39Z</time>
      </trkpt>
      <trkpt lat="49.08003" lon="2.00341">
        <ele>42</ele>
        <time>2023-01-07T15:00:45Z</time>
      </trkpt>
      <trkpt lat="49.08003" lon="2.00338">
        <ele>42</ele>
        <time>2023-01-07T15:00:50Z</time>
      </trkpt>
      <trkpt lat="49.08002" lon="2.00338">
        <ele>42</ele>
        <time>2023-01-07T15:00:56Z</time>
      </trkpt>
      <trkpt lat="49.08001" lon="2.00338">
        <ele>42</ele>
        <time>2023-01-07T15:01:01Z</time>
      </trkpt>
      <trkpt lat="49.07995" lon="2.00336">
        <ele>42</ele>
        <time>2023-01-07T15:01:07Z</time>
      </trkpt>
      <trkpt lat="49.07992" lon="2.0034">
        <ele>42</ele>
        <time>2023-01-07T15:01:13Z</time>
      </trkpt>
      <trkpt lat="49.07991" lon="2.00341">
        <ele>42</ele>
        <time>2023-01-07T15:01:18Z</time>
      </trkpt>
      <trkpt lat="49.07991" lon="2.00342">
        <ele>42</ele>
        <time>2023-01-07T15:01:24Z</time>
      </trkpt>
      <trkpt lat="49.0799" lon="2.00342">
        <ele>42</ele>
        <time>2023-01-07T15:01:30Z</time>
      </trkpt>
      <trkpt lat="49.0799" lon="2.00341">
        <ele>42</ele>
        <time>2023-01-07T15:01:36Z</time>
      </trkpt>
      <trkpt lat="49.0799" lon="2.00341">
        <ele>42</ele>
        <time>2023-01-07T15:01:42Z</time>
      </trkpt>
      <trkpt lat="49.07987" lon="2.00333">
        <ele>42</ele>
        <time>2023-01-07T15:01:47Z</time>
      </trkpt>
      <trkpt lat="49.07985" lon="2.00328">
        <ele>42</ele>
        <time>2023-01-07T15:01:52Z</time>
      </trkpt>
      <trkpt lat="49.07981" lon="2.00321">
        <ele>42</ele>
        <time>2023-01-07T15:01:58Z</time>
      </trkpt>
      <trkpt lat="49.07972" lon="2.00315">
        <ele>42</ele>
        <time>2023-01-07T15:02:04Z</time>
      </trkpt>
      <trkpt lat="49.07964" lon="2.0031">
        <ele>42</ele>
        <time>2023-01-07T15:02:10Z</time>
      </trkpt>
      <trkpt lat="49.07958" lon="2.00306">
        <ele>42</ele>
        <time>2023-01-07T15:02:16Z</time>
      </trkpt>
      <trkpt lat="49.07953" lon="2.003">
        <ele>41.9</ele>
        <time>2023-01-07T15:02:21Z</time>
      </trkpt>
      <trkpt lat="49.07946" lon="2.00292">
        <ele>42</ele>
        <time>2023-01-07T15:02:27Z</time>
      </trkpt>
      <trkpt lat="49.07941" lon="2.00287">
        <ele>42.1</ele>
        <time>2023-01-07T15:02:32Z</time>
      </trkpt>
      <trkpt lat="49.07934" lon="2.00285">
        <ele>42.4</ele>
        <time>2023-01-07T15:02:38Z</time>
      </trkpt>
      <trkpt lat="49.07927" lon="2.00283">
        <ele>42.6</ele>
        <time>2023-01-07T15:02:44Z</time>
      </trkpt>
      <trkpt lat="49.0792" lon="2.0028">
        <ele>42.9</ele>
        <time>2023-01-07T15:02:50Z</time>
      </trkpt>
      <trkpt lat="49.07916" lon="2.00282">
        <ele>43.1</ele>
        <time>2023-01-07T15:02:55Z</time>
      </trkpt>
      <trkpt lat="49.07915" lon="2.00284">
        <ele>43.1</ele>
        <time>2023-01-07T15:03:00Z</time>
      </trkpt>
      <trkpt lat="49.0791" lon="2.00288">
        <ele>43.5</ele>
        <time>2023-01-07T15:03:06Z</time>
      </trkpt>
      <trkpt lat="49.07903" lon="2.0029">
        <ele>44</ele>
        <time>2023-01-07T15:03:12Z</time>
      </trkpt>
      <trkpt lat="49.07896" lon="2.00293">
        <ele>44.5</ele>
        <time>2023-01-07T15:03:17Z</time>
      </trkpt>
      <trkpt lat="49.07888" lon="2.00295">
        <ele>45</ele>
        <time>2023-01-07T15:03:23Z</time>
      </trkpt>
      <trkpt lat="49.07881" lon="2.00298">
        <ele>45.1</ele>
        <time>2023-01-07T15:03:29Z</time>
      </trkpt>
      <trkpt lat="49.07873" lon="2.00303">
        <ele>45</ele>
        <time>2023-01-07T15:03:35Z</time>
      </trkpt>
      <trkpt lat="49.07865" lon="2.00309">
        <ele>45</ele>
        <time>2023-01-07T15:03:41Z</time>
      </trkpt>
      <trkpt lat="49.0786" lon="2.00311">
        <ele>45</ele>
        <time>2023-01-07T15:03:46Z</time>
      </trkpt>
      <trkpt lat="49.07853" lon="2.00316">
        <ele>45</ele>
        <time>2023-01-07T15:03:52Z</time>
      </trkpt>
      <trkpt lat="49.07847" lon="2.00322">
        <ele>45</ele>
        <time>2023-01-07T15:03:57Z</time>
      </trkpt>
      <trkpt lat="49.07841" lon="2.00328">
        <ele>45</ele>
        <time>2023-01-07T15:04:03Z</time>
      </trkpt>
      <trkpt lat="49.07836" lon="2.00329">
        <ele>45</ele>
        <time>2023-01-07T15:04:08Z</time>
      </trkpt>
      <trkpt lat="49.07828" lon="2.00333">
        <ele>45</ele>
        <time>2023-01-07T15:04:14Z</time>
      </trkpt>
      <trkpt lat="49.07821" lon="2.00336">
        <ele>44.9</ele>
        <time>2023-01-07T15:04:20Z</time>
      </trkpt>
      <trkpt lat="49.07814" lon="2.00337">
        <ele>44.9</ele>
        <time>2023-01-07T15:04:25Z</time>
      </trkpt>
      <trkpt lat="49.07811" lon="2.00331">
        <ele>45</ele>
        <time>2023-01-07T15:04:30Z</time>
      </trkpt>
      <trkpt lat="49.07811" lon="2.0032">
        <ele>45</ele>
        <time>2023-01-07T15:04:36Z</time>
      </trkpt>
      <trkpt lat="49.07811" lon="2.00304">
        <ele>45</ele>
        <time>2023-01-07T15:04:42Z</time>
      </trkpt>
      <trkpt lat="49.07808" lon="2.00292">
        <ele>45</ele>
        <time>2023-01-07T15:04:48Z</time>
      </trkpt>
      <trkpt lat="49.07806" lon="2.00281">
        <ele>45</ele>
        <time>2023-01-07T15:04:53Z</time>
      </trkpt>
      <trkpt lat="49.07804" lon="2.00267">
        <ele>45.1</ele>
        <time>2023-01-07T15:04:59Z</time>
      </trkpt>
      <trkpt lat="49.07801" lon="2.00259">
        <ele>45.3</ele>
        <time>2023-01-07T15:05:04Z</time>
      </trkpt>
      <trkpt lat="49.07797" lon="2.00252">
        <ele>45.6</ele>
        <time>2023-01-07T15:05:09Z</time>
      </trkpt>
      <trkpt lat="49.07794" lon="2.0024">
        <ele>46.1</ele>
        <time>2023-01-07T15:05:15Z</time>
      </trkpt>
      <trkpt lat="49.07794" lon="2.00229">
        <ele>46.3</ele>
        <time>2023-01-07T15:05:20Z</time>
      </trkpt>
      <trkpt lat="49.07793" lon="2.00218">
        <ele>46.5</ele>
        <time>2023-01-07T15:05:26Z</time>
      </trkpt>
      <trkpt lat="49.07788" lon="2.00208">
        <ele>46.8</ele>
        <time>2023-01-07T15:05:31Z</time>
      </trkpt>
      <trkpt lat="49.07785" lon="2.00199">
        <ele>47</ele>
        <time>2023-01-07T15:05:36Z</time>
      </trkpt>
      <trkpt lat="49.07786" lon="2.00192">
        <ele>47.1</ele>
        <time>2023-01-07T15:05:42Z</time>
      </trkpt>
      <trkpt lat="49.0779" lon="2.00188">
        <ele>47.4</ele>
        <time>2023-01-07T15:05:47Z</time>
      </trkpt>
      <trkpt lat="49.07795" lon="2.00183">
        <ele>47.9</ele>
        <time>2023-01-07T15:05:52Z</time>
      </trkpt>
      <trkpt lat="49.07802" lon="2.00175">
        <ele>49</ele>
        <time>2023-01-07T15:05:58Z</time>
      </trkpt>
      <trkpt lat="49.07811" lon="2.00169">
        <ele>50.1</ele>
        <time>2023-01-07T15:06:03Z</time>
      </trkpt>
      <trkpt lat="49.07817" lon="2.00161">
        <ele>51.2</ele>
        <time>2023-01-07T15:06:09Z</time>
      </trkpt>
      <trkpt lat="49.07823" lon="2.00154">
        <ele>52.2</ele>
        <time>2023-01-07T15:06:15Z</time>
      </trkpt>
      <trkpt lat="49.07829" lon="2.00149">
        <ele>53</ele>
        <time>2023-01-07T15:06:21Z</time>
      </trkpt>
      <trkpt lat="49.07834" lon="2.00143">
        <ele>53.7</ele>
        <time>2023-01-07T15:06:26Z</time>
      </trkpt>
      <trkpt lat="49.0784" lon="2.00137">
        <ele>54</ele>
        <time>2023-01-07T15:06:32Z</time>
      </trkpt>
      <trkpt lat="49.07845" lon="2.0013">
        <ele>54.3</ele>
        <time>2023-01-07T15:06:38Z</time>
      </trkpt>
      <trkpt lat="49.07852" lon="2.00122">
        <ele>54.7</ele>
        <time>2023-01-07T15:06:44Z</time>
      </trkpt>
      <trkpt lat="49.07855" lon="2.00112">
        <ele>55.4</ele>
        <time>2023-01-07T15:06:49Z</time>
      </trkpt>
      <trkpt lat="49.07858" lon="2.00105">
        <ele>55.8</ele>
        <time>2023-01-07T15:06:54Z</time>
      </trkpt>
      <trkpt lat="49.07864" lon="2.00096">
        <ele>56.2</ele>
        <time>2023-01-07T15:07:00Z</time>
      </trkpt>
      <trkpt lat="49.07869" lon="2.00088">
        <ele>56.1</ele>
        <time>2023-01-07T15:07:06Z</time>
      </trkpt>
      <trkpt lat="49.07872" lon="2.00082">
        <ele>56.2</ele>
        <time>2023-01-07T15:07:11Z</time>
      </trkpt>
      <trkpt lat="49.07877" lon="2.00073">
        <ele>56.5</ele>
        <time>2023-01-07T15:07:17Z</time>
      </trkpt>
      <trkpt lat="49.07882" lon="2.00065">
        <ele>56.3</ele>
        <time>2023-01-07T15:07:23Z</time>
      </trkpt>
      <trkpt lat="49.07884" lon="2.00053">
        <ele>57.4</ele>
        <time>2023-01-07T15:07:29Z</time>
      </trkpt>
      <trkpt lat="49.07886" lon="2.00044">
        <ele>57.9</ele>
        <time>2023-01-07T15:07:34Z</time>
      </trkpt>
      <trkpt lat="49.07889" lon="2.00035">
        <ele>58.2</ele>
        <time>2023-01-07T15:07:39Z</time>
      </trkpt>
      <trkpt lat="49.07891" lon="2.00025">
        <ele>58.9</ele>
        <time>2023-01-07T15:07:45Z</time>
      </trkpt>
      <trkpt lat="49.07891" lon="2.00016">
        <ele>60.1</ele>
        <time>2023-01-07T15:07:50Z</time>
      </trkpt>
      <trkpt lat="49.07891" lon="2.00008">
        <ele>61.2</ele>
        <time>2023-01-07T15:07:56Z</time>
      </trkpt>
      <trkpt lat="49.07895" lon="1.99993">
        <ele>61.8</ele>
        <time>2023-01-07T15:08:02Z</time>
      </trkpt>
      <trkpt lat="49.07897" lon="1.99983">
        <ele>62</ele>
        <time>2023-01-07T15:08:07Z</time>
      </trkpt>
      <trkpt lat="49.07898" lon="1.99974">
        <ele>62.6</ele>
        <time>2023-01-07T15:08:12Z</time>
      </trkpt>
      <trkpt lat="49.079" lon="1.99963">
        <ele>63.3</ele>
        <time>2023-01-07T15:08:18Z</time>
      </trkpt>
      <trkpt lat="49.07903" lon="1.99957">
        <ele>63.1</ele>
        <time>2023-01-07T15:08:23Z</time>
      </trkpt>
      <trkpt lat="49.07907" lon="1.99948">
        <ele>63.2</ele>
        <time>2023-01-07T15:08:29Z</time>
      </trkpt>
      <trkpt lat="49.0791" lon="1.9994">
        <ele>63.2</ele>
        <time>2023-01-07T15:08:34Z</time>
      </trkpt>
      <trkpt lat="49.07912" lon="1.99929">
        <ele>63.7</ele>
        <time>2023-01-07T15:08:39Z</time>
      </trkpt>
      <trkpt lat="49.07913" lon="1.99919">
        <ele>64.5</ele>
        <time>2023-01-07T15:08:45Z</time>
      </trkpt>
      <trkpt lat="49.07911" lon="1.9991">
        <ele>65.8</ele>
        <time>2023-01-07T15:08:50Z</time>
      </trkpt>
      <trkpt lat="49.07907" lon="1.999">
        <ele>67.4</ele>
        <time>2023-01-07T15:08:56Z</time>
      </trkpt>
      <trkpt lat="49.07901" lon="1.99894">
        <ele>69</ele>
        <time>2023-01-07T15:09:02Z</time>
      </trkpt>
      <trkpt lat="49.07899" lon="1.99884">
        <ele>70.2</ele>
        <time>2023-01-07T15:09:08Z</time>
      </trkpt>
      <trkpt lat="49.07897" lon="1.99876">
        <ele>71.1</ele>
        <time>2023-01-07T15:09:14Z</time>
      </trkpt>
      <trkpt lat="49.07893" lon="1.99872">
        <ele>71.8</ele>
        <time>2023-01-07T15:09:19Z</time>
      </trkpt>
      <trkpt lat="49.07887" lon="1.9987">
        <ele>72.9</ele>
        <time>2023-01-07T15:09:25Z</time>
      </trkpt>
      <trkpt lat="49.07881" lon="1.99863">
        <ele>73.8</ele>
        <time>2023-01-07T15:09:31Z</time>
      </trkpt>
      <trkpt lat="49.07876" lon="1.99856">
        <ele>74.7</ele>
        <time>2023-01-07T15:09:36Z</time>
      </trkpt>
      <trkpt lat="49.07867" lon="1.99852">
        <ele>75.7</ele>
        <time>2023-01-07T15:09:42Z</time>
      </trkpt>
      <trkpt lat="49.07863" lon="1.99847">
        <ele>76.3</ele>
        <time>2023-01-07T15:09:47Z</time>
      </trkpt>
      <trkpt lat="49.07857" lon="1.99844">
        <ele>76.9</ele>
        <time>2023-01-07T15:09:53Z</time>
      </trkpt>
      <trkpt lat="49.07852" lon="1.99836">
        <ele>77.5</ele>
        <time>2023-01-07T15:09:59Z</time>
      </trkpt>
      <trkpt lat="49.07848" lon="1.99831">
        <ele>78.1</ele>
        <time>2023-01-07T15:10:04Z</time>
      </trkpt>
      <trkpt lat="49.07841" lon="1.99826">
        <ele>78.8</ele>
        <time>2023-01-07T15:10:10Z</time>
      </trkpt>
      <trkpt lat="49.07837" lon="1.99821">
        <ele>79.2</ele>
        <time>2023-01-07T15:10:15Z</time>
      </trkpt>
      <trkpt lat="49.07832" lon="1.99814">
        <ele>79.7</ele>
        <time>2023-01-07T15:10:21Z</time>
      </trkpt>
      <trkpt lat="49.07829" lon="1.99807">
        <ele>80</ele>
        <time>2023-01-07T15:10:26Z</time>
      </trkpt>
      <trkpt lat="49.07824" lon="1.99797">
        <ele>80.4</ele>
        <time>2023-01-07T15:10:32Z</time>
      </trkpt>
      <trkpt lat="49.07821" lon="1.99791">
        <ele>80.8</ele>
        <time>2023-01-07T15:10:37Z</time>
      </trkpt>
      <trkpt lat="49.07817" lon="1.99781">
        <ele>81.4</ele>
        <time>2023-01-07T15:10:43Z</time>
      </trkpt>
      <trkpt lat="49.07813" lon="1.99774">
        <ele>81.9</ele>
        <time>2023-01-07T15:10:48Z</time>
      </trkpt>
      <trkpt lat="49.07809" lon="1.99764">
        <ele>82.4</ele>
        <time>2023-01-07T15:10:54Z</time>
      </trkpt>
      <trkpt lat="49.07805" lon="1.99755">
        <ele>82.8</ele>
        <time>2023-01-07T15:11:00Z</time>
      </trkpt>
      <trkpt lat="49.07802" lon="1.99745">
        <ele>83.3</ele>
        <time>2023-01-07T15:11:06Z</time>
      </trkpt>
      <trkpt lat="49.07799" lon="1.99736">
        <ele>83.9</ele>
        <time>2023-01-07T15:11:11Z</time>
      </trkpt>
      <trkpt lat="49.07796" lon="1.99725">
        <ele>84.5</ele>
        <time>2023-01-07T15:11:17Z</time>
      </trkpt>
      <trkpt lat="49.07794" lon="1.99717">
        <ele>84.8</ele>
        <time>2023-01-07T15:11:22Z</time>
      </trkpt>
      <trkpt lat="49.0779" lon="1.99707">
        <ele>85.3</ele>
        <time>2023-01-07T15:11:28Z</time>
      </trkpt>
      <trkpt lat="49.07786" lon="1.99695">
        <ele>86</ele>
        <time>2023-01-07T15:11:34Z</time>
      </trkpt>
      <trkpt lat="49.07783" lon="1.99684">
        <ele>86.4</ele>
        <time>2023-01-07T15:11:40Z</time>
      </trkpt>
      <trkpt lat="49.07781" lon="1.99674">
        <ele>86.8</ele>
        <time>2023-01-07T15:11:46Z</time>
      </trkpt>
      <trkpt lat="49.07778" lon="1.99664">
        <ele>87.2</ele>
        <time>2023-01-07T15:11:52Z</time>
      </trkpt>
      <trkpt lat="49.07775" lon="1.99655">
        <ele>87.8</ele>
        <time>2023-01-07T15:11:57Z</time>
      </trkpt>
      <trkpt lat="49.0777" lon="1.99646">
        <ele>88.5</ele>
        <time>2023-01-07T15:12:03Z</time>
      </trkpt>
      <trkpt lat="49.07768" lon="1.99638">
        <ele>89</ele>
        <time>2023-01-07T15:12:08Z</time>
      </trkpt>
      <trkpt lat="49.07764" lon="1.99627">
        <ele>89.4</ele>
        <time>2023-01-07T15:12:14Z</time>
      </trkpt>
      <trkpt lat="49.0776" lon="1.99616">
        <ele>89.8</ele>
        <time>2023-01-07T15:12:20Z</time>
      </trkpt>
      <trkpt lat="49.07759" lon="1.99607">
        <ele>90.1</ele>
        <time>2023-01-07T15:12:25Z</time>
      </trkpt>
      <trkpt lat="49.07757" lon="1.996">
        <ele>90.4</ele>
        <time>2023-01-07T15:12:30Z</time>
      </trkpt>
      <trkpt lat="49.07755" lon="1.99589">
        <ele>90.8</ele>
        <time>2023-01-07T15:12:36Z</time>
      </trkpt>
      <trkpt lat="49.07752" lon="1.99579">
        <ele>91.2</ele>
        <time>2023-01-07T15:12:42Z</time>
      </trkpt>
      <trkpt lat="49.07749" lon="1.99569">
        <ele>91.5</ele>
        <time>2023-01-07T15:12:48Z</time>
      </trkpt>
      <trkpt lat="49.07745" lon="1.9956">
        <ele>91.9</ele>
        <time>2023-01-07T15:12:54Z</time>
      </trkpt>
      <trkpt lat="49.07743" lon="1.9955">
        <ele>92.2</ele>
        <time>2023-01-07T15:12:59Z</time>
      </trkpt>
      <trkpt lat="49.0774" lon="1.99542">
        <ele>92.5</ele>
        <time>2023-01-07T15:13:04Z</time>
      </trkpt>
      <trkpt lat="49.07737" lon="1.99532">
        <ele>92.8</ele>
        <time>2023-01-07T15:13:10Z</time>
      </trkpt>
      <trkpt lat="49.07733" lon="1.99523">
        <ele>93.2</ele>
        <time>2023-01-07T15:13:16Z</time>
      </trkpt>
      <trkpt lat="49.07731" lon="1.99515">
        <ele>93.4</ele>
        <time>2023-01-07T15:13:21Z</time>
      </trkpt>
      <trkpt lat="49.07727" lon="1.99506">
        <ele>93.8</ele>
        <time>2023-01-07T15:13:27Z</time>
      </trkpt>
      <trkpt lat="49.07724" lon="1.99497">
        <ele>94.1</ele>
        <time>2023-01-07T15:13:32Z</time>
      </trkpt>
      <trkpt lat="49.07721" lon="1.99488">
        <ele>94.4</ele>
        <time>2023-01-07T15:13:38Z</time>
      </trkpt>
      <trkpt lat="49.07718" lon="1.99479">
        <ele>94.8</ele>
        <time>2023-01-07T15:13:43Z</time>
      </trkpt>
      <trkpt lat="49.07715" lon="1.99469">
        <ele>95.1</ele>
        <time>2023-01-07T15:13:49Z</time>
      </trkpt>
      <trkpt lat="49.0771" lon="1.9946">
        <ele>95.3</ele>
        <time>2023-01-07T15:13:55Z</time>
      </trkpt>
      <trkpt lat="49.07707" lon="1.99453">
        <ele>95.3</ele>
        <time>2023-01-07T15:14:00Z</time>
      </trkpt>
      <trkpt lat="49.07702" lon="1.99445">
        <ele>95.3</ele>
        <time>2023-01-07T15:14:06Z</time>
      </trkpt>
      <trkpt lat="49.07698" lon="1.99438">
        <ele>95.3</ele>
        <time>2023-01-07T15:14:11Z</time>
      </trkpt>
      <trkpt lat="49.07693" lon="1.99429">
        <ele>95.5</ele>
        <time>2023-01-07T15:14:17Z</time>
      </trkpt>
      <trkpt lat="49.07689" lon="1.99421">
        <ele>95.7</ele>
        <time>2023-01-07T15:14:22Z</time>
      </trkpt>
      <trkpt lat="49.07686" lon="1.9941">
        <ele>95.8</ele>
        <time>2023-01-07T15:14:28Z</time>
      </trkpt>
      <trkpt lat="49.07682" lon="1.994">
        <ele>95.8</ele>
        <time>2023-01-07T15:14:34Z</time>
      </trkpt>
      <trkpt lat="49.07677" lon="1.9939">
        <ele>96</ele>
        <time>2023-01-07T15:14:40Z</time>
      </trkpt>
      <trkpt lat="49.07671" lon="1.99381">
        <ele>96</ele>
        <time>2023-01-07T15:14:46Z</time>
      </trkpt>
      <trkpt lat="49.07667" lon="1.99371">
        <ele>96</ele>
        <time>2023-01-07T15:14:52Z</time>
      </trkpt>
      <trkpt lat="49.07664" lon="1.99362">
        <ele>96</ele>
        <time>2023-01-07T15:14:57Z</time>
      </trkpt>
      <trkpt lat="49.0766" lon="1.99351">
        <ele>96</ele>
        <time>2023-01-07T15:15:03Z</time>
      </trkpt>
      <trkpt lat="49.07657" lon="1.99344">
        <ele>96</ele>
        <time>2023-01-07T15:15:08Z</time>
      </trkpt>
      <trkpt lat="49.07653" lon="1.99334">
        <ele>96</ele>
        <time>2023-01-07T15:15:14Z</time>
      </trkpt>
      <trkpt lat="49.07649" lon="1.99324">
        <ele>96.3</ele>
        <time>2023-01-07T15:15:20Z</time>
      </trkpt>
      <trkpt lat="49.07648" lon="1.99313">
        <ele>96.7</ele>
        <time>2023-01-07T15:15:25Z</time>
      </trkpt>
      <trkpt lat="49.07645" lon="1.99301">
        <ele>97</ele>
        <time>2023-01-07T15:15:31Z</time>
      </trkpt>
      <trkpt lat="49.07644" lon="1.99291">
        <ele>97</ele>
        <time>2023-01-07T15:15:36Z</time>
      </trkpt>
      <trkpt lat="49.07642" lon="1.99279">
        <ele>97</ele>
        <time>2023-01-07T15:15:42Z</time>
      </trkpt>
      <trkpt lat="49.07639" lon="1.9927">
        <ele>97</ele>
        <time>2023-01-07T15:15:47Z</time>
      </trkpt>
      <trkpt lat="49.07636" lon="1.99259">
        <ele>97</ele>
        <time>2023-01-07T15:15:53Z</time>
      </trkpt>
      <trkpt lat="49.07633" lon="1.99252">
        <ele>97</ele>
        <time>2023-01-07T15:15:58Z</time>
      </trkpt>
      <trkpt lat="49.07628" lon="1.99251">
        <ele>97</ele>
        <time>2023-01-07T15:16:04Z</time>
      </trkpt>
      <trkpt lat="49.07625" lon="1.99252">
        <ele>97</ele>
        <time>2023-01-07T15:16:09Z</time>
      </trkpt>
      <trkpt lat="49.07624" lon="1.99255">
        <ele>97</ele>
        <time>2023-01-07T15:16:15Z</time>
      </trkpt>
      <trkpt lat="49.07624" lon="1.99256">
        <ele>97</ele>
        <time>2023-01-07T15:16:21Z</time>
      </trkpt>
      <trkpt lat="49.07623" lon="1.99257">
        <ele>97</ele>
        <time>2023-01-07T15:16:26Z</time>
      </trkpt>
      <trkpt lat="49.07622" lon="1.99256">
        <ele>97</ele>
        <time>2023-01-07T15:16:32Z</time>
      </trkpt>
      <trkpt lat="49.07623" lon="1.99256">
        <ele>97</ele>
        <time>2023-01-07T15:16:37Z</time>
      </trkpt>
      <trkpt lat="49.07624" lon="1.99256">
        <ele>97</ele>
        <time>2023-01-07T15:16:43Z</time>
      </trkpt>
      <trkpt lat="49.07624" lon="1.99256">
        <ele>97</ele>
        <time>2023-01-07T15:16:49Z</time>
      </trkpt>
      <trkpt lat="49.07625" lon="1.99256">
        <ele>97</ele>
        <time>2023-01-07T15:16:54Z</time>
      </trkpt>
      <trkpt lat="49.07625" lon="1.99256">
        <ele>97</ele>
        <time>2023-01-07T15:16:59Z</time>
      </trkpt>
      <trkpt lat="49.07625" lon="1.99256">
        <ele>97</ele>
        <time>2023-01-07T15:17:05Z</time>
      </trkpt>
      <trkpt lat="49.07625" lon="1.99256">
        <ele>97</ele>
        <time>2023-01-07T15:17:11Z</time>
      </trkpt>
      <trkpt lat="49.07625" lon="1.99256">
        <ele>97</ele>
        <time>2023-01-07T15:17:16Z</time>
      </trkpt>
      <trkpt lat="49.07625" lon="1.99256">
        <ele>97</ele>
        <time>2023-01-07T15:17:22Z</time>
      </trkpt>
      <trkpt lat="49.07626" lon="1.99256">
        <ele>97</ele>
        <time>2023-01-07T15:17:27Z</time>
      </trkpt>
      <trkpt lat="49.07626" lon="1.99255">
        <ele>97</ele>
        <time>2023-01-07T15:17:33Z</time>
      </trkpt>
      <trkpt lat="49.07627" lon="1.99255">
        <ele>97</ele>
        <time>2023-01-07T15:17:38Z</time>
      </trkpt>
      <trkpt lat="49.07626" lon="1.99255">
        <ele>97</ele>
        <time>2023-01-07T15:17:44Z</time>
      </trkpt>
      <trkpt lat="49.07626" lon="1.99256">
        <ele>97</ele>
        <time>2023-01-07T15:17:50Z</time>
      </trkpt>
      <trkpt lat="49.07623" lon="1.99258">
        <ele>97</ele>
        <time>2023-01-07T15:17:56Z</time>
      </trkpt>
      <trkpt lat="49.0762" lon="1.99265">
        <ele>97</ele>
        <time>2023-01-07T15:18:02Z</time>
      </trkpt>
      <trkpt lat="49.07618" lon="1.99274">
        <ele>97</ele>
        <time>2023-01-07T15:18:08Z</time>
      </trkpt>
      <trkpt lat="49.07616" lon="1.99282">
        <ele>97</ele>
        <time>2023-01-07T15:18:13Z</time>
      </trkpt>
      <trkpt lat="49.07613" lon="1.9929">
        <ele>97</ele>
        <time>2023-01-07T15:18:18Z</time>
      </trkpt>
      <trkpt lat="49.0761" lon="1.993">
        <ele>97</ele>
        <time>2023-01-07T15:18:24Z</time>
      </trkpt>
      <trkpt lat="49.07607" lon="1.99308">
        <ele>96.8</ele>
        <time>2023-01-07T15:18:29Z</time>
      </trkpt>
      <trkpt lat="49.07603" lon="1.99319">
        <ele>96.4</ele>
        <time>2023-01-07T15:18:35Z</time>
      </trkpt>
      <trkpt lat="49.07599" lon="1.9933">
        <ele>96.1</ele>
        <time>2023-01-07T15:18:41Z</time>
      </trkpt>
      <trkpt lat="49.07596" lon="1.99339">
        <ele>95.8</ele>
        <time>2023-01-07T15:18:46Z</time>
      </trkpt>
      <trkpt lat="49.07594" lon="1.99348">
        <ele>95.5</ele>
        <time>2023-01-07T15:18:51Z</time>
      </trkpt>
      <trkpt lat="49.0759" lon="1.99358">
        <ele>95.1</ele>
        <time>2023-01-07T15:18:57Z</time>
      </trkpt>
      <trkpt lat="49.07587" lon="1.99367">
        <ele>95</ele>
        <time>2023-01-07T15:19:03Z</time>
      </trkpt>
      <trkpt lat="49.07583" lon="1.99379">
        <ele>95</ele>
        <time>2023-01-07T15:19:09Z</time>
      </trkpt>
      <trkpt lat="49.07578" lon="1.99388">
        <ele>94.8</ele>
        <time>2023-01-07T15:19:15Z</time>
      </trkpt>
      <trkpt lat="49.07574" lon="1.99398">
        <ele>94.5</ele>
        <time>2023-01-07T15:19:20Z</time>
      </trkpt>
      <trkpt lat="49.07569" lon="1.99408">
        <ele>94.2</ele>
        <time>2023-01-07T15:19:26Z</time>
      </trkpt>
      <trkpt lat="49.07565" lon="1.99419">
        <ele>93.9</ele>
        <time>2023-01-07T15:19:32Z</time>
      </trkpt>
      <trkpt lat="49.07562" lon="1.9943">
        <ele>93.5</ele>
        <time>2023-01-07T15:19:38Z</time>
      </trkpt>
      <trkpt lat="49.07559" lon="1.99441">
        <ele>93.1</ele>
        <time>2023-01-07T15:19:44Z</time>
      </trkpt>
      <trkpt lat="49.07556" lon="1.9945">
        <ele>92.8</ele>
        <time>2023-01-07T15:19:50Z</time>
      </trkpt>
      <trkpt lat="49.07552" lon="1.99462">
        <ele>92.1</ele>
        <time>2023-01-07T15:19:56Z</time>
      </trkpt>
      <trkpt lat="49.07549" lon="1.99471">
        <ele>91.6</ele>
        <time>2023-01-07T15:20:02Z</time>
      </trkpt>
      <trkpt lat="49.07546" lon="1.99481">
        <ele>90.7</ele>
        <time>2023-01-07T15:20:08Z</time>
      </trkpt>
      <trkpt lat="49.07542" lon="1.99493">
        <ele>89.9</ele>
        <time>2023-01-07T15:20:14Z</time>
      </trkpt>
      <trkpt lat="49.0754" lon="1.99501">
        <ele>89.4</ele>
        <time>2023-01-07T15:20:19Z</time>
      </trkpt>
      <trkpt lat="49.07537" lon="1.99512">
        <ele>89.2</ele>
        <time>2023-01-07T15:20:25Z</time>
      </trkpt>
      <trkpt lat="49.07535" lon="1.99523">
        <ele>89</ele>
        <time>2023-01-07T15:20:30Z</time>
      </trkpt>
      <trkpt lat="49.07533" lon="1.99531">
        <ele>88.8</ele>
        <time>2023-01-07T15:20:35Z</time>
      </trkpt>
      <trkpt lat="49.0753" lon="1.99542">
        <ele>88</ele>
        <time>2023-01-07T15:20:41Z</time>
      </trkpt>
      <trkpt lat="49.07528" lon="1.99552">
        <ele>87.2</ele>
        <time>2023-01-07T15:20:47Z</time>
      </trkpt>
      <trkpt lat="49.07527" lon="1.99562">
        <ele>86.8</ele>
        <time>2023-01-07T15:20:52Z</time>
      </trkpt>
      <trkpt lat="49.07524" lon="1.99573">
        <ele>86.2</ele>
        <time>2023-01-07T15:20:58Z</time>
      </trkpt>
      <trkpt lat="49.07522" lon="1.99583">
        <ele>85.8</ele>
        <time>2023-01-07T15:21:03Z</time>
      </trkpt>
      <trkpt lat="49.07518" lon="1.99593">
        <ele>85.3</ele>
        <time>2023-01-07T15:21:09Z</time>
      </trkpt>
      <trkpt lat="49.07514" lon="1.99602">
        <ele>84.8</ele>
        <time>2023-01-07T15:21:15Z</time>
      </trkpt>
      <trkpt lat="49.07511" lon="1.9961">
        <ele>84.4</ele>
        <time>2023-01-07T15:21:20Z</time>
      </trkpt>
      <trkpt lat="49.07508" lon="1.99617">
        <ele>83.8</ele>
        <time>2023-01-07T15:21:25Z</time>
      </trkpt>
      <trkpt lat="49.07505" lon="1.99628">
        <ele>83</ele>
        <time>2023-01-07T15:21:30Z</time>
      </trkpt>
      <trkpt lat="49.075" lon="1.99636">
        <ele>82.2</ele>
        <time>2023-01-07T15:21:35Z</time>
      </trkpt>
      <trkpt lat="49.07496" lon="1.99647">
        <ele>81.6</ele>
        <time>2023-01-07T15:21:41Z</time>
      </trkpt>
      <trkpt lat="49.07491" lon="1.99653">
        <ele>81.2</ele>
        <time>2023-01-07T15:21:46Z</time>
      </trkpt>
      <trkpt lat="49.07487" lon="1.99663">
        <ele>80.7</ele>
        <time>2023-01-07T15:21:52Z</time>
      </trkpt>
      <trkpt lat="49.07483" lon="1.99668">
        <ele>80.3</ele>
        <time>2023-01-07T15:21:57Z</time>
      </trkpt>
      <trkpt lat="49.07478" lon="1.99676">
        <ele>79.5</ele>
        <time>2023-01-07T15:22:02Z</time>
      </trkpt>
      <trkpt lat="49.07476" lon="1.99683">
        <ele>79</ele>
        <time>2023-01-07T15:22:07Z</time>
      </trkpt>
      <trkpt lat="49.07471" lon="1.9969">
        <ele>78.3</ele>
        <time>2023-01-07T15:22:12Z</time>
      </trkpt>
      <trkpt lat="49.07467" lon="1.997">
        <ele>77.2</ele>
        <time>2023-01-07T15:22:18Z</time>
      </trkpt>
      <trkpt lat="49.07464" lon="1.99709">
        <ele>76.4</ele>
        <time>2023-01-07T15:22:24Z</time>
      </trkpt>
      <trkpt lat="49.07461" lon="1.99718">
        <ele>75.5</ele>
        <time>2023-01-07T15:22:29Z</time>
      </trkpt>
      <trkpt lat="49.07458" lon="1.99727">
        <ele>74.7</ele>
        <time>2023-01-07T15:22:34Z</time>
      </trkpt>
      <trkpt lat="49.07456" lon="1.99735">
        <ele>74.2</ele>
        <time>2023-01-07T15:22:39Z</time>
      </trkpt>
      <trkpt lat="49.07451" lon="1.99746">
        <ele>73</ele>
        <time>2023-01-07T15:22:45Z</time>
      </trkpt>
      <trkpt lat="49.0745" lon="1.99751">
        <ele>72.5</ele>
        <time>2023-01-07T15:22:50Z</time>
      </trkpt>
      <trkpt lat="49.07445" lon="1.9976">
        <ele>71.3</ele>
        <time>2023-01-07T15:22:56Z</time>
      </trkpt>
      <trkpt lat="49.07442" lon="1.99768">
        <ele>70.6</ele>
        <time>2023-01-07T15:23:02Z</time>
      </trkpt>
      <trkpt lat="49.07438" lon="1.99778">
        <ele>69.8</ele>
        <time>2023-01-07T15:23:07Z</time>
      </trkpt>
      <trkpt lat="49.07435" lon="1.99785">
        <ele>69.4</ele>
        <time>2023-01-07T15:23:12Z</time>
      </trkpt>
      <trkpt lat="49.07433" lon="1.99794">
        <ele>69</ele>
        <time>2023-01-07T15:23:18Z</time>
      </trkpt>
      <trkpt lat="49.07432" lon="1.99803">
        <ele>68.6</ele>
        <time>2023-01-07T15:23:23Z</time>
      </trkpt>
      <trkpt lat="49.0743" lon="1.99816">
        <ele>68.1</ele>
        <time>2023-01-07T15:23:29Z</time>
      </trkpt>
      <trkpt lat="49.07427" lon="1.99826">
        <ele>67.8</ele>
        <time>2023-01-07T15:23:34Z</time>
      </trkpt>
      <trkpt lat="49.07426" lon="1.99835">
        <ele>67.7</ele>
        <time>2023-01-07T15:23:40Z</time>
      </trkpt>
      <trkpt lat="49.07424" lon="1.99849">
        <ele>68.5</ele>
        <time>2023-01-07T15:23:46Z</time>
      </trkpt>
      <trkpt lat="49.07424" lon="1.99854">
        <ele>68.7</ele>
        <time>2023-01-07T15:23:52Z</time>
      </trkpt>
      <trkpt lat="49.07424" lon="1.99861">
        <ele>69</ele>
        <time>2023-01-07T15:23:57Z</time>
      </trkpt>
      <trkpt lat="49.07422" lon="1.99874">
        <ele>70</ele>
        <time>2023-01-07T15:24:03Z</time>
      </trkpt>
      <trkpt lat="49.07421" lon="1.99881">
        <ele>70.7</ele>
        <time>2023-01-07T15:24:08Z</time>
      </trkpt>
      <trkpt lat="49.07419" lon="1.99891">
        <ele>71.7</ele>
        <time>2023-01-07T15:24:14Z</time>
      </trkpt>
      <trkpt lat="49.07417" lon="1.99899">
        <ele>72.7</ele>
        <time>2023-01-07T15:24:19Z</time>
      </trkpt>
      <trkpt lat="49.07415" lon="1.99909">
        <ele>73.6</ele>
        <time>2023-01-07T15:24:25Z</time>
      </trkpt>
      <trkpt lat="49.07412" lon="1.99916">
        <ele>74.4</ele>
        <time>2023-01-07T15:24:30Z</time>
      </trkpt>
      <trkpt lat="49.07411" lon="1.99925">
        <ele>75.2</ele>
        <time>2023-01-07T15:24:36Z</time>
      </trkpt>
      <trkpt lat="49.07407" lon="1.99934">
        <ele>76.1</ele>
        <time>2023-01-07T15:24:41Z</time>
      </trkpt>
      <trkpt lat="49.07401" lon="1.99945">
        <ele>77.1</ele>
        <time>2023-01-07T15:24:47Z</time>
      </trkpt>
      <trkpt lat="49.07397" lon="1.99954">
        <ele>77.8</ele>
        <time>2023-01-07T15:24:53Z</time>
      </trkpt>
      <trkpt lat="49.07394" lon="1.99963">
        <ele>78.3</ele>
        <time>2023-01-07T15:24:58Z</time>
      </trkpt>
      <trkpt lat="49.07391" lon="1.99973">
        <ele>78.9</ele>
        <time>2023-01-07T15:25:04Z</time>
      </trkpt>
      <trkpt lat="49.07388" lon="1.99982">
        <ele>79.4</ele>
        <time>2023-01-07T15:25:10Z</time>
      </trkpt>
      <trkpt lat="49.07385" lon="1.99991">
        <ele>79.8</ele>
        <time>2023-01-07T15:25:15Z</time>
      </trkpt>
      <trkpt lat="49.07382" lon="1.99999">
        <ele>80.2</ele>
        <time>2023-01-07T15:25:20Z</time>
      </trkpt>
      <trkpt lat="49.0738" lon="2.00009">
        <ele>80.4</ele>
        <time>2023-01-07T15:25:26Z</time>
      </trkpt>
      <trkpt lat="49.07377" lon="2.00019">
        <ele>80.7</ele>
        <time>2023-01-07T15:25:32Z</time>
      </trkpt>
      <trkpt lat="49.07373" lon="2.00029">
        <ele>81.2</ele>
        <time>2023-01-07T15:25:38Z</time>
      </trkpt>
      <trkpt lat="49.07371" lon="2.0004">
        <ele>81.7</ele>
        <time>2023-01-07T15:25:44Z</time>
      </trkpt>
      <trkpt lat="49.07367" lon="2.0005">
        <ele>82.4</ele>
        <time>2023-01-07T15:25:50Z</time>
      </trkpt>
      <trkpt lat="49.07364" lon="2.0006">
        <ele>82.8</ele>
        <time>2023-01-07T15:25:56Z</time>
      </trkpt>
      <trkpt lat="49.07362" lon="2.00071">
        <ele>83</ele>
        <time>2023-01-07T15:26:02Z</time>
      </trkpt>
      <trkpt lat="49.07358" lon="2.00079">
        <ele>83.2</ele>
        <time>2023-01-07T15:26:07Z</time>
      </trkpt>
      <trkpt lat="49.07354" lon="2.00088">
        <ele>83.5</ele>
        <time>2023-01-07T15:26:13Z</time>
      </trkpt>
      <trkpt lat="49.0735" lon="2.00098">
        <ele>84</ele>
        <time>2023-01-07T15:26:19Z</time>
      </trkpt>
      <trkpt lat="49.07347" lon="2.00108">
        <ele>84.5</ele>
        <time>2023-01-07T15:26:25Z</time>
      </trkpt>
      <trkpt lat="49.07344" lon="2.00116">
        <ele>84.8</ele>
        <time>2023-01-07T15:26:30Z</time>
      </trkpt>
      <trkpt lat="49.0734" lon="2.00126">
        <ele>85.2</ele>
        <time>2023-01-07T15:26:36Z</time>
      </trkpt>
      <trkpt lat="49.07337" lon="2.00134">
        <ele>85.6</ele>
        <time>2023-01-07T15:26:41Z</time>
      </trkpt>
      <trkpt lat="49.07334" lon="2.00144">
        <ele>86</ele>
        <time>2023-01-07T15:26:47Z</time>
      </trkpt>
      <trkpt lat="49.07331" lon="2.00153">
        <ele>86.1</ele>
        <time>2023-01-07T15:26:52Z</time>
      </trkpt>
      <trkpt lat="49.07328" lon="2.00161">
        <ele>86.2</ele>
        <time>2023-01-07T15:26:57Z</time>
      </trkpt>
      <trkpt lat="49.07325" lon="2.00171">
        <ele>86.3</ele>
        <time>2023-01-07T15:27:03Z</time>
      </trkpt>
      <trkpt lat="49.07323" lon="2.00183">
        <ele>86.4</ele>
        <time>2023-01-07T15:27:09Z</time>
      </trkpt>
      <trkpt lat="49.07323" lon="2.0019">
        <ele>86.4</ele>
        <time>2023-01-07T15:27:14Z</time>
      </trkpt>
      <trkpt lat="49.07324" lon="2.0019">
        <ele>86.4</ele>
        <time>2023-01-07T15:27:20Z</time>
      </trkpt>
      <trkpt lat="49.07323" lon="2.0019">
        <ele>86.4</ele>
        <time>2023-01-07T15:27:25Z</time>
      </trkpt>
      <trkpt lat="49.07323" lon="2.00189">
        <ele>86.4</ele>
        <time>2023-01-07T15:27:31Z</time>
      </trkpt>
      <trkpt lat="49.07323" lon="2.00189">
        <ele>86.4</ele>
        <time>2023-01-07T15:27:37Z</time>
      </trkpt>
      <trkpt lat="49.07323" lon="2.00189">
        <ele>86.4</ele>
        <time>2023-01-07T15:27:43Z</time>
      </trkpt>
      <trkpt lat="49.07323" lon="2.00189">
        <ele>86.4</ele>
        <time>2023-01-07T15:27:49Z</time>
      </trkpt>
      <trkpt lat="49.07324" lon="2.00189">
        <ele>86.3</ele>
        <time>2023-01-07T15:27:55Z</time>
      </trkpt>
      <trkpt lat="49.07324" lon="2.00188">
        <ele>86.3</ele>
        <time>2023-01-07T15:28:00Z</time>
      </trkpt>
      <trkpt lat="49.07324" lon="2.00188">
        <ele>86.3</ele>
        <time>2023-01-07T15:28:06Z</time>
      </trkpt>
      <trkpt lat="49.07324" lon="2.00188">
        <ele>86.3</ele>
        <time>2023-01-07T15:28:11Z</time>
      </trkpt>
      <trkpt lat="49.07324" lon="2.00188">
        <ele>86.3</ele>
        <time>2023-01-07T15:28:17Z</time>
      </trkpt>
      <trkpt lat="49.07324" lon="2.00187">
        <ele>86.3</ele>
        <time>2023-01-07T15:28:23Z</time>
      </trkpt>
      <trkpt lat="49.07324" lon="2.00187">
        <ele>86.3</ele>
        <time>2023-01-07T15:28:29Z</time>
      </trkpt>
      <trkpt lat="49.07324" lon="2.00188">
        <ele>86.3</ele>
        <time>2023-01-07T15:28:35Z</time>
      </trkpt>
      <trkpt lat="49.07322" lon="2.00191">
        <ele>86.4</ele>
        <time>2023-01-07T15:28:41Z</time>
      </trkpt>
      <trkpt lat="49.07322" lon="2.00191">
        <ele>86.4</ele>
        <time>2023-01-07T15:28:46Z</time>
      </trkpt>
      <trkpt lat="49.07322" lon="2.0019">
        <ele>86.4</ele>
        <time>2023-01-07T15:28:52Z</time>
      </trkpt>
      <trkpt lat="49.07322" lon="2.00191">
        <ele>86.4</ele>
        <time>2023-01-07T15:28:57Z</time>
      </trkpt>
      <trkpt lat="49.07322" lon="2.00191">
        <ele>86.4</ele>
        <time>2023-01-07T15:29:03Z</time>
      </trkpt>
      <trkpt lat="49.07322" lon="2.00191">
        <ele>86.4</ele>
        <time>2023-01-07T15:29:08Z</time>
      </trkpt>
      <trkpt lat="49.07323" lon="2.00194">
        <ele>86.4</ele>
        <time>2023-01-07T15:29:14Z</time>
      </trkpt>
      <trkpt lat="49.0732" lon="2.00204">
        <ele>86.2</ele>
        <time>2023-01-07T15:29:20Z</time>
      </trkpt>
      <trkpt lat="49.07316" lon="2.00214">
        <ele>85.9</ele>
        <time>2023-01-07T15:29:25Z</time>
      </trkpt>
      <trkpt lat="49.07313" lon="2.00226">
        <ele>85.6</ele>
        <time>2023-01-07T15:29:31Z</time>
      </trkpt>
      <trkpt lat="49.07311" lon="2.00236">
        <ele>85.3</ele>
        <time>2023-01-07T15:29:37Z</time>
      </trkpt>
      <trkpt lat="49.07307" lon="2.00246">
        <ele>85.1</ele>
        <time>2023-01-07T15:29:42Z</time>
      </trkpt>
      <trkpt lat="49.07304" lon="2.00253">
        <ele>84.9</ele>
        <time>2023-01-07T15:29:47Z</time>
      </trkpt>
      <trkpt lat="49.07301" lon="2.00265">
        <ele>84.2</ele>
        <time>2023-01-07T15:29:53Z</time>
      </trkpt>
      <trkpt lat="49.07297" lon="2.00275">
        <ele>83.8</ele>
        <time>2023-01-07T15:29:58Z</time>
      </trkpt>
      <trkpt lat="49.07294" lon="2.00287">
        <ele>83.3</ele>
        <time>2023-01-07T15:30:04Z</time>
      </trkpt>
      <trkpt lat="49.07293" lon="2.00301">
        <ele>82.7</ele>
        <time>2023-01-07T15:30:10Z</time>
      </trkpt>
      <trkpt lat="49.07289" lon="2.00311">
        <ele>82.4</ele>
        <time>2023-01-07T15:30:15Z</time>
      </trkpt>
      <trkpt lat="49.07284" lon="2.00322">
        <ele>82.2</ele>
        <time>2023-01-07T15:30:21Z</time>
      </trkpt>
      <trkpt lat="49.0728" lon="2.00334">
        <ele>81.9</ele>
        <time>2023-01-07T15:30:27Z</time>
      </trkpt>
      <trkpt lat="49.07277" lon="2.00345">
        <ele>81.2</ele>
        <time>2023-01-07T15:30:32Z</time>
      </trkpt>
      <trkpt lat="49.07273" lon="2.00359">
        <ele>80.3</ele>
        <time>2023-01-07T15:30:38Z</time>
      </trkpt>
      <trkpt lat="49.07269" lon="2.00371">
        <ele>80.1</ele>
        <time>2023-01-07T15:30:43Z</time>
      </trkpt>
      <trkpt lat="49.07266" lon="2.00383">
        <ele>80</ele>
        <time>2023-01-07T15:30:49Z</time>
      </trkpt>
      <trkpt lat="49.07263" lon="2.00395">
        <ele>79.7</ele>
        <time>2023-01-07T15:30:55Z</time>
      </trkpt>
      <trkpt lat="49.07259" lon="2.00406">
        <ele>79.1</ele>
        <time>2023-01-07T15:31:01Z</time>
      </trkpt>
      <trkpt lat="49.07256" lon="2.00415">
        <ele>78.7</ele>
        <time>2023-01-07T15:31:06Z</time>
      </trkpt>
      <trkpt lat="49.07253" lon="2.00422">
        <ele>78.4</ele>
        <time>2023-01-07T15:31:11Z</time>
      </trkpt>
      <trkpt lat="49.0725" lon="2.00433">
        <ele>77.8</ele>
        <time>2023-01-07T15:31:17Z</time>
      </trkpt>
      <trkpt lat="49.07247" lon="2.00444">
        <ele>76.9</ele>
        <time>2023-01-07T15:31:23Z</time>
      </trkpt>
      <trkpt lat="49.07245" lon="2.00455">
        <ele>76.5</ele>
        <time>2023-01-07T15:31:29Z</time>
      </trkpt>
      <trkpt lat="49.0724" lon="2.00465">
        <ele>76.2</ele>
        <time>2023-01-07T15:31:35Z</time>
      </trkpt>
      <trkpt lat="49.07237" lon="2.00475">
        <ele>76</ele>
        <time>2023-01-07T15:31:41Z</time>
      </trkpt>
      <trkpt lat="49.07234" lon="2.00482">
        <ele>75.8</ele>
        <time>2023-01-07T15:31:46Z</time>
      </trkpt>
      <trkpt lat="49.07231" lon="2.0049">
        <ele>75.6</ele>
        <time>2023-01-07T15:31:51Z</time>
      </trkpt>
      <trkpt lat="49.07228" lon="2.005">
        <ele>75.2</ele>
        <time>2023-01-07T15:31:57Z</time>
      </trkpt>
      <trkpt lat="49.07228" lon="2.00503">
        <ele>75.4</ele>
        <time>2023-01-07T15:32:03Z</time>
      </trkpt>
      <trkpt lat="49.07227" lon="2.00503">
        <ele>75.4</ele>
        <time>2023-01-07T15:32:08Z</time>
      </trkpt>
      <trkpt lat="49.07227" lon="2.00505">
        <ele>75.5</ele>
        <time>2023-01-07T15:32:13Z</time>
      </trkpt>
      <trkpt lat="49.07227" lon="2.00505">
        <ele>75.6</ele>
        <time>2023-01-07T15:32:19Z</time>
      </trkpt>
      <trkpt lat="49.07227" lon="2.00505">
        <ele>75.5</ele>
        <time>2023-01-07T15:32:24Z</time>
      </trkpt>
      <trkpt lat="49.07227" lon="2.00505">
        <ele>75.5</ele>
        <time>2023-01-07T15:32:30Z</time>
      </trkpt>
      <trkpt lat="49.07227" lon="2.00505">
        <ele>75.5</ele>
        <time>2023-01-07T15:32:35Z</time>
      </trkpt>
      <trkpt lat="49.07226" lon="2.00506">
        <ele>75.6</ele>
        <time>2023-01-07T15:32:41Z</time>
      </trkpt>
      <trkpt lat="49.07226" lon="2.00506">
        <ele>75.6</ele>
        <time>2023-01-07T15:32:46Z</time>
      </trkpt>
      <trkpt lat="49.07222" lon="2.00512">
        <ele>75.9</ele>
        <time>2023-01-07T15:32:51Z</time>
      </trkpt>
      <trkpt lat="49.07218" lon="2.00521">
        <ele>76.9</ele>
        <time>2023-01-07T15:32:57Z</time>
      </trkpt>
      <trkpt lat="49.07216" lon="2.00532">
        <ele>78</ele>
        <time>2023-01-07T15:33:03Z</time>
      </trkpt>
      <trkpt lat="49.07214" lon="2.00541">
        <ele>79</ele>
        <time>2023-01-07T15:33:08Z</time>
      </trkpt>
      <trkpt lat="49.0721" lon="2.00552">
        <ele>80.1</ele>
        <time>2023-01-07T15:33:14Z</time>
      </trkpt>
      <trkpt lat="49.07208" lon="2.0056">
        <ele>80.5</ele>
        <time>2023-01-07T15:33:19Z</time>
      </trkpt>
      <trkpt lat="49.07205" lon="2.00567">
        <ele>80.6</ele>
        <time>2023-01-07T15:33:24Z</time>
      </trkpt>
      <trkpt lat="49.07204" lon="2.00578">
        <ele>80.7</ele>
        <time>2023-01-07T15:33:30Z</time>
      </trkpt>
      <trkpt lat="49.07204" lon="2.00589">
        <ele>80.8</ele>
        <time>2023-01-07T15:33:36Z</time>
      </trkpt>
      <trkpt lat="49.07204" lon="2.00599">
        <ele>81</ele>
        <time>2023-01-07T15:33:41Z</time>
      </trkpt>
      <trkpt lat="49.07201" lon="2.00612">
        <ele>81.5</ele>
        <time>2023-01-07T15:33:47Z</time>
      </trkpt>
      <trkpt lat="49.07196" lon="2.00621">
        <ele>81.6</ele>
        <time>2023-01-07T15:33:52Z</time>
      </trkpt>
      <trkpt lat="49.0719" lon="2.00634">
        <ele>81.3</ele>
        <time>2023-01-07T15:33:58Z</time>
      </trkpt>
      <trkpt lat="49.07186" lon="2.00643">
        <ele>81.3</ele>
        <time>2023-01-07T15:34:03Z</time>
      </trkpt>
      <trkpt lat="49.07183" lon="2.00655">
        <ele>81.4</ele>
        <time>2023-01-07T15:34:09Z</time>
      </trkpt>
      <trkpt lat="49.0718" lon="2.00664">
        <ele>81.5</ele>
        <time>2023-01-07T15:34:14Z</time>
      </trkpt>
      <trkpt lat="49.07176" lon="2.00674">
        <ele>81.7</ele>
        <time>2023-01-07T15:34:20Z</time>
      </trkpt>
      <trkpt lat="49.07172" lon="2.00686">
        <ele>81.8</ele>
        <time>2023-01-07T15:34:26Z</time>
      </trkpt>
      <trkpt lat="49.07171" lon="2.00698">
        <ele>81.9</ele>
        <time>2023-01-07T15:34:31Z</time>
      </trkpt>
      <trkpt lat="49.07167" lon="2.00706">
        <ele>82</ele>
        <time>2023-01-07T15:34:36Z</time>
      </trkpt>
      <trkpt lat="49.07163" lon="2.00713">
        <ele>82</ele>
        <time>2023-01-07T15:34:42Z</time>
      </trkpt>
      <trkpt lat="49.07162" lon="2.00718">
        <ele>82</ele>
        <time>2023-01-07T15:34:47Z</time>
      </trkpt>
      <trkpt lat="49.07159" lon="2.00723">
        <ele>82</ele>
        <time>2023-01-07T15:34:52Z</time>
      </trkpt>
      <trkpt lat="49.07157" lon="2.00731">
        <ele>81.7</ele>
        <time>2023-01-07T15:34:58Z</time>
      </trkpt>
      <trkpt lat="49.07155" lon="2.00742">
        <ele>81.3</ele>
        <time>2023-01-07T15:35:04Z</time>
      </trkpt>
      <trkpt lat="49.07153" lon="2.00749">
        <ele>81</ele>
        <time>2023-01-07T15:35:09Z</time>
      </trkpt>
      <trkpt lat="49.07148" lon="2.00761">
        <ele>80.5</ele>
        <time>2023-01-07T15:35:15Z</time>
      </trkpt>
      <trkpt lat="49.07145" lon="2.00772">
        <ele>80.1</ele>
        <time>2023-01-07T15:35:20Z</time>
      </trkpt>
      <trkpt lat="49.07141" lon="2.0078">
        <ele>79.7</ele>
        <time>2023-01-07T15:35:25Z</time>
      </trkpt>
      <trkpt lat="49.07135" lon="2.00792">
        <ele>78.4</ele>
        <time>2023-01-07T15:35:31Z</time>
      </trkpt>
      <trkpt lat="49.07132" lon="2.00802">
        <ele>77.4</ele>
        <time>2023-01-07T15:35:37Z</time>
      </trkpt>
      <trkpt lat="49.07132" lon="2.00815">
        <ele>76.1</ele>
        <time>2023-01-07T15:35:43Z</time>
      </trkpt>
      <trkpt lat="49.07129" lon="2.00826">
        <ele>75.1</ele>
        <time>2023-01-07T15:35:49Z</time>
      </trkpt>
      <trkpt lat="49.07127" lon="2.00835">
        <ele>74.3</ele>
        <time>2023-01-07T15:35:54Z</time>
      </trkpt>
      <trkpt lat="49.07124" lon="2.00845">
        <ele>73.7</ele>
        <time>2023-01-07T15:36:00Z</time>
      </trkpt>
      <trkpt lat="49.07122" lon="2.00854">
        <ele>73.1</ele>
        <time>2023-01-07T15:36:05Z</time>
      </trkpt>
      <trkpt lat="49.07118" lon="2.00867">
        <ele>72.2</ele>
        <time>2023-01-07T15:36:11Z</time>
      </trkpt>
      <trkpt lat="49.07115" lon="2.00871">
        <ele>71.7</ele>
        <time>2023-01-07T15:36:16Z</time>
      </trkpt>
      <trkpt lat="49.07114" lon="2.0088">
        <ele>70.9</ele>
        <time>2023-01-07T15:36:22Z</time>
      </trkpt>
      <trkpt lat="49.07112" lon="2.00887">
        <ele>70.2</ele>
        <time>2023-01-07T15:36:27Z</time>
      </trkpt>
      <trkpt lat="49.0711" lon="2.00895">
        <ele>69.6</ele>
        <time>2023-01-07T15:36:32Z</time>
      </trkpt>
      <trkpt lat="49.07107" lon="2.00907">
        <ele>68.9</ele>
        <time>2023-01-07T15:36:38Z</time>
      </trkpt>
      <trkpt lat="49.07103" lon="2.00917">
        <ele>68.5</ele>
        <time>2023-01-07T15:36:43Z</time>
      </trkpt>
      <trkpt lat="49.07096" lon="2.00923">
        <ele>68.6</ele>
        <time>2023-01-07T15:36:48Z</time>
      </trkpt>
      <trkpt lat="49.07094" lon="2.00931">
        <ele>68.4</ele>
        <time>2023-01-07T15:36:54Z</time>
      </trkpt>
      <trkpt lat="49.07091" lon="2.00941">
        <ele>68.1</ele>
        <time>2023-01-07T15:36:59Z</time>
      </trkpt>
      <trkpt lat="49.07088" lon="2.00947">
        <ele>68.1</ele>
        <time>2023-01-07T15:37:04Z</time>
      </trkpt>
      <trkpt lat="49.07084" lon="2.00957">
        <ele>67.6</ele>
        <time>2023-01-07T15:37:10Z</time>
      </trkpt>
      <trkpt lat="49.07082" lon="2.00967">
        <ele>66.7</ele>
        <time>2023-01-07T15:37:15Z</time>
      </trkpt>
      <trkpt lat="49.07077" lon="2.0098">
        <ele>66.2</ele>
        <time>2023-01-07T15:37:21Z</time>
      </trkpt>
      <trkpt lat="49.07075" lon="2.0099">
        <ele>65.8</ele>
        <time>2023-01-07T15:37:26Z</time>
      </trkpt>
      <trkpt lat="49.07074" lon="2.01002">
        <ele>65.3</ele>
        <time>2023-01-07T15:37:32Z</time>
      </trkpt>
      <trkpt lat="49.07072" lon="2.01008">
        <ele>65.5</ele>
        <time>2023-01-07T15:37:37Z</time>
      </trkpt>
      <trkpt lat="49.07067" lon="2.01021">
        <ele>65.9</ele>
        <time>2023-01-07T15:37:43Z</time>
      </trkpt>
      <trkpt lat="49.07064" lon="2.01032">
        <ele>66.1</ele>
        <time>2023-01-07T15:37:49Z</time>
      </trkpt>
      <trkpt lat="49.0706" lon="2.01046">
        <ele>66.6</ele>
        <time>2023-01-07T15:37:55Z</time>
      </trkpt>
      <trkpt lat="49.07055" lon="2.01054">
        <ele>67</ele>
        <time>2023-01-07T15:38:00Z</time>
      </trkpt>
      <trkpt lat="49.07051" lon="2.01066">
        <ele>67.5</ele>
        <time>2023-01-07T15:38:06Z</time>
      </trkpt>
      <trkpt lat="49.07047" lon="2.01078">
        <ele>68.1</ele>
        <time>2023-01-07T15:38:12Z</time>
      </trkpt>
      <trkpt lat="49.07049" lon="2.01088">
        <ele>68.7</ele>
        <time>2023-01-07T15:38:18Z</time>
      </trkpt>
      <trkpt lat="49.0705" lon="2.0109">
        <ele>68.8</ele>
        <time>2023-01-07T15:38:23Z</time>
      </trkpt>
      <trkpt lat="49.0705" lon="2.01088">
        <ele>68.7</ele>
        <time>2023-01-07T15:38:29Z</time>
      </trkpt>
      <trkpt lat="49.07049" lon="2.01088">
        <ele>68.6</ele>
        <time>2023-01-07T15:38:34Z</time>
      </trkpt>
      <trkpt lat="49.07049" lon="2.01088">
        <ele>68.7</ele>
        <time>2023-01-07T15:38:40Z</time>
      </trkpt>
      <trkpt lat="49.07049" lon="2.01088">
        <ele>68.6</ele>
        <time>2023-01-07T15:38:46Z</time>
      </trkpt>
      <trkpt lat="49.07049" lon="2.01089">
        <ele>68.8</ele>
        <time>2023-01-07T15:38:51Z</time>
      </trkpt>
      <trkpt lat="49.07051" lon="2.01094">
        <ele>69.2</ele>
        <time>2023-01-07T15:38:56Z</time>
      </trkpt>
      <trkpt lat="49.07056" lon="2.01103">
        <ele>70.2</ele>
        <time>2023-01-07T15:39:02Z</time>
      </trkpt>
      <trkpt lat="49.07059" lon="2.0111">
        <ele>71</ele>
        <time>2023-01-07T15:39:07Z</time>
      </trkpt>
      <trkpt lat="49.07065" lon="2.01118">
        <ele>72.5</ele>
        <time>2023-01-07T15:39:13Z</time>
      </trkpt>
      <trkpt lat="49.07069" lon="2.01125">
        <ele>73.7</ele>
        <time>2023-01-07T15:39:18Z</time>
      </trkpt>
      <trkpt lat="49.07074" lon="2.01125">
        <ele>74.1</ele>
        <time>2023-01-07T15:39:23Z</time>
      </trkpt>
      <trkpt lat="49.07079" lon="2.01127">
        <ele>74.6</ele>
        <time>2023-01-07T15:39:29Z</time>
      </trkpt>
      <trkpt lat="49.07085" lon="2.01129">
        <ele>75.3</ele>
        <time>2023-01-07T15:39:34Z</time>
      </trkpt>
      <trkpt lat="49.07092" lon="2.01132">
        <ele>76.3</ele>
        <time>2023-01-07T15:39:40Z</time>
      </trkpt>
      <trkpt lat="49.071" lon="2.01135">
        <ele>77.5</ele>
        <time>2023-01-07T15:39:46Z</time>
      </trkpt>
      <trkpt lat="49.07105" lon="2.01138">
        <ele>78.4</ele>
        <time>2023-01-07T15:39:52Z</time>
      </trkpt>
      <trkpt lat="49.0711" lon="2.01141">
        <ele>79.3</ele>
        <time>2023-01-07T15:39:58Z</time>
      </trkpt>
      <trkpt lat="49.07116" lon="2.01144">
        <ele>80.2</ele>
        <time>2023-01-07T15:40:04Z</time>
      </trkpt>
      <trkpt lat="49.07118" lon="2.01142">
        <ele>80</ele>
        <time>2023-01-07T15:40:10Z</time>
      </trkpt>
      <trkpt lat="49.07118" lon="2.01142">
        <ele>80</ele>
        <time>2023-01-07T15:40:16Z</time>
      </trkpt>
      <trkpt lat="49.07118" lon="2.01142">
        <ele>80</ele>
        <time>2023-01-07T15:40:21Z</time>
      </trkpt>
      <trkpt lat="49.07118" lon="2.01142">
        <ele>79.9</ele>
        <time>2023-01-07T15:40:26Z</time>
      </trkpt>
      <trkpt lat="49.07117" lon="2.01141">
        <ele>79.9</ele>
        <time>2023-01-07T15:40:32Z</time>
      </trkpt>
      <trkpt lat="49.07117" lon="2.01141">
        <ele>79.8</ele>
        <time>2023-01-07T15:40:38Z</time>
      </trkpt>
      <trkpt lat="49.07117" lon="2.0114">
        <ele>79.7</ele>
        <time>2023-01-07T15:40:44Z</time>
      </trkpt>
      <trkpt lat="49.07117" lon="2.0114">
        <ele>79.7</ele>
        <time>2023-01-07T15:40:49Z</time>
      </trkpt>
      <trkpt lat="49.07117" lon="2.01141">
        <ele>79.7</ele>
        <time>2023-01-07T15:40:55Z</time>
      </trkpt>
      <trkpt lat="49.07117" lon="2.01141">
        <ele>79.8</ele>
        <time>2023-01-07T15:41:01Z</time>
      </trkpt>
      <trkpt lat="49.07117" lon="2.01141">
        <ele>79.8</ele>
        <time>2023-01-07T15:41:06Z</time>
      </trkpt>
      <trkpt lat="49.07117" lon="2.01142">
        <ele>79.9</ele>
        <time>2023-01-07T15:41:12Z</time>
      </trkpt>
      <trkpt lat="49.07117" lon="2.01144">
        <ele>80.4</ele>
        <time>2023-01-07T15:41:18Z</time>
      </trkpt>
      <trkpt lat="49.07117" lon="2.01145">
        <ele>80.5</ele>
        <time>2023-01-07T15:41:23Z</time>
      </trkpt>
      <trkpt lat="49.07117" lon="2.01149">
        <ele>81.2</ele>
        <time>2023-01-07T15:41:29Z</time>
      </trkpt>
      <trkpt lat="49.07119" lon="2.01146">
        <ele>80.8</ele>
        <time>2023-01-07T15:41:35Z</time>
      </trkpt>
      <trkpt lat="49.0712" lon="2.01152">
        <ele>81.9</ele>
        <time>2023-01-07T15:41:41Z</time>
      </trkpt>
      <trkpt lat="49.07121" lon="2.01157">
        <ele>82.7</ele>
        <time>2023-01-07T15:41:47Z</time>
      </trkpt>
      <trkpt lat="49.07121" lon="2.01164">
        <ele>84</ele>
        <time>2023-01-07T15:41:53Z</time>
      </trkpt>
      <trkpt lat="49.0712" lon="2.01166">
        <ele>84.2</ele>
        <time>2023-01-07T15:41:59Z</time>
      </trkpt>
      <trkpt lat="49.07115" lon="2.01167">
        <ele>84.1</ele>
        <time>2023-01-07T15:42:05Z</time>
      </trkpt>
      <trkpt lat="49.07108" lon="2.01172">
        <ele>84.4</ele>
        <time>2023-01-07T15:42:10Z</time>
      </trkpt>
      <trkpt lat="49.07103" lon="2.01177">
        <ele>84.7</ele>
        <time>2023-01-07T15:42:16Z</time>
      </trkpt>
      <trkpt lat="49.07096" lon="2.01183">
        <ele>84.9</ele>
        <time>2023-01-07T15:42:22Z</time>
      </trkpt>
      <trkpt lat="49.07092" lon="2.01189">
        <ele>85.7</ele>
        <time>2023-01-07T15:42:28Z</time>
      </trkpt>
      <trkpt lat="49.07086" lon="2.01195">
        <ele>86.3</ele>
        <time>2023-01-07T15:42:33Z</time>
      </trkpt>
      <trkpt lat="49.07083" lon="2.01202">
        <ele>87.1</ele>
        <time>2023-01-07T15:42:38Z</time>
      </trkpt>
      <trkpt lat="49.07078" lon="2.01211">
        <ele>88</ele>
        <time>2023-01-07T15:42:44Z</time>
      </trkpt>
      <trkpt lat="49.07073" lon="2.01216">
        <ele>88.3</ele>
        <time>2023-01-07T15:42:49Z</time>
      </trkpt>
      <trkpt lat="49.07068" lon="2.01223">
        <ele>89.1</ele>
        <time>2023-01-07T15:42:55Z</time>
      </trkpt>
      <trkpt lat="49.07065" lon="2.01233">
        <ele>90.3</ele>
        <time>2023-01-07T15:43:00Z</time>
      </trkpt>
      <trkpt lat="49.07061" lon="2.01238">
        <ele>91.1</ele>
        <time>2023-01-07T15:43:06Z</time>
      </trkpt>
      <trkpt lat="49.07056" lon="2.01248">
        <ele>92.6</ele>
        <time>2023-01-07T15:43:12Z</time>
      </trkpt>
      <trkpt lat="49.07051" lon="2.01254">
        <ele>93.3</ele>
        <time>2023-01-07T15:43:18Z</time>
      </trkpt>
      <trkpt lat="49.07045" lon="2.0126">
        <ele>93.8</ele>
        <time>2023-01-07T15:43:23Z</time>
      </trkpt>
      <trkpt lat="49.07041" lon="2.01267">
        <ele>94.6</ele>
        <time>2023-01-07T15:43:29Z</time>
      </trkpt>
      <trkpt lat="49.07038" lon="2.01272">
        <ele>95.2</ele>
        <time>2023-01-07T15:43:34Z</time>
      </trkpt>
      <trkpt lat="49.07032" lon="2.01274">
        <ele>95.5</ele>
        <time>2023-01-07T15:43:40Z</time>
      </trkpt>
      <trkpt lat="49.07027" lon="2.01276">
        <ele>95.8</ele>
        <time>2023-01-07T15:43:46Z</time>
      </trkpt>
      <trkpt lat="49.07024" lon="2.01278">
        <ele>96</ele>
        <time>2023-01-07T15:43:52Z</time>
      </trkpt>
      <trkpt lat="49.07016" lon="2.01285">
        <ele>97</ele>
        <time>2023-01-07T15:43:58Z</time>
      </trkpt>
      <trkpt lat="49.07008" lon="2.01289">
        <ele>97.6</ele>
        <time>2023-01-07T15:44:04Z</time>
      </trkpt>
      <trkpt lat="49.07001" lon="2.01292">
        <ele>98.1</ele>
        <time>2023-01-07T15:44:10Z</time>
      </trkpt>
      <trkpt lat="49.06995" lon="2.01294">
        <ele>98.3</ele>
        <time>2023-01-07T15:44:15Z</time>
      </trkpt>
      <trkpt lat="49.0699" lon="2.01297">
        <ele>98.8</ele>
        <time>2023-01-07T15:44:21Z</time>
      </trkpt>
      <trkpt lat="49.06983" lon="2.01297">
        <ele>98.8</ele>
        <time>2023-01-07T15:44:27Z</time>
      </trkpt>
      <trkpt lat="49.06975" lon="2.01303">
        <ele>99.6</ele>
        <time>2023-01-07T15:44:33Z</time>
      </trkpt>
      <trkpt lat="49.0697" lon="2.01311">
        <ele>100.2</ele>
        <time>2023-01-07T15:44:39Z</time>
      </trkpt>
      <trkpt lat="49.06965" lon="2.01318">
        <ele>100.5</ele>
        <time>2023-01-07T15:44:44Z</time>
      </trkpt>
      <trkpt lat="49.06962" lon="2.01331">
        <ele>101.4</ele>
        <time>2023-01-07T15:44:50Z</time>
      </trkpt>
      <trkpt lat="49.06961" lon="2.01338">
        <ele>101.7</ele>
        <time>2023-01-07T15:44:55Z</time>
      </trkpt>
      <trkpt lat="49.0696" lon="2.01349">
        <ele>102.1</ele>
        <time>2023-01-07T15:45:00Z</time>
      </trkpt>
      <trkpt lat="49.06961" lon="2.01357">
        <ele>102.5</ele>
        <time>2023-01-07T15:45:05Z</time>
      </trkpt>
      <trkpt lat="49.0696" lon="2.01365">
        <ele>102.7</ele>
        <time>2023-01-07T15:45:10Z</time>
      </trkpt>
      <trkpt lat="49.06959" lon="2.01374">
        <ele>103</ele>
        <time>2023-01-07T15:45:16Z</time>
      </trkpt>
      <trkpt lat="49.06958" lon="2.01386">
        <ele>103.4</ele>
        <time>2023-01-07T15:45:22Z</time>
      </trkpt>
      <trkpt lat="49.06959" lon="2.01399">
        <ele>103.7</ele>
        <time>2023-01-07T15:45:27Z</time>
      </trkpt>
      <trkpt lat="49.0696" lon="2.01407">
        <ele>103.8</ele>
        <time>2023-01-07T15:45:32Z</time>
      </trkpt>
      <trkpt lat="49.06962" lon="2.0141">
        <ele>103.9</ele>
        <time>2023-01-07T15:45:38Z</time>
      </trkpt>
      <trkpt lat="49.06963" lon="2.01413">
        <ele>104</ele>
        <time>2023-01-07T15:45:43Z</time>
      </trkpt>
      <trkpt lat="49.06967" lon="2.01427">
        <ele>104</ele>
        <time>2023-01-07T15:45:49Z</time>
      </trkpt>
      <trkpt lat="49.0697" lon="2.01433">
        <ele>104</ele>
        <time>2023-01-07T15:45:54Z</time>
      </trkpt>
      <trkpt lat="49.06974" lon="2.01442">
        <ele>103.9</ele>
        <time>2023-01-07T15:46:00Z</time>
      </trkpt>
      <trkpt lat="49.06978" lon="2.0145">
        <ele>103.5</ele>
        <time>2023-01-07T15:46:05Z</time>
      </trkpt>
      <trkpt lat="49.06978" lon="2.01464">
        <ele>103</ele>
        <time>2023-01-07T15:46:11Z</time>
      </trkpt>
      <trkpt lat="49.06978" lon="2.0148">
        <ele>102.8</ele>
        <time>2023-01-07T15:46:17Z</time>
      </trkpt>
      <trkpt lat="49.06976" lon="2.01492">
        <ele>102.9</ele>
        <time>2023-01-07T15:46:23Z</time>
      </trkpt>
      <trkpt lat="49.06976" lon="2.01498">
        <ele>102.8</ele>
        <time>2023-01-07T15:46:28Z</time>
      </trkpt>
      <trkpt lat="49.06982" lon="2.01505">
        <ele>102.7</ele>
        <time>2023-01-07T15:46:34Z</time>
      </trkpt>
      <trkpt lat="49.06983" lon="2.01517">
        <ele>102.6</ele>
        <time>2023-01-07T15:46:39Z</time>
      </trkpt>
      <trkpt lat="49.06985" lon="2.01532">
        <ele>102.6</ele>
        <time>2023-01-07T15:46:45Z</time>
      </trkpt>
      <trkpt lat="49.06989" lon="2.01544">
        <ele>102.6</ele>
        <time>2023-01-07T15:46:50Z</time>
      </trkpt>
      <trkpt lat="49.06991" lon="2.01555">
        <ele>102.7</ele>
        <time>2023-01-07T15:46:56Z</time>
      </trkpt>
      <trkpt lat="49.06994" lon="2.01563">
        <ele>102.7</ele>
        <time>2023-01-07T15:47:01Z</time>
      </trkpt>
      <trkpt lat="49.06996" lon="2.01569">
        <ele>102.7</ele>
        <time>2023-01-07T15:47:07Z</time>
      </trkpt>
      <trkpt lat="49.07" lon="2.01577">
        <ele>102.8</ele>
        <time>2023-01-07T15:47:12Z</time>
      </trkpt>
      <trkpt lat="49.07002" lon="2.0159">
        <ele>102.9</ele>
        <time>2023-01-07T15:47:18Z</time>
      </trkpt>
      <trkpt lat="49.07006" lon="2.01599">
        <ele>102.7</ele>
        <time>2023-01-07T15:47:23Z</time>
      </trkpt>
      <trkpt lat="49.0701" lon="2.0161">
        <ele>102.6</ele>
        <time>2023-01-07T15:47:29Z</time>
      </trkpt>
      <trkpt lat="49.07011" lon="2.01619">
        <ele>102.8</ele>
        <time>2023-01-07T15:47:34Z</time>
      </trkpt>
      <trkpt lat="49.07013" lon="2.01628">
        <ele>102.9</ele>
        <time>2023-01-07T15:47:40Z</time>
      </trkpt>
      <trkpt lat="49.07016" lon="2.01633">
        <ele>102.8</ele>
        <time>2023-01-07T15:47:45Z</time>
      </trkpt>
      <trkpt lat="49.07018" lon="2.01637">
        <ele>102.7</ele>
        <time>2023-01-07T15:47:51Z</time>
      </trkpt>
      <trkpt lat="49.07028" lon="2.01637">
        <ele>102</ele>
        <time>2023-01-07T15:47:57Z</time>
      </trkpt>
      <trkpt lat="49.07031" lon="2.0164">
        <ele>101.9</ele>
        <time>2023-01-07T15:48:02Z</time>
      </trkpt>
      <trkpt lat="49.07036" lon="2.01646">
        <ele>102</ele>
        <time>2023-01-07T15:48:07Z</time>
      </trkpt>
      <trkpt lat="49.07043" lon="2.01652">
        <ele>101.9</ele>
        <time>2023-01-07T15:48:13Z</time>
      </trkpt>
      <trkpt lat="49.07048" lon="2.01659">
        <ele>102</ele>
        <time>2023-01-07T15:48:18Z</time>
      </trkpt>
      <trkpt lat="49.07051" lon="2.01665">
        <ele>102.1</ele>
        <time>2023-01-07T15:48:23Z</time>
      </trkpt>
      <trkpt lat="49.07054" lon="2.01672">
        <ele>102.1</ele>
        <time>2023-01-07T15:48:29Z</time>
      </trkpt>
      <trkpt lat="49.07059" lon="2.0168">
        <ele>101.7</ele>
        <time>2023-01-07T15:48:35Z</time>
      </trkpt>
      <trkpt lat="49.07062" lon="2.01689">
        <ele>101.5</ele>
        <time>2023-01-07T15:48:40Z</time>
      </trkpt>
      <trkpt lat="49.07068" lon="2.01694">
        <ele>101.1</ele>
        <time>2023-01-07T15:48:45Z</time>
      </trkpt>
      <trkpt lat="49.07075" lon="2.017">
        <ele>100.6</ele>
        <time>2023-01-07T15:48:51Z</time>
      </trkpt>
      <trkpt lat="49.0708" lon="2.01703">
        <ele>100.2</ele>
        <time>2023-01-07T15:48:56Z</time>
      </trkpt>
      <trkpt lat="49.07086" lon="2.01708">
        <ele>99.9</ele>
        <time>2023-01-07T15:49:01Z</time>
      </trkpt>
      <trkpt lat="49.07089" lon="2.01715">
        <ele>99.8</ele>
        <time>2023-01-07T15:49:06Z</time>
      </trkpt>
      <trkpt lat="49.07088" lon="2.01719">
        <ele>99.8</ele>
        <time>2023-01-07T15:49:11Z</time>
      </trkpt>
      <trkpt lat="49.07088" lon="2.01729">
        <ele>99.8</ele>
        <time>2023-01-07T15:49:17Z</time>
      </trkpt>
      <trkpt lat="49.07092" lon="2.01737">
        <ele>99.5</ele>
        <time>2023-01-07T15:49:23Z</time>
      </trkpt>
      <trkpt lat="49.07095" lon="2.01745">
        <ele>99.2</ele>
        <time>2023-01-07T15:49:29Z</time>
      </trkpt>
      <trkpt lat="49.07098" lon="2.01754">
        <ele>98.9</ele>
        <time>2023-01-07T15:49:34Z</time>
      </trkpt>
      <trkpt lat="49.07102" lon="2.01768">
        <ele>98.4</ele>
        <time>2023-01-07T15:49:40Z</time>
      </trkpt>
      <trkpt lat="49.07106" lon="2.01778">
        <ele>98.2</ele>
        <time>2023-01-07T15:49:46Z</time>
      </trkpt>
      <trkpt lat="49.0711" lon="2.01785">
        <ele>97.8</ele>
        <time>2023-01-07T15:49:51Z</time>
      </trkpt>
      <trkpt lat="49.07113" lon="2.01797">
        <ele>97.2</ele>
        <time>2023-01-07T15:49:57Z</time>
      </trkpt>
      <trkpt lat="49.07117" lon="2.01803">
        <ele>96.9</ele>
        <time>2023-01-07T15:50:03Z</time>
      </trkpt>
      <trkpt lat="49.07118" lon="2.01804">
        <ele>96.8</ele>
        <time>2023-01-07T15:50:09Z</time>
      </trkpt>
      <trkpt lat="49.07119" lon="2.01804">
        <ele>96.8</ele>
        <time>2023-01-07T15:50:15Z</time>
      </trkpt>
      <trkpt lat="49.07119" lon="2.01804">
        <ele>96.7</ele>
        <time>2023-01-07T15:50:21Z</time>
      </trkpt>
      <trkpt lat="49.07119" lon="2.01804">
        <ele>96.8</ele>
        <time>2023-01-07T15:50:26Z</time>
      </trkpt>
      <trkpt lat="49.07119" lon="2.01804">
        <ele>96.8</ele>
        <time>2023-01-07T15:50:32Z</time>
      </trkpt>
      <trkpt lat="49.0712" lon="2.01807">
        <ele>96.7</ele>
        <time>2023-01-07T15:50:38Z</time>
      </trkpt>
      <trkpt lat="49.07123" lon="2.01814">
        <ele>96.5</ele>
        <time>2023-01-07T15:50:43Z</time>
      </trkpt>
      <trkpt lat="49.07128" lon="2.01824">
        <ele>96</ele>
        <time>2023-01-07T15:50:49Z</time>
      </trkpt>
      <trkpt lat="49.07131" lon="2.01834">
        <ele>95.6</ele>
        <time>2023-01-07T15:50:55Z</time>
      </trkpt>
      <trkpt lat="49.07134" lon="2.01846">
        <ele>95.4</ele>
        <time>2023-01-07T15:51:01Z</time>
      </trkpt>
      <trkpt lat="49.07136" lon="2.01856">
        <ele>95.2</ele>
        <time>2023-01-07T15:51:06Z</time>
      </trkpt>
      <trkpt lat="49.07139" lon="2.01866">
        <ele>94.8</ele>
        <time>2023-01-07T15:51:12Z</time>
      </trkpt>
      <trkpt lat="49.07142" lon="2.01877">
        <ele>94.3</ele>
        <time>2023-01-07T15:51:18Z</time>
      </trkpt>
      <trkpt lat="49.07146" lon="2.01888">
        <ele>93.8</ele>
        <time>2023-01-07T15:51:24Z</time>
      </trkpt>
      <trkpt lat="49.07149" lon="2.01899">
        <ele>93.5</ele>
        <time>2023-01-07T15:51:29Z</time>
      </trkpt>
      <trkpt lat="49.0715" lon="2.01909">
        <ele>93.3</ele>
        <time>2023-01-07T15:51:34Z</time>
      </trkpt>
      <trkpt lat="49.07153" lon="2.01918">
        <ele>92.9</ele>
        <time>2023-01-07T15:51:39Z</time>
      </trkpt>
      <trkpt lat="49.07155" lon="2.01929">
        <ele>92.4</ele>
        <time>2023-01-07T15:51:45Z</time>
      </trkpt>
      <trkpt lat="49.07157" lon="2.01942">
        <ele>91.7</ele>
        <time>2023-01-07T15:51:51Z</time>
      </trkpt>
      <trkpt lat="49.07158" lon="2.01952">
        <ele>91.6</ele>
        <time>2023-01-07T15:51:56Z</time>
      </trkpt>
      <trkpt lat="49.0716" lon="2.01961">
        <ele>91.5</ele>
        <time>2023-01-07T15:52:01Z</time>
      </trkpt>
      <trkpt lat="49.07161" lon="2.01972">
        <ele>91.4</ele>
        <time>2023-01-07T15:52:07Z</time>
      </trkpt>
      <trkpt lat="49.07163" lon="2.01983">
        <ele>90.9</ele>
        <time>2023-01-07T15:52:12Z</time>
      </trkpt>
      <trkpt lat="49.07165" lon="2.01994">
        <ele>90.4</ele>
        <time>2023-01-07T15:52:18Z</time>
      </trkpt>
      <trkpt lat="49.07166" lon="2.02004">
        <ele>90</ele>
        <time>2023-01-07T15:52:23Z</time>
      </trkpt>
      <trkpt lat="49.07168" lon="2.02013">
        <ele>89.9</ele>
        <time>2023-01-07T15:52:29Z</time>
      </trkpt>
      <trkpt lat="49.07171" lon="2.02023">
        <ele>89.7</ele>
        <time>2023-01-07T15:52:35Z</time>
      </trkpt>
      <trkpt lat="49.07173" lon="2.02035">
        <ele>89.5</ele>
        <time>2023-01-07T15:52:41Z</time>
      </trkpt>
      <trkpt lat="49.07175" lon="2.02048">
        <ele>89.4</ele>
        <time>2023-01-07T15:52:47Z</time>
      </trkpt>
      <trkpt lat="49.07176" lon="2.0206">
        <ele>89.2</ele>
        <time>2023-01-07T15:52:52Z</time>
      </trkpt>
      <trkpt lat="49.07176" lon="2.0207">
        <ele>88.8</ele>
        <time>2023-01-07T15:52:57Z</time>
      </trkpt>
      <trkpt lat="49.07178" lon="2.02082">
        <ele>88.2</ele>
        <time>2023-01-07T15:53:03Z</time>
      </trkpt>
      <trkpt lat="49.07179" lon="2.02094">
        <ele>88.1</ele>
        <time>2023-01-07T15:53:08Z</time>
      </trkpt>
      <trkpt lat="49.07182" lon="2.02103">
        <ele>87.9</ele>
        <time>2023-01-07T15:53:13Z</time>
      </trkpt>
      <trkpt lat="49.07184" lon="2.02114">
        <ele>87.8</ele>
        <time>2023-01-07T15:53:19Z</time>
      </trkpt>
      <trkpt lat="49.07185" lon="2.02128">
        <ele>87.7</ele>
        <time>2023-01-07T15:53:25Z</time>
      </trkpt>
      <trkpt lat="49.07187" lon="2.02136">
        <ele>87.5</ele>
        <time>2023-01-07T15:53:30Z</time>
      </trkpt>
      <trkpt lat="49.07189" lon="2.02147">
        <ele>87.1</ele>
        <time>2023-01-07T15:53:36Z</time>
      </trkpt>
      <trkpt lat="49.07192" lon="2.02155">
        <ele>86.6</ele>
        <time>2023-01-07T15:53:42Z</time>
      </trkpt>
      <trkpt lat="49.07195" lon="2.02163">
        <ele>86.1</ele>
        <time>2023-01-07T15:53:47Z</time>
      </trkpt>
      <trkpt lat="49.072" lon="2.02175">
        <ele>85.7</ele>
        <time>2023-01-07T15:53:53Z</time>
      </trkpt>
      <trkpt lat="49.07206" lon="2.02187">
        <ele>85.3</ele>
        <time>2023-01-07T15:53:59Z</time>
      </trkpt>
      <trkpt lat="49.07211" lon="2.02197">
        <ele>84.8</ele>
        <time>2023-01-07T15:54:05Z</time>
      </trkpt>
      <trkpt lat="49.07213" lon="2.02207">
        <ele>84.6</ele>
        <time>2023-01-07T15:54:10Z</time>
      </trkpt>
      <trkpt lat="49.07219" lon="2.02218">
        <ele>84.2</ele>
        <time>2023-01-07T15:54:16Z</time>
      </trkpt>
      <trkpt lat="49.07222" lon="2.02227">
        <ele>83.8</ele>
        <time>2023-01-07T15:54:21Z</time>
      </trkpt>
      <trkpt lat="49.07224" lon="2.02238">
        <ele>83.3</ele>
        <time>2023-01-07T15:54:27Z</time>
      </trkpt>
      <trkpt lat="49.07227" lon="2.02249">
        <ele>82.8</ele>
        <time>2023-01-07T15:54:33Z</time>
      </trkpt>
      <trkpt lat="49.0723" lon="2.02259">
        <ele>82.6</ele>
        <time>2023-01-07T15:54:39Z</time>
      </trkpt>
      <trkpt lat="49.07234" lon="2.02269">
        <ele>82.3</ele>
        <time>2023-01-07T15:54:45Z</time>
      </trkpt>
      <trkpt lat="49.07237" lon="2.02279">
        <ele>81.9</ele>
        <time>2023-01-07T15:54:50Z</time>
      </trkpt>
      <trkpt lat="49.07242" lon="2.02294">
        <ele>81.5</ele>
        <time>2023-01-07T15:54:56Z</time>
      </trkpt>
      <trkpt lat="49.07245" lon="2.02305">
        <ele>81.3</ele>
        <time>2023-01-07T15:55:02Z</time>
      </trkpt>
      <trkpt lat="49.07249" lon="2.02314">
        <ele>81.1</ele>
        <time>2023-01-07T15:55:07Z</time>
      </trkpt>
      <trkpt lat="49.07253" lon="2.02324">
        <ele>80.6</ele>
        <time>2023-01-07T15:55:13Z</time>
      </trkpt>
      <trkpt lat="49.07258" lon="2.02332">
        <ele>80.2</ele>
        <time>2023-01-07T15:55:18Z</time>
      </trkpt>
      <trkpt lat="49.07262" lon="2.02341">
        <ele>79.7</ele>
        <time>2023-01-07T15:55:24Z</time>
      </trkpt>
      <trkpt lat="49.07266" lon="2.02347">
        <ele>79.3</ele>
        <time>2023-01-07T15:55:29Z</time>
      </trkpt>
      <trkpt lat="49.07268" lon="2.02355">
        <ele>79.1</ele>
        <time>2023-01-07T15:55:35Z</time>
      </trkpt>
      <trkpt lat="49.07271" lon="2.02363">
        <ele>78.7</ele>
        <time>2023-01-07T15:55:40Z</time>
      </trkpt>
      <trkpt lat="49.07275" lon="2.02372">
        <ele>78.4</ele>
        <time>2023-01-07T15:55:45Z</time>
      </trkpt>
      <trkpt lat="49.07275" lon="2.02381">
        <ele>78.3</ele>
        <time>2023-01-07T15:55:51Z</time>
      </trkpt>
      <trkpt lat="49.07278" lon="2.02388">
        <ele>78</ele>
        <time>2023-01-07T15:55:56Z</time>
      </trkpt>
      <trkpt lat="49.07282" lon="2.02396">
        <ele>77</ele>
        <time>2023-01-07T15:56:02Z</time>
      </trkpt>
      <trkpt lat="49.07285" lon="2.02407">
        <ele>76.2</ele>
        <time>2023-01-07T15:56:07Z</time>
      </trkpt>
      <trkpt lat="49.07288" lon="2.02421">
        <ele>75.5</ele>
        <time>2023-01-07T15:56:12Z</time>
      </trkpt>
      <trkpt lat="49.0729" lon="2.02432">
        <ele>75.2</ele>
        <time>2023-01-07T15:56:18Z</time>
      </trkpt>
      <trkpt lat="49.07293" lon="2.02439">
        <ele>74.8</ele>
        <time>2023-01-07T15:56:23Z</time>
      </trkpt>
      <trkpt lat="49.07294" lon="2.02447">
        <ele>74.6</ele>
        <time>2023-01-07T15:56:28Z</time>
      </trkpt>
      <trkpt lat="49.07295" lon="2.02461">
        <ele>74.6</ele>
        <time>2023-01-07T15:56:34Z</time>
      </trkpt>
      <trkpt lat="49.07295" lon="2.02476">
        <ele>74.4</ele>
        <time>2023-01-07T15:56:40Z</time>
      </trkpt>
      <trkpt lat="49.07297" lon="2.02486">
        <ele>74</ele>
        <time>2023-01-07T15:56:45Z</time>
      </trkpt>
      <trkpt lat="49.07298" lon="2.02493">
        <ele>73.9</ele>
        <time>2023-01-07T15:56:51Z</time>
      </trkpt>
      <trkpt lat="49.07299" lon="2.02501">
        <ele>73.7</ele>
        <time>2023-01-07T15:56:56Z</time>
      </trkpt>
      <trkpt lat="49.07299" lon="2.02513">
        <ele>73.2</ele>
        <time>2023-01-07T15:57:02Z</time>
      </trkpt>
      <trkpt lat="49.073" lon="2.02521">
        <ele>72.9</ele>
        <time>2023-01-07T15:57:07Z</time>
      </trkpt>
      <trkpt lat="49.073" lon="2.02534">
        <ele>72.1</ele>
        <time>2023-01-07T15:57:13Z</time>
      </trkpt>
      <trkpt lat="49.07297" lon="2.02547">
        <ele>71.3</ele>
        <time>2023-01-07T15:57:19Z</time>
      </trkpt>
      <trkpt lat="49.07295" lon="2.02558">
        <ele>70.7</ele>
        <time>2023-01-07T15:57:25Z</time>
      </trkpt>
      <trkpt lat="49.07293" lon="2.02569">
        <ele>70.6</ele>
        <time>2023-01-07T15:57:30Z</time>
      </trkpt>
      <trkpt lat="49.07293" lon="2.02582">
        <ele>70</ele>
        <time>2023-01-07T15:57:36Z</time>
      </trkpt>
      <trkpt lat="49.07291" lon="2.02596">
        <ele>69.8</ele>
        <time>2023-01-07T15:57:41Z</time>
      </trkpt>
      <trkpt lat="49.0729" lon="2.02614">
        <ele>69.6</ele>
        <time>2023-01-07T15:57:47Z</time>
      </trkpt>
      <trkpt lat="49.0729" lon="2.02625">
        <ele>69.1</ele>
        <time>2023-01-07T15:57:53Z</time>
      </trkpt>
      <trkpt lat="49.0729" lon="2.02634">
        <ele>68.8</ele>
        <time>2023-01-07T15:57:58Z</time>
      </trkpt>
      <trkpt lat="49.07291" lon="2.02644">
        <ele>68.2</ele>
        <time>2023-01-07T15:58:04Z</time>
      </trkpt>
      <trkpt lat="49.07294" lon="2.02654">
        <ele>67.7</ele>
        <time>2023-01-07T15:58:09Z</time>
      </trkpt>
      <trkpt lat="49.073" lon="2.02662">
        <ele>67.2</ele>
        <time>2023-01-07T15:58:15Z</time>
      </trkpt>
      <trkpt lat="49.07303" lon="2.02667">
        <ele>67</ele>
        <time>2023-01-07T15:58:20Z</time>
      </trkpt>
      <trkpt lat="49.0731" lon="2.02679">
        <ele>64.9</ele>
        <time>2023-01-07T15:58:26Z</time>
      </trkpt>
      <trkpt lat="49.07315" lon="2.02688">
        <ele>63.5</ele>
        <time>2023-01-07T15:58:31Z</time>
      </trkpt>
      <trkpt lat="49.07319" lon="2.02697">
        <ele>62.1</ele>
        <time>2023-01-07T15:58:37Z</time>
      </trkpt>
      <trkpt lat="49.07322" lon="2.02707">
        <ele>60.6</ele>
        <time>2023-01-07T15:58:43Z</time>
      </trkpt>
      <trkpt lat="49.07326" lon="2.02717">
        <ele>59.5</ele>
        <time>2023-01-07T15:58:48Z</time>
      </trkpt>
      <trkpt lat="49.07331" lon="2.02727">
        <ele>58.4</ele>
        <time>2023-01-07T15:58:54Z</time>
      </trkpt>
      <trkpt lat="49.07335" lon="2.02737">
        <ele>57.3</ele>
        <time>2023-01-07T15:58:59Z</time>
      </trkpt>
      <trkpt lat="49.07339" lon="2.02747">
        <ele>56</ele>
        <time>2023-01-07T15:59:05Z</time>
      </trkpt>
      <trkpt lat="49.07342" lon="2.02755">
        <ele>55</ele>
        <time>2023-01-07T15:59:10Z</time>
      </trkpt>
      <trkpt lat="49.07348" lon="2.02761">
        <ele>54.1</ele>
        <time>2023-01-07T15:59:15Z</time>
      </trkpt>
      <trkpt lat="49.07353" lon="2.0277">
        <ele>52.9</ele>
        <time>2023-01-07T15:59:20Z</time>
      </trkpt>
      <trkpt lat="49.07358" lon="2.02781">
        <ele>51.7</ele>
        <time>2023-01-07T15:59:26Z</time>
      </trkpt>
      <trkpt lat="49.07363" lon="2.02792">
        <ele>50.7</ele>
        <time>2023-01-07T15:59:32Z</time>
      </trkpt>
      <trkpt lat="49.07366" lon="2.028">
        <ele>49.8</ele>
        <time>2023-01-07T15:59:37Z</time>
      </trkpt>
      <trkpt lat="49.07368" lon="2.02816">
        <ele>48.7</ele>
        <time>2023-01-07T15:59:43Z</time>
      </trkpt>
      <trkpt lat="49.0737" lon="2.02831">
        <ele>47.8</ele>
        <time>2023-01-07T15:59:48Z</time>
      </trkpt>
      <trkpt lat="49.07371" lon="2.02843">
        <ele>47.3</ele>
        <time>2023-01-07T15:59:53Z</time>
      </trkpt>
      <trkpt lat="49.07371" lon="2.02857">
        <ele>46.8</ele>
        <time>2023-01-07T15:59:59Z</time>
      </trkpt>
      <trkpt lat="49.0737" lon="2.02867">
        <ele>46.5</ele>
        <time>2023-01-07T16:00:04Z</time>
      </trkpt>
      <trkpt lat="49.07374" lon="2.02877">
        <ele>46.2</ele>
        <time>2023-01-07T16:00:09Z</time>
      </trkpt>
      <trkpt lat="49.07377" lon="2.02884">
        <ele>46.1</ele>
        <time>2023-01-07T16:00:15Z</time>
      </trkpt>
      <trkpt lat="49.07378" lon="2.02889">
        <ele>46</ele>
        <time>2023-01-07T16:00:20Z</time>
      </trkpt>
      <trkpt lat="49.07381" lon="2.029">
        <ele>45.5</ele>
        <time>2023-01-07T16:00:26Z</time>
      </trkpt>
      <trkpt lat="49.07383" lon="2.0291">
        <ele>45.1</ele>
        <time>2023-01-07T16:00:32Z</time>
      </trkpt>
      <trkpt lat="49.07385" lon="2.02917">
        <ele>44.8</ele>
        <time>2023-01-07T16:00:37Z</time>
      </trkpt>
      <trkpt lat="49.07386" lon="2.02931">
        <ele>43.9</ele>
        <time>2023-01-07T16:00:43Z</time>
      </trkpt>
      <trkpt lat="49.07386" lon="2.02944">
        <ele>42.9</ele>
        <time>2023-01-07T16:00:48Z</time>
      </trkpt>
      <trkpt lat="49.07389" lon="2.02951">
        <ele>42.7</ele>
        <time>2023-01-07T16:00:54Z</time>
      </trkpt>
      <trkpt lat="49.07392" lon="2.02951">
        <ele>42.7</ele>
        <time>2023-01-07T16:00:59Z</time>
      </trkpt>
      <trkpt lat="49.07396" lon="2.02952">
        <ele>42.5</ele>
        <time>2023-01-07T16:01:05Z</time>
      </trkpt>
      <trkpt lat="49.07407" lon="2.02947">
        <ele>42.3</ele>
        <time>2023-01-07T16:01:11Z</time>
      </trkpt>
      <trkpt lat="49.07414" lon="2.02936">
        <ele>42.4</ele>
        <time>2023-01-07T16:01:17Z</time>
      </trkpt>
      <trkpt lat="49.07418" lon="2.02931">
        <ele>42.5</ele>
        <time>2023-01-07T16:01:22Z</time>
      </trkpt>
      <trkpt lat="49.07422" lon="2.02928">
        <ele>42.5</ele>
        <time>2023-01-07T16:01:28Z</time>
      </trkpt>
      <trkpt lat="49.0743" lon="2.02924">
        <ele>42.4</ele>
        <time>2023-01-07T16:01:34Z</time>
      </trkpt>
      <trkpt lat="49.07436" lon="2.0292">
        <ele>42.3</ele>
        <time>2023-01-07T16:01:39Z</time>
      </trkpt>
      <trkpt lat="49.07444" lon="2.02913">
        <ele>42</ele>
        <time>2023-01-07T16:01:44Z</time>
      </trkpt>
      <trkpt lat="49.07452" lon="2.02907">
        <ele>42</ele>
        <time>2023-01-07T16:01:50Z</time>
      </trkpt>
      <trkpt lat="49.07459" lon="2.02901">
        <ele>42</ele>
        <time>2023-01-07T16:01:55Z</time>
      </trkpt>
      <trkpt lat="49.07466" lon="2.02893">
        <ele>42</ele>
        <time>2023-01-07T16:02:01Z</time>
      </trkpt>
      <trkpt lat="49.07472" lon="2.0289">
        <ele>42</ele>
        <time>2023-01-07T16:02:06Z</time>
      </trkpt>
      <trkpt lat="49.0748" lon="2.0289">
        <ele>42</ele>
        <time>2023-01-07T16:02:12Z</time>
      </trkpt>
      <trkpt lat="49.07486" lon="2.02894">
        <ele>41.9</ele>
        <time>2023-01-07T16:02:17Z</time>
      </trkpt>
      <trkpt lat="49.07491" lon="2.02898">
        <ele>41.8</ele>
        <time>2023-01-07T16:02:22Z</time>
      </trkpt>
      <trkpt lat="49.07494" lon="2.02901">
        <ele>41.7</ele>
        <time>2023-01-07T16:02:28Z</time>
      </trkpt>
      <trkpt lat="49.07497" lon="2.02902">
        <ele>41.6</ele>
        <time>2023-01-07T16:02:33Z</time>
      </trkpt>
      <trkpt lat="49.07497" lon="2.02902">
        <ele>41.6</ele>
        <time>2023-01-07T16:02:39Z</time>
      </trkpt>
      <trkpt lat="49.07497" lon="2.02902">
        <ele>41.6</ele>
        <time>2023-01-07T16:02:45Z</time>
      </trkpt>
      <trkpt lat="49.07497" lon="2.02902">
        <ele>41.6</ele>
        <time>2023-01-07T16:02:51Z</time>
      </trkpt>
      <trkpt lat="49.07496" lon="2.02901">
        <ele>41.6</ele>
        <time>2023-01-07T16:02:57Z</time>
      </trkpt>
      <trkpt lat="49.07494" lon="2.02901">
        <ele>41.7</ele>
        <time>2023-01-07T16:03:02Z</time>
      </trkpt>
      <trkpt lat="49.07494" lon="2.02901">
        <ele>41.6</ele>
        <time>2023-01-07T16:03:08Z</time>
      </trkpt>
      <trkpt lat="49.07494" lon="2.02902">
        <ele>41.6</ele>
        <time>2023-01-07T16:03:13Z</time>
      </trkpt>
      <trkpt lat="49.07495" lon="2.02902">
        <ele>41.6</ele>
        <time>2023-01-07T16:03:19Z</time>
      </trkpt>
      <trkpt lat="49.07495" lon="2.02901">
        <ele>41.6</ele>
        <time>2023-01-07T16:03:24Z</time>
      </trkpt>
      <trkpt lat="49.07495" lon="2.02901">
        <ele>41.6</ele>
        <time>2023-01-07T16:03:30Z</time>
      </trkpt>
      <trkpt lat="49.07502" lon="2.02909">
        <ele>41.2</ele>
        <time>2023-01-07T16:03:36Z</time>
      </trkpt>
      <trkpt lat="49.07509" lon="2.02912">
        <ele>40.8</ele>
        <time>2023-01-07T16:03:41Z</time>
      </trkpt>
      <trkpt lat="49.07516" lon="2.02907">
        <ele>40.6</ele>
        <time>2023-01-07T16:03:46Z</time>
      </trkpt>
      <trkpt lat="49.07522" lon="2.02899">
        <ele>40.3</ele>
        <time>2023-01-07T16:03:51Z</time>
      </trkpt>
      <trkpt lat="49.07529" lon="2.02886">
        <ele>40.1</ele>
        <time>2023-01-07T16:03:57Z</time>
      </trkpt>
      <trkpt lat="49.07532" lon="2.02872">
        <ele>40.5</ele>
        <time>2023-01-07T16:04:03Z</time>
      </trkpt>
      <trkpt lat="49.07533" lon="2.02861">
        <ele>40.8</ele>
        <time>2023-01-07T16:04:08Z</time>
      </trkpt>
      <trkpt lat="49.07535" lon="2.02851">
        <ele>40.8</ele>
        <time>2023-01-07T16:04:14Z</time>
      </trkpt>
      <trkpt lat="49.07537" lon="2.02838">
        <ele>40.7</ele>
        <time>2023-01-07T16:04:20Z</time>
      </trkpt>
      <trkpt lat="49.07539" lon="2.02826">
        <ele>40.6</ele>
        <time>2023-01-07T16:04:25Z</time>
      </trkpt>
      <trkpt lat="49.07541" lon="2.02814">
        <ele>40.5</ele>
        <time>2023-01-07T16:04:31Z</time>
      </trkpt>
      <trkpt lat="49.07543" lon="2.02804">
        <ele>40.5</ele>
        <time>2023-01-07T16:04:36Z</time>
      </trkpt>
      <trkpt lat="49.07546" lon="2.02795">
        <ele>40.6</ele>
        <time>2023-01-07T16:04:41Z</time>
      </trkpt>
      <trkpt lat="49.0755" lon="2.02783">
        <ele>40.9</ele>
        <time>2023-01-07T16:04:47Z</time>
      </trkpt>
      <trkpt lat="49.07552" lon="2.0277">
        <ele>41</ele>
        <time>2023-01-07T16:04:53Z</time>
      </trkpt>
      <trkpt lat="49.07556" lon="2.0276">
        <ele>41</ele>
        <time>2023-01-07T16:04:58Z</time>
      </trkpt>
      <trkpt lat="49.07557" lon="2.02751">
        <ele>40.9</ele>
        <time>2023-01-07T16:05:03Z</time>
      </trkpt>
      <trkpt lat="49.07558" lon="2.0274">
        <ele>41.3</ele>
        <time>2023-01-07T16:05:08Z</time>
      </trkpt>
      <trkpt lat="49.07562" lon="2.02728">
        <ele>41.6</ele>
        <time>2023-01-07T16:05:14Z</time>
      </trkpt>
      <trkpt lat="49.07564" lon="2.02715">
        <ele>41.7</ele>
        <time>2023-01-07T16:05:20Z</time>
      </trkpt>
      <trkpt lat="49.07566" lon="2.02702">
        <ele>41.6</ele>
        <time>2023-01-07T16:05:25Z</time>
      </trkpt>
      <trkpt lat="49.07569" lon="2.0269">
        <ele>41.5</ele>
        <time>2023-01-07T16:05:31Z</time>
      </trkpt>
      <trkpt lat="49.0757" lon="2.0268">
        <ele>41.5</ele>
        <time>2023-01-07T16:05:37Z</time>
      </trkpt>
      <trkpt lat="49.07572" lon="2.02669">
        <ele>41.4</ele>
        <time>2023-01-07T16:05:42Z</time>
      </trkpt>
      <trkpt lat="49.07573" lon="2.02661">
        <ele>41.4</ele>
        <time>2023-01-07T16:05:47Z</time>
      </trkpt>
      <trkpt lat="49.07573" lon="2.02651">
        <ele>41.4</ele>
        <time>2023-01-07T16:05:52Z</time>
      </trkpt>
      <trkpt lat="49.07575" lon="2.02639">
        <ele>41.3</ele>
        <time>2023-01-07T16:05:58Z</time>
      </trkpt>
      <trkpt lat="49.07576" lon="2.02633">
        <ele>41.4</ele>
        <time>2023-01-07T16:06:03Z</time>
      </trkpt>
      <trkpt lat="49.07576" lon="2.02633">
        <ele>41.4</ele>
        <time>2023-01-07T16:06:09Z</time>
      </trkpt>
    </trkseg>
  </trk>
</gpx>